[[{"header":{"parameterUnit":"m.s-1","parameterCategory":1,"la1":30.6,"la2":29.2853,"lo1":-89.7004,"lo2":-87.6739,"dy":0.0162,"dx":0.0183,"nx":112,"ny":82,"refTime":"2024-03-09T06:00:00:Z","depth":0,"parameterNumber":2,"parameterNumberName":"U-component_of_WINDS"},"data":[0.0,0.0,0.0,0.0,0.0,0.0,0.0,0.0,0.0,0.0,0.0,0.0,0.0,0.0,0.0,0.0,0.0,0.0,0.0,0.0,0.0,0.0,0.0,0.0,0.0,0.0,0.0,0.0,0.0,0.0,0.0,0.0,0.0,0.0,0.0,0.0,0.0,0.0,0.0,0.0,0.0,0.0,0.0,0.0,0.0,0.0,0.0,0.0,0.0,0.0,0.0,0.0,0.0,0.0,0.0,0.0,0.0,0.0,0.0,0.0,0.0,0.0,0.0,0.0,0.0,0.0,0.0,0.0,0.0,0.0,0.0,0.0,0.0,0.0,0.0,0.0,0.0,0.0,0.0,0.0,0.0,0.0,0.0,0.0,0.0,0.0,0.0,0.0,0.0,0.0,-1.4797,-1.7284,-2.0874,-2.3144,-2.3144,-2.4082,-2.3415,-2.048,0.0,0.0,0.0,0.0,0.0,0.0,0.0,0.0,0.0,0.0,0.0,0.0,0.0,0.0,0.0,0.0,0.0,0.0,0.0,0.0,0.0,0.0,0.0,0.0,0.0,0.0,0.0,0.0,0.0,0.0,0.0,0.0,0.0,0.0,0.0,0.0,0.0,0.0,0.0,0.0,0.0,0.0,0.0,0.0,0.0,0.0,0.0,0.0,0.0,0.0,0.0,0.0,0.0,0.0,0.0,0.0,0.0,0.0,0.0,0.0,0.0,0.0,0.0,0.0,0.0,0.0,0.0,0.0,0.0,0.0,0.0,0.0,0.0,0.0,0.0,0.0,0.0,0.0,0.0,0.0,0.0,0.0,0.0,0.0,0.0,0.0,0.0,0.0,0.0,0.0,0.0,0.0,0.0,0.0,0.0,0.0,0.0,0.0,0.0,0.0,0.0,0.0,0.0,0.0,-1.6268,-2.0108,-2.2097,-2.3144,-2.3144,-2.2988,-2.2303,-2.0912,0.0,0.0,0.0,0.0,0.0,0.0,0.0,0.0,0.0,0.0,0.0,0.0,0.0,0.0,0.0,0.0,0.0,0.0,0.0,0.0,0.0,0.0,0.0,0.0,0.0,0.0,0.0,0.0,0.0,0.0,0.0,0.0,0.0,0.0,0.0,0.0,0.0,0.0,0.0,0.0,0.0,0.0,0.0,0.0,0.0,0.0,0.0,0.0,0.0,0.0,0.0,0.0,0.0,0.0,0.0,0.0,0.0,0.0,0.0,0.0,0.0,0.0,0.0,0.0,0.0,0.0,0.0,0.0,0.0,0.0,0.0,0.0,0.0,0.0,0.0,0.0,0.0,0.0,0.0,0.0,0.0,0.0,0.0,0.0,0.0,0.0,0.0,0.0,0.0,0.0,0.0,0.0,0.0,0.0,0.0,0.0,0.0,0.0,0.0,0.0,0.0,0.0,0.0,-1.6031,-1.8215,-2.1283,-2.2519,-2.3144,-2.3144,-2.2969,-2.2476,-2.1797,-2.2636,0.0,0.0,0.0,0.0,0.0,0.0,0.0,0.0,0.0,0.0,0.0,0.0,0.0,0.0,0.0,0.0,0.0,0.0,0.0,0.0,0.0,0.0,0.0,0.0,0.0,0.0,0.0,0.0,0.0,0.0,0.0,0.0,0.0,0.0,0.0,0.0,0.0,0.0,0.0,0.0,0.0,0.0,0.0,0.0,0.0,0.0,0.0,0.0,0.0,0.0,0.0,0.0,0.0,0.0,0.0,0.0,0.0,0.0,0.0,0.0,0.0,0.0,0.0,0.0,0.0,0.0,0.0,0.0,0.0,0.0,0.0,0.0,0.0,0.0,0.0,0.0,0.0,0.0,0.0,0.0,0.0,0.0,0.0,0.0,0.0,0.0,0.0,0.0,0.0,0.0,0.0,0.0,0.0,0.0,0.0,0.0,0.0,0.0,0.0,0.0,0.0,0.0,-1.8506,-1.969,-2.1928,-2.2754,-2.3144,-2.3144,-2.2852,-2.2504,-2.2208,-2.2227,0.0,0.0,0.0,0.0,0.0,0.0,0.0,0.0,0.0,0.0,0.0,0.0,0.0,0.0,0.0,0.0,0.0,0.0,0.0,0.0,0.0,0.0,0.0,0.0,0.0,0.0,0.0,0.0,0.0,0.0,0.0,0.0,0.0,0.0,0.0,0.0,0.0,0.0,0.0,0.0,0.0,0.0,0.0,0.0,0.0,0.0,0.0,0.0,0.0,0.0,0.0,0.0,0.0,0.0,0.0,0.0,0.0,0.0,0.0,0.0,0.0,0.0,0.0,0.0,0.0,0.0,0.0,0.0,0.0,0.0,0.0,0.0,0.0,0.0,0.0,0.0,0.0,0.0,0.0,0.0,0.0,0.0,0.0,0.0,0.0,0.0,0.0,0.0,0.0,0.0,0.0,0.0,0.0,0.0,0.0,0.0,0.0,0.0,0.0,0.0,0.0,0.0,-1.8664,-1.9837,-2.2746,-2.3105,-2.3144,-2.3144,-2.2051,-2.1339,-2.1371,-2.034,0.0,0.0,0.0,0.0,0.0,0.0,0.0,0.0,0.0,0.0,0.0,0.0,0.0,0.0,0.0,0.0,0.0,0.0,0.0,0.0,0.0,0.0,0.0,0.0,0.0,0.0,0.0,0.0,0.0,0.0,0.0,0.0,0.0,0.0,0.0,0.0,0.0,0.0,0.0,0.0,0.0,0.0,0.0,0.0,0.0,0.0,0.0,0.0,0.0,0.0,0.0,0.0,0.0,0.0,0.0,0.0,0.0,0.0,0.0,0.0,0.0,0.0,0.0,0.0,0.0,0.0,0.0,0.0,0.0,0.0,0.0,0.0,0.0,0.0,0.0,0.0,0.0,0.0,0.0,0.0,0.0,0.0,0.0,0.0,0.0,0.0,0.0,0.0,0.0,0.0,0.0,0.0,0.0,0.0,0.0,0.0,0.0,0.0,0.0,0.0,0.0,0.0,-1.9534,-2.1024,-2.2882,-2.3144,-2.3144,-2.3144,-2.2461,-2.1816,-2.1337,0.0,0.0,0.0,0.0,0.0,0.0,0.0,0.0,0.0,0.0,0.0,0.0,0.0,0.0,0.0,0.0,0.0,0.0,0.0,0.0,0.0,0.0,0.0,0.0,0.0,0.0,0.0,0.0,0.0,0.0,0.0,0.0,0.0,0.0,0.0,0.0,0.0,0.0,0.0,0.0,0.0,0.0,0.0,0.0,0.0,0.0,0.0,0.0,0.0,0.0,0.0,0.0,0.0,0.0,0.0,0.0,0.0,0.0,0.0,0.0,0.0,0.0,0.0,0.0,0.0,0.0,0.0,0.0,0.0,0.0,0.0,0.0,0.0,0.0,0.0,0.0,0.0,0.0,0.0,0.0,0.0,0.0,0.0,0.0,0.0,0.0,0.0,0.0,0.0,0.0,0.0,0.0,0.0,0.0,0.0,0.0,0.0,0.0,0.0,0.0,0.0,0.0,-1.8429,-2.0026,-2.1562,-2.2988,-2.3144,-2.295,-2.258,-2.1721,-2.0893,-2.0155,0.0,0.0,0.0,0.0,0.0,0.0,0.0,0.0,0.0,0.0,0.0,0.0,0.0,0.0,0.0,0.0,0.0,0.0,0.0,0.0,0.0,0.0,0.0,0.0,0.0,0.0,0.0,0.0,0.0,0.0,0.0,0.0,0.0,0.0,0.0,0.0,0.0,0.0,0.0,0.0,0.0,0.0,0.0,0.0,0.0,0.0,0.0,0.0,0.0,0.0,0.0,0.0,0.0,0.0,0.0,0.0,0.0,0.0,0.0,0.0,0.0,0.0,0.0,0.0,0.0,0.0,0.0,0.0,0.0,0.0,0.0,0.0,0.0,0.0,0.0,0.0,0.0,0.0,0.0,0.0,0.0,0.0,0.0,0.0,0.0,0.0,0.0,0.0,0.0,0.0,0.0,0.0,0.0,0.0,0.0,0.0,0.0,0.0,0.0,0.0,0.0,0.0,-1.8396,-1.9769,-2.123,-2.2949,-2.3057,-2.258,-2.1391,-1.958,-1.8237,0.0,0.0,0.0,0.0,0.0,0.0,0.0,0.0,0.0,0.0,0.0,0.0,0.0,0.0,0.0,0.0,0.0,0.0,0.0,0.0,0.0,0.0,0.0,0.0,0.0,0.0,0.0,0.0,0.0,0.0,0.0,0.0,0.0,0.0,0.0,0.0,0.0,0.0,0.0,0.0,0.0,0.0,0.0,0.0,0.0,0.0,0.0,0.0,0.0,0.0,0.0,0.0,0.0,0.0,0.0,0.0,0.0,0.0,0.0,0.0,0.0,0.0,0.0,0.0,0.0,0.0,0.0,0.0,0.0,0.0,0.0,0.0,0.0,0.0,0.0,0.0,0.0,0.0,0.0,0.0,0.0,0.0,0.0,0.0,0.0,0.0,0.0,0.0,0.0,0.0,0.0,0.0,0.0,0.0,0.0,0.0,0.0,0.0,0.0,0.0,0.0,0.0,0.0,-1.8396,-1.9769,-2.123,-2.2949,-2.2315,-2.1658,-2.1302,-1.9573,-1.8218,-1.7717,0.0,0.0,0.0,0.0,0.0,0.0,0.0,0.0,0.0,0.0,0.0,0.0,0.0,0.0,0.0,0.0,0.0,0.0,0.0,0.0,0.0,0.0,0.0,0.0,0.0,0.0,0.0,0.0,0.0,0.0,0.0,0.0,0.0,0.0,0.0,0.0,0.0,0.0,0.0,0.0,0.0,0.0,0.0,0.0,0.0,0.0,0.0,0.0,0.0,0.0,0.0,0.0,0.0,0.0,0.0,0.0,0.0,0.0,0.0,0.0,0.0,0.0,0.0,0.0,0.0,0.0,0.0,0.0,0.0,0.0,0.0,0.0,0.0,0.0,0.0,0.0,0.0,0.0,0.0,0.0,0.0,0.0,0.0,0.0,0.0,0.0,0.0,0.0,0.0,0.0,0.0,0.0,0.0,0.0,0.0,0.0,0.0,0.0,0.0,0.0,0.0,0.0,-1.8412,-1.9769,-2.123,-2.2949,-2.2031,-2.1123,-2.0657,-1.882,-1.744,-1.6814,0.0,0.0,0.0,0.0,0.0,0.0,0.0,0.0,0.0,0.0,0.0,0.0,0.0,0.0,0.0,0.0,0.0,0.0,0.0,0.0,0.0,0.0,0.0,0.0,0.0,0.0,0.0,0.0,0.0,0.0,0.0,0.0,0.0,0.0,0.0,0.0,0.0,0.0,0.0,0.0,0.0,0.0,0.0,0.0,0.0,0.0,0.0,0.0,0.0,0.0,0.0,0.0,0.0,0.0,0.0,0.0,0.0,0.0,0.0,0.0,0.0,0.0,0.0,0.0,0.0,0.0,0.0,0.0,0.0,0.0,0.0,0.0,0.0,0.0,0.0,0.0,0.0,0.0,0.0,0.0,0.0,0.0,0.0,0.0,0.0,0.0,0.0,0.0,0.0,0.0,0.0,0.0,0.0,0.0,0.0,0.0,0.0,0.0,0.0,0.0,0.0,0.0,-1.8496,-1.9787,-2.123,-2.2776,-2.1854,-2.0657,-1.9405,-1.7714,-1.6342,-1.551,0.0,0.0,0.0,0.0,0.0,0.0,0.0,0.0,0.0,0.0,0.0,0.0,0.0,0.0,0.0,0.0,0.0,0.0,0.0,0.0,0.0,0.0,0.0,0.0,0.0,0.0,0.0,0.0,0.0,0.0,0.0,0.0,0.0,0.0,0.0,0.0,0.0,0.0,0.0,0.0,0.0,0.0,0.0,0.0,0.0,0.0,0.0,0.0,0.0,0.0,0.0,0.0,0.0,0.0,0.0,0.0,0.0,0.0,0.0,0.0,1.3481,0.0,0.0,0.0,0.0,0.0,0.0,0.0,0.0,0.0,0.0,0.0,0.0,0.0,0.0,0.0,0.0,0.0,0.0,0.0,0.0,0.0,0.0,0.0,0.0,0.0,0.0,0.0,0.0,0.0,0.0,0.0,0.0,0.0,0.0,0.0,0.0,0.0,0.0,0.0,0.0,0.0,-1.8758,-1.9971,-2.0889,-2.1581,-2.0584,-1.9405,-1.8241,-1.6593,-1.5695,-1.5725,-1.5232,0.0,0.0,0.0,0.0,0.0,0.0,0.0,0.0,0.0,0.0,0.0,0.0,0.0,0.0,0.0,0.0,0.0,0.0,0.0,0.0,0.0,0.0,0.0,0.0,0.0,0.0,0.0,0.0,0.0,0.0,0.0,0.0,0.0,0.0,0.0,0.0,0.0,0.0,0.0,0.0,0.0,0.0,0.0,0.0,0.0,0.0,0.0,0.0,0.0,0.0,0.0,0.0,0.0,0.0,0.0,0.0,0.0,0.0,0.0,0.0,1.1559,0.0,0.0,0.0,0.0,0.0,0.0,0.0,0.0,0.0,0.0,0.0,0.0,0.0,0.0,0.0,0.0,0.0,0.0,0.0,0.0,0.0,0.0,0.0,0.0,0.0,0.0,0.0,0.0,0.0,0.0,0.0,0.0,0.0,0.0,0.0,0.0,0.0,0.0,0.0,0.0,-1.8908,-1.9609,-2.0346,-2.1228,-1.9679,-1.8381,-1.7908,-1.6518,-1.5671,-1.5818,-1.5818,0.0,0.0,0.0,0.0,0.0,0.0,0.0,0.0,0.0,0.0,0.0,0.0,0.0,0.0,0.0,0.0,0.0,0.0,0.0,0.0,0.0,0.0,0.0,0.0,0.0,0.0,0.0,0.0,0.0,0.0,0.0,0.0,0.0,0.0,0.0,0.0,0.0,0.0,0.0,0.0,0.0,0.0,0.0,0.0,0.0,0.0,0.0,0.0,0.0,0.0,0.0,0.0,0.0,1.0856,0.9905,0.7963,0.7991,0.7963,0.7993,0.9073,0.925,0.875,0.0,0.0,0.0,0.0,0.0,0.0,0.0,0.0,0.0,0.0,0.0,0.0,0.0,0.0,0.0,0.0,0.0,0.0,0.0,0.0,0.0,0.0,0.0,0.0,0.0,-1.4359,-1.4892,0.0,0.0,0.0,0.0,0.0,0.0,0.0,0.0,0.0,0.0,0.0,0.0,-1.8604,-1.9007,-1.9481,-2.0534,-1.892,-1.7784,-1.7779,-1.6607,-1.5912,-1.5912,-1.6086,-1.6101,0.0,0.0,0.0,0.0,0.0,0.0,0.0,0.0,0.0,0.0,0.0,0.0,0.0,0.0,0.0,0.0,0.0,0.0,0.0,0.0,0.0,0.0,0.0,0.0,0.0,0.0,0.0,0.0,0.0,0.0,0.0,0.0,2.8028,2.7193,0.0,0.0,0.0,0.0,0.0,0.0,0.0,0.0,0.0,0.0,0.0,0.0,0.0,1.3644,1.2382,1.1159,0.9725,0.8247,0.8139,0.8008,0.7658,0.7787,0.7977,0.8214,0.8543,0.0,0.7945,0.8236,0.0,0.0,0.0,0.0,0.0,0.0,0.0,0.0,0.0,0.0,0.0,0.0,0.0,0.0,0.0,0.0,0.0,0.0,0.0,0.0,0.0,0.0,-1.2861,-1.3767,-1.5077,-1.6063,0.0,-1.6433,-1.7342,-1.8418,-1.823,0.0,0.0,0.0,0.0,0.0,0.0,0.0,-1.7341,-1.7808,-1.8051,-1.8118,-1.8127,-1.7654,-1.6648,-1.633,-1.6219,-1.6219,-1.6005,-1.6429,-1.7662,-1.7846,0.0,0.0,0.0,0.0,0.0,0.0,0.0,0.0,0.0,0.0,0.0,0.0,0.0,0.0,0.0,0.0,0.0,0.0,0.0,0.0,0.0,0.0,0.0,0.0,0.0,0.0,0.0,0.0,0.0,2.9228,2.732,2.5355,2.6335,2.6594,0.0,0.0,0.0,0.0,0.0,0.0,0.0,0.0,0.0,1.3935,1.2292,1.0801,0.9465,0.8933,0.843,0.7943,0.8045,0.814,0.8228,0.8377,0.856,0.8771,0.8832,0.875,0.8348,0.8123,0.6316,0.3607,0.0,0.0,0.0,0.0,-0.0097,-0.2326,-0.4687,-0.5577,0.0,0.0,0.0,0.0,0.0,0.0,0.0,0.0,0.0,0.0,0.0,0.0,0.0,-1.6148,-1.7066,-1.8026,-1.9472,-1.9586,-1.9558,0.0,-2.0179,-1.9954,-1.8627,0.0,0.0,0.0,0.0,-1.655,-1.7101,-1.7262,-1.7428,-1.7717,-1.716,-1.6649,-1.6357,-1.6126,-1.6375,-1.7312,-1.7028,-1.7463,-1.88,-1.8989,-1.9702,0.0,0.0,0.0,0.0,0.0,0.0,0.0,0.0,0.0,0.0,0.0,0.0,0.0,0.0,0.0,0.0,0.0,0.0,0.0,0.0,0.0,0.0,0.0,0.0,0.0,0.0,0.0,0.0,2.8349,2.6462,2.3975,2.4902,2.4935,0.0,0.0,0.0,0.0,0.0,0.0,1.7115,1.5378,1.3354,1.0866,0.9883,0.8939,0.7943,0.8045,0.8174,0.833,0.8547,0.8737,0.8886,0.9001,0.913,0.9273,0.9273,0.9171,0.903,0.8464,0.6862,0.4409,0.1201,-0.1985,-0.4468,-0.2661,-0.3237,-0.5196,-0.7267,-0.7925,-0.8038,-0.8038,0.0,-1.0342,-1.0792,0.0,0.0,0.0,0.0,-1.4108,-1.4315,-1.5358,-1.6676,-1.8075,-1.8768,-1.9812,-2.2132,-2.2336,-2.1931,0.0,-2.1873,-2.1646,-2.009,0.0,0.0,0.0,0.0,-1.6371,-1.6693,-1.6632,-1.6762,-1.7188,-1.6455,-1.6032,-1.6259,-1.6072,-1.6498,-1.7971,-1.7864,-1.8411,-1.9861,-2.0306,-2.0806,-2.1761,0.0,0.0,0.0,0.0,0.0,0.0,0.0,0.0,0.0,0.0,0.0,0.0,0.0,0.0,0.0,0.0,0.0,0.0,0.0,0.0,0.0,0.0,0.0,0.0,0.0,0.0,0.0,0.0,0.0,2.4269,2.3929,0.0,0.0,0.0,0.0,1.9259,1.9296,1.7234,1.235,1.2097,1.095,0.854,0.8584,0.8687,0.8866,0.8879,0.8954,0.9096,0.911,0.9198,0.9347,0.9354,0.9442,0.9591,0.9486,0.9499,0.9453,0.8994,0.8425,0.7305,0.1994,-0.321,-0.7679,-0.7327,-0.7466,-0.7832,-0.7778,-0.7916,-0.8106,-0.8526,-1.0355,-1.2853,-1.4861,-1.5494,0.0,0.0,-1.5404,-1.571,-1.5724,-1.5949,-1.6731,-1.8258,-1.9602,-2.0858,-2.2321,-2.3429,-2.401,0.0,-2.2129,-2.1135,-2.0703,0.0,-1.793,-1.7206,-1.6176,-1.547,-1.5483,-1.5483,-1.5604,-1.5886,-1.6086,-1.6259,-1.6273,-1.6259,-1.6829,-1.7986,-1.7864,-1.878,-2.1159,-2.1626,-2.2852,-2.4811,-2.5276,0.0,0.0,0.0,0.0,0.0,0.0,0.0,0.0,0.0,0.0,0.0,0.0,0.0,0.0,0.0,0.0,0.0,0.0,0.0,0.0,0.0,0.0,0.0,0.0,0.0,0.0,0.0,0.0,2.4125,2.392,0.0,2.0312,1.9893,1.9063,1.7399,1.6704,1.5158,1.2253,1.1775,1.0682,0.8941,0.8886,0.9015,0.9225,0.9225,0.9245,0.93,0.9401,0.9476,0.953,0.9625,0.97,0.9768,0.9654,0.9747,0.9666,0.9592,0.9117,0.8017,0.2249,-0.2303,-0.5906,-0.7533,-0.8228,-0.8221,-0.8343,-0.8969,-1.0051,-1.1754,-1.3015,-1.4059,-1.539,-1.5832,-1.5845,-1.5939,-1.6032,-1.6206,-1.658,-1.6754,-1.7305,-1.8905,-2.0279,-2.166,-2.3073,-2.4145,-2.4481,-2.3055,-2.2618,-2.194,-2.0251,-1.9067,-1.7842,-1.6239,-1.5667,-1.5391,-1.5391,-1.5565,-1.5712,-1.5818,-1.5925,-1.5992,-1.5992,-1.6742,-1.7769,-1.8955,-1.9654,-2.0887,-2.2801,-2.2796,-2.3568,-2.5469,-2.5371,-2.6016,0.0,0.0,0.0,0.0,0.0,0.0,0.0,0.0,0.0,0.0,0.0,0.0,0.0,0.0,0.0,0.0,0.0,0.0,0.0,0.0,0.0,0.0,0.0,0.0,0.0,0.0,2.5275,2.3634,2.3008,2.1735,1.9235,1.8367,1.7556,1.6679,1.6113,1.4838,1.2836,1.2309,1.126,0.9415,0.9975,1.0054,0.953,1.0162,1.0162,0.953,0.9632,0.9686,0.9693,0.9788,0.9849,0.9747,0.9761,0.9849,0.9781,0.9758,0.694,0.2399,0.0661,-0.2475,-0.6182,-0.8017,-0.8574,-0.8508,-0.8852,-0.9843,-1.1425,-1.3413,-1.447,-1.5137,-1.5986,-1.6273,-1.6313,-1.6513,-1.6567,-1.6773,-1.777,-1.8081,-1.8683,-2.0523,-2.1843,-2.2924,-2.4134,-2.4889,-2.4966,-2.3654,-2.3129,-2.2205,-1.9911,-1.8839,-1.7885,-1.6486,-1.5885,-1.5578,-1.5671,-1.5778,-1.5832,-1.5832,-1.5832,-1.6021,-1.6386,-1.7042,-1.8191,-1.9951,-2.0629,-2.1862,-2.368,-2.3789,-2.4394,-2.5703,-2.5723,-2.6367,-2.7656,0.0,0.0,0.0,0.0,0.0,0.0,0.0,0.0,0.0,0.0,0.0,0.0,0.0,0.0,0.0,0.0,0.0,0.0,0.0,0.0,0.0,0.0,0.0,2.4303,2.4405,2.3937,2.2611,2.1043,1.9807,1.9095,1.8192,1.7515,1.7235,1.7488,1.646,1.3739,1.3615,1.2463,0.9744,1.159,1.1678,0.995,1.167,1.1547,0.9822,0.9829,0.9836,0.9856,0.9863,0.9754,0.9787,0.9808,0.9814,0.9801,0.9303,0.1687,-0.9174,-0.2748,-0.3821,-0.8943,-0.8943,-0.8884,-0.8983,-0.9449,-1.0532,-1.2109,-1.3243,-1.4724,-1.6175,-1.7042,-1.7194,-1.7194,-1.7194,-1.7194,-1.7558,-1.9169,-1.9897,-2.0888,-2.3108,-2.4007,-2.4574,-2.5429,-2.5645,-2.5605,-2.5156,-2.3673,-2.1825,-1.9829,-1.8707,-1.8082,-1.8082,-1.677,0.0,-1.6219,-1.6005,-1.5832,-1.5858,-1.5858,-1.6414,-1.7636,-1.7246,-1.8163,-2.1087,-2.0815,-2.1543,-2.3738,-2.4609,-2.5273,-2.5742,-2.6621,-2.7266,-2.7695,0.0,0.0,0.0,0.0,0.0,0.0,0.0,0.0,0.0,0.0,0.0,0.0,0.0,0.0,0.0,0.0,0.0,0.0,0.0,0.0,0.0,2.4716,2.391,2.4028,2.279,2.1562,2.1024,2.0771,2.0317,1.9403,1.905,1.8838,1.8758,1.9025,1.7799,1.4548,1.4761,1.3948,1.2052,1.1291,1.1253,1.1808,1.1125,1.0457,0.9822,0.993,0.9937,0.9856,0.9971,0.9992,0.9808,0.9814,0.9767,0.9054,-0.0482,-0.6483,-0.9655,-0.7863,-0.8037,-0.9313,-0.9313,-0.9388,-0.971,-1.1923,-1.3221,-1.4239,-1.6357,-1.7588,-1.8039,-1.8127,-1.8116,-1.8116,-1.8116,-1.8116,-1.8252,-1.8646,-1.9679,-2.0772,-2.1412,-2.2944,-2.4343,-2.4656,-2.5229,-2.5295,-2.4066,-2.3542,-2.2717,-2.069,-1.9114,-1.7794,-1.694,-1.6211,0.0,-1.5939,-1.5885,-1.5992,-1.642,-1.7428,-1.8282,-1.8731,-2.0136,-2.1242,-2.1789,-2.2428,-2.3294,-2.4238,-2.4473,-2.5098,-2.6191,-2.7344,-2.7611,0.0,0.0,0.0,0.0,0.0,0.0,0.0,0.0,0.0,0.0,0.0,0.0,0.0,0.0,0.0,0.0,0.0,0.0,0.0,0.0,0.0,0.0,2.3721,2.3172,2.2455,2.1322,2.0377,1.9946,2.0203,2.0298,1.9811,1.9733,1.9733,1.9733,1.915,1.7756,1.5176,1.4529,1.3852,1.2901,1.2043,1.1837,1.261,1.1783,1.0834,0.9836,0.9992,1.0005,0.9774,0.9861,0.8352,0.0,0.2837,0.1595,0.0973,-0.6663,-0.9806,0.0,0.0,0.0,0.0,0.0,-0.9646,-1.0053,-1.2399,-1.38,-1.4914,-1.7207,-1.8389,-1.9052,-1.8758,-1.8677,-1.8749,-1.9264,-1.9442,-1.9661,-2.0939,-2.1989,-2.2774,-2.3005,-2.4257,-2.5376,-2.4939,-2.529,-2.547,-2.4503,-2.3538,0.0,-2.1295,-1.9662,-1.8047,-1.667,-1.6206,-1.6019,-1.6019,-1.5912,-1.6197,-1.7246,-1.8155,-1.9151,-2.0475,-2.1569,0.0,0.0,0.0,-2.4108,-2.5215,-2.541,0.0,0.0,0.0,-2.8045,-2.7456,0.0,0.0,0.0,-2.738,-2.7705,0.0,0.0,0.0,0.0,0.0,0.0,0.0,0.0,0.0,0.0,0.0,0.0,0.0,0.0,0.0,0.0,2.3329,2.2212,2.0674,2.0369,2.006,1.9461,1.9706,2.0,2.0254,2.0307,2.0212,2.0077,1.8582,1.6954,1.5202,0.0,0.0,0.0,0.0,1.2951,1.2679,1.275,1.1799,0.9787,1.0066,1.008,0.9841,0.9861,0.583,-0.1482,-0.7321,-0.9834,-0.9808,-0.9788,-0.9781,-0.9829,-0.9829,-0.9822,-0.9834,-0.9815,-0.9849,-1.0093,-1.1864,0.0,0.0,-1.6727,-1.8286,-1.9319,-1.9052,-1.9085,-1.947,-2.0479,-2.0937,-2.1681,-2.4246,-2.5252,-2.5766,-2.6251,-2.6715,-2.6695,-2.5838,-2.5508,-2.543,-2.5333,-2.3285,-2.1744,-2.1744,-2.0155,-1.8556,-1.7182,-1.6612,-1.6424,-1.6508,-1.6278,-1.6703,-1.8297,0.0,0.0,-2.2577,-2.2403,-2.2849,-2.4346,-2.4063,-2.4597,-2.6367,-2.6836,-2.7461,-2.8281,-2.834,-2.8574,-2.8984,-2.8765,-2.837,-2.7831,-2.7831,-2.793,0.0,0.0,0.0,0.0,0.0,0.0,0.0,0.0,0.0,0.0,0.0,0.0,0.0,0.0,0.0,2.5625,2.41,2.2667,2.1919,2.0883,2.0077,1.9733,2.0187,2.0535,2.0588,2.0802,2.0294,1.8879,1.8486,1.6946,1.3855,1.3379,1.3257,1.3215,1.1863,1.178,1.2936,1.1607,1.0649,1.0096,0.0,0.0,0.9876,1.0249,0.3786,-0.7954,-0.9199,-0.9821,-0.9814,-0.9863,-0.9829,-0.9822,-0.9774,-0.9768,-0.9795,-0.9822,-0.9829,-1.0186,-1.3177,-1.4361,-1.5074,-1.8052,-1.9127,-1.9359,-1.9305,-2.0172,0.0,-2.1421,-2.2289,-2.3275,-2.3938,-2.4994,-2.601,-2.6169,-2.6589,-2.6647,-2.5414,-2.4556,-2.3782,-2.2667,-2.2047,-2.1744,-2.1744,-1.9445,-1.783,-1.8556,-1.7496,-1.7004,-1.8076,-1.8213,-1.8489,-1.9284,-2.1445,-2.3107,-2.3799,-2.4505,-2.4908,-2.498,-2.5141,-2.5624,-2.6367,-2.7129,-2.7773,-2.8281,-2.8633,-2.9004,-2.9453,-2.8052,-2.7609,-2.7831,-2.7831,-2.7322,0.0,0.0,0.0,0.0,0.0,0.0,0.0,0.0,0.0,0.0,0.0,2.6775,2.5971,0.0,2.6133,2.4675,2.4132,2.3209,2.1464,2.0862,2.0561,2.0267,2.0494,2.0735,2.0882,2.1029,2.0716,1.9814,1.8116,1.6431,1.4744,1.2931,1.2413,1.3325,1.1637,1.1425,1.3037,1.1482,1.0527,1.0203,1.05,0.8621,0.4859,0.5238,-0.0253,-0.983,-0.9861,-0.9808,-0.9794,-0.9741,-0.9829,-0.9822,-0.9822,-0.9822,-0.9822,-0.9822,-0.9822,-1.0301,-1.3526,-1.4599,-1.5084,-1.8402,-1.9372,-1.9372,-1.9372,-1.9924,-2.0816,-2.2266,-2.3263,-2.4156,-2.5608,-2.6045,-2.5991,-2.5793,-2.545,-2.4791,-2.3947,-2.3255,-2.2656,-2.2042,-2.1775,-2.181,-2.2009,-2.0767,-1.9816,-2.0184,-1.9483,-1.9117,-1.9731,-1.97,-2.0199,-2.1329,-2.2687,-2.395,-2.4771,-2.5641,-2.5977,-2.5742,-2.6133,-2.6562,-2.7012,-2.7637,-2.8184,-2.8594,-2.8233,-2.8183,-2.8709,-2.7062,-2.6084,-2.5737,-2.5737,-2.5351,0.0,0.0,0.0,0.0,0.0,0.0,0.0,2.8827,2.7497,2.659,2.6275,2.6023,2.5563,2.6226,2.6132,2.409,2.4057,2.351,2.1227,2.1051,2.1029,2.0788,2.0762,2.0855,2.1082,2.0843,2.0449,2.0068,1.7216,1.5265,1.4884,1.2281,1.1372,1.2808,1.1372,1.1308,1.2588,1.1329,1.0241,0.938,1.032,0.6981,-0.0,-0.0,-0.3184,-0.8937,-0.9548,-0.9821,-0.9761,-0.9842,-0.9822,-0.9822,-0.9856,-0.9863,-0.9863,-0.9829,-0.9822,-1.0301,-1.3526,-1.4599,-1.5084,-1.8402,-1.9372,-1.9372,-1.9372,-1.9591,-2.0371,-2.2702,-2.3599,-2.4378,-2.6825,-2.6499,-2.5519,-2.52,-2.4105,-2.2994,-2.2376,-2.2038,-2.1691,-2.1481,-2.145,-2.1648,-2.227,-2.2632,-2.2604,-2.1911,-2.1611,-2.1378,-2.1417,-2.1366,-2.1873,-2.3196,-2.3505,-2.4234,-2.5606,-2.6133,-2.6387,-2.6387,-2.6855,-2.7305,-2.7656,-2.8144,-2.8505,-2.8584,-2.7731,-2.7311,-2.747,-2.5794,-2.4511,-2.3574,-2.3634,-2.3634,3.3521,3.0603,2.8818,3.0392,2.8621,2.6806,0.0,2.7503,2.6525,2.7167,2.6749,2.6487,2.6719,2.633,2.6172,2.6572,2.4639,2.3125,2.3177,2.2048,2.1096,2.1069,2.1069,2.1069,2.1109,1.9674,1.8116,1.656,1.4754,1.2931,1.1372,1.085,1.085,1.0982,1.085,1.0843,1.0955,1.0731,0.9117,0.6007,0.9151,0.6947,-0.0,-0.0,-0.1955,-0.5551,-0.8511,-0.9744,-0.9829,-0.9822,-0.9822,-0.9836,-0.9971,-1.0025,-1.0005,-0.9869,-0.9822,-1.0301,-1.3526,-1.4599,-1.5084,-1.8402,-1.9372,-1.9372,-1.9372,-2.0256,-2.1472,-2.1699,-2.2814,-2.3933,-2.4267,-2.4156,-2.4028,-2.3994,-2.3635,-2.284,-2.1585,-2.0997,-2.0352,-1.9085,-1.9888,-2.1248,-2.247,-2.3738,-2.4553,-2.4003,-2.2912,-2.2469,-2.3295,-2.3359,-2.3476,-2.361,-2.4749,-2.5489,-2.5625,-2.6133,-2.6387,-2.6387,-2.7148,-2.7617,-2.7676,-2.8437,-2.8363,-2.7278,-2.7579,-2.7234,-2.6161,-2.4593,-2.3777,-2.3589,-2.3983,-2.3968,3.3751,3.0944,2.8889,2.992,2.8515,2.7034,2.7428,2.7323,2.7138,2.6875,2.714,2.7637,2.8047,2.7455,2.6839,2.6114,2.4458,2.3054,2.2201,2.145,2.0788,2.0615,2.0601,2.0735,2.1082,1.9546,1.8244,1.7474,1.4874,1.2931,1.2281,1.124,1.0717,1.0717,1.0717,1.0717,1.0717,1.0765,0.8879,0.5362,0.4708,0.2952,-0.0,-0.0,-0.1936,-0.534,-0.8409,-0.9908,-1.008,-0.9992,-1.0005,-1.0093,-1.0161,-1.0181,-1.0175,-1.0114,-1.0032,-1.0443,-1.3583,-1.471,-1.5084,-1.8402,-1.9372,-1.9372,-1.9372,-1.9809,-2.0472,-2.1358,-2.2024,-2.2702,-2.3599,-2.3151,-2.2476,-2.2476,-2.1707,-2.0841,-2.0288,-2.0579,-2.0678,-2.014,-2.1697,-2.3436,-2.4297,-2.5637,-2.6456,-2.6286,-2.5526,-2.5201,-2.556,-2.5434,-2.5282,-2.5282,-2.5797,-2.6211,-2.6465,-2.6641,-2.6855,-2.7109,-2.7695,-2.8144,-2.8379,-2.8965,-2.869,-2.7579,-2.7016,-2.6077,-2.4655,-2.3141,-2.299,-2.3983,-2.4314,-2.5391,3.3422,3.0906,2.901,2.9542,2.8396,2.7126,2.7167,2.7672,2.7965,2.757,2.8164,2.8945,2.9375,2.867,2.7388,2.5708,2.4377,2.2952,2.1362,2.0855,2.0561,2.0267,2.016,2.0037,2.006,1.8578,1.7524,1.7076,1.4232,1.2545,1.2545,1.1372,1.0717,1.0717,1.0717,1.0717,1.0717,1.0645,0.889,0.5362,0.174,-0.0,-0.0134,-0.2097,-0.3858,-0.556,-0.8574,-1.0029,-1.027,-1.0161,-1.0181,-1.0283,-1.0324,-1.0337,-1.0472,-1.0891,-1.0876,-1.1031,-1.3826,-1.5022,-1.5666,-1.8532,-1.9426,-1.9492,-1.9492,-1.9546,-1.9807,-2.0859,-2.1046,-2.1362,-2.2281,-2.1813,-2.1031,-2.1031,-2.0141,-1.9475,-1.9924,-2.0742,-2.145,-2.1769,-2.3753,-2.5394,-2.5666,-2.6949,-2.7832,-2.7832,-2.7578,-2.7285,-2.7051,-2.6758,-2.6562,-2.6562,-2.6562,-2.668,-2.6992,-2.7129,-2.7383,-2.7812,-2.8242,-2.8652,-2.9082,-2.9045,-2.848,-2.7111,-2.5923,-2.4579,-2.3097,-2.2567,-2.2964,-2.4314,-2.5657,-2.7697,3.1845,2.9487,2.7406,2.8543,2.7243,2.6231,2.7917,2.831,2.8574,2.9824,3.0117,3.0293,3.0742,2.9493,2.7794,2.6211,2.4655,2.2952,2.1362,2.0855,2.0561,2.0267,1.9987,1.9205,0.0,1.6344,1.5051,1.3569,1.1762,1.0717,1.0717,1.0717,1.0717,1.0717,1.0717,1.0717,1.0717,1.0645,0.889,0.5362,0.1723,-0.0,-0.0264,-0.7262,-0.8513,-0.5525,-0.8874,-1.0297,-1.0283,-1.0276,-1.0276,-1.0297,-1.0432,-1.0487,-1.076,-1.2596,-1.2833,-1.2619,-1.4192,-1.5731,-1.7208,-1.8881,-1.9559,-1.9786,-1.9786,-1.9987,-2.0147,-1.9867,-1.9905,-1.9838,-1.9555,-1.9475,-1.9488,-1.9488,-1.9475,-1.9809,-2.1259,-2.1571,-2.2009,-2.3471,-2.5023,-2.6118,-2.6136,-2.7257,-2.8281,-2.8281,-2.8262,-2.7949,-2.7129,-2.7012,-2.6992,-2.6992,-2.6992,-2.7012,-2.7012,-2.7402,-2.7832,-2.8242,-2.8672,-2.9101,-2.9531,-2.844,-2.7111,-2.544,-2.4239,-2.2986,-2.1666,-2.3305,-2.4344,-2.466,-2.8443,-3.1127,3.1445,3.0495,2.9851,2.9171,2.8168,2.7734,2.8887,2.9355,2.959,2.9746,2.9551,2.9075,2.8163,2.7105,2.5709,2.3763,2.3111,2.2335,2.1294,2.0855,2.0428,1.9733,1.9573,1.8349,0.0,0.0,0.0,1.5022,1.3139,1.2295,1.2405,1.1372,1.0717,1.0717,1.0717,1.0717,1.0717,1.0677,0.8898,0.5419,0.1698,-0.0,-0.026,-0.7428,-1.0078,-0.9027,-1.0025,-1.046,-1.0561,-1.046,-1.048,-1.0575,-1.0622,-1.0643,-1.0906,-1.2652,-1.3766,-1.4721,-1.6183,-1.7063,-1.7817,-1.9233,-1.9853,-2.0094,-2.0094,-2.016,-2.0214,-2.0107,-1.9947,-1.9773,-1.9679,-1.9506,-1.9372,-1.9372,-2.0141,-2.1031,-2.1472,-2.2363,-2.3263,-2.371,-2.4267,-2.4599,-2.4599,-2.5827,-2.7168,-2.8174,-2.8301,-2.8086,-2.7519,-2.7695,-2.7754,-2.748,-2.7441,-2.7676,-2.8242,-2.791,-2.8086,-2.9082,-2.9004,-2.8776,-2.844,-2.9068,-2.7705,-2.4239,-2.5059,-2.4797,-2.3305,-2.4357,-2.6037,-2.846,-3.1485,-3.3709,3.1413,3.1305,3.1343,2.9725,2.9172,2.916,2.9883,3.0117,3.0039,2.9453,2.8867,2.8125,2.6937,2.5614,2.4211,2.2798,2.2139,2.1598,2.0916,2.0548,1.9905,1.8854,1.8583,1.7113,1.347,0.0,0.0,1.3925,1.3259,1.2718,1.2311,1.1344,1.0717,1.0717,1.0717,1.0724,1.0731,1.0767,0.8285,0.339,0.1166,-0.0,-0.0258,-0.6098,-0.9565,-1.0706,-1.05,-1.0561,-1.0711,-1.0616,-1.0629,-1.0717,-1.0717,-1.1115,-1.1894,-1.3578,-1.5187,-1.6689,-1.7462,-1.8189,-1.8825,-1.964,-2.0147,-2.0388,-2.0388,-2.0468,-2.0521,-2.0414,-2.0187,-1.9933,-1.9826,-1.9586,-1.9372,-1.9372,-2.0141,-2.0945,-2.1621,-2.2436,-2.3344,-2.3907,-2.402,-2.397,-2.3838,-2.5041,-2.6608,-2.8067,-2.8301,-2.8203,-2.793,-2.8125,-2.8184,-2.791,-2.7891,-2.8164,-2.8867,-2.786,-2.7706,-2.8918,-2.8126,-2.7477,-2.7169,-2.7559,-2.6542,-2.3863,-2.4922,-2.5282,-2.4524,-2.6229,-2.8554,-3.1514,-3.3808,-3.6081,3.1812,3.186,3.187,3.0098,2.9961,3.0351,3.0762,3.0488,2.9883,2.9004,2.8125,2.7363,2.6793,2.5017,2.3458,2.3104,2.1806,2.0788,2.0348,2.004,1.9244,1.7733,1.7161,1.5494,1.2216,1.3423,0.0,1.051,0.0,1.2274,1.089,1.0767,1.0717,1.0717,1.0717,1.0731,1.0751,1.0636,0.7066,-0.0,-0.0,-0.0,-0.0129,-0.3525,-0.7107,-1.0733,-1.0683,-1.0724,-1.0717,-1.0717,-1.0717,-1.0717,-1.0717,-1.1762,-1.3447,-1.5265,-1.6947,-1.8477,-1.8356,-1.9125,-2.0281,-2.0254,-2.0454,-2.0695,-2.0695,-2.0895,-2.1056,-2.0775,-2.0468,-2.0174,-1.9893,-1.9599,-1.9372,-1.9386,-1.9502,-2.0034,-2.1686,-2.1978,-2.2443,-2.3942,-2.4155,-2.4137,-2.3888,-2.5041,-2.6608,-2.8067,-2.8301,-2.8301,-2.832,-2.832,-2.834,-2.8359,-2.8252,-2.8408,-2.8836,-2.7382,-2.6793,-2.7696,-2.6168,-2.5468,-2.5846,-2.4548,-2.3863,-2.4052,-2.4209,-2.4653,-2.5419,-2.8904,-3.1514,-3.3348,-3.5873,-3.821,3.3132,3.3361,3.3355,3.1476,3.0859,3.0644,3.043,2.9785,2.8906,2.7734,2.6289,2.4716,2.3094,2.2501,2.1865,2.0801,2.1023,2.1234,2.0956,2.0815,2.0491,1.9555,1.8204,1.6464,1.4289,1.4328,0.0,0.0,1.1814,1.3207,1.4521,1.2127,1.0717,1.0717,1.0717,1.0731,1.0751,1.0678,0.7135,-0.0,-0.0,-0.0,-0.0,-0.0919,-0.4757,-1.0751,-1.0744,-1.0738,-1.0717,-1.0717,-1.0717,-1.0717,-1.0717,-1.1762,-1.3447,-1.5265,-1.6947,-1.8628,-1.9853,-2.0558,-2.0855,-2.0628,-2.0762,-2.1002,-2.1002,-2.1056,-2.1096,-2.1015,-2.0628,-2.0214,-2.0147,-1.9746,-1.9426,-1.9639,-2.0592,-2.1467,-2.2275,-2.2349,-2.2468,-2.294,-2.2711,-2.2881,-2.3664,-2.5041,-2.6608,-2.8067,-2.8301,-2.8398,-2.8711,-2.8769,-2.8887,-2.9219,-2.8089,-2.7563,-2.8081,-2.6319,-2.5545,-2.6405,-2.5708,-2.5004,-2.4286,-2.5138,-2.5187,-2.4179,-2.5801,-2.7437,-2.9032,-3.1299,-3.3375,-3.5273,-3.8573,-4.0574,3.4539,3.4734,3.4799,3.2116,3.1211,3.0625,2.959,2.8691,2.7617,2.5937,2.4531,2.3183,2.1795,2.062,1.981,1.9915,1.9744,1.9766,2.0456,2.0641,2.0394,1.9432,1.8408,1.6808,1.4232,1.4661,1.4145,0.0,1.2258,1.2978,1.344,1.1724,1.0717,1.0717,1.0731,1.0724,1.0697,0.7621,0.4036,-0.0,-0.0,-0.0,-0.0,-0.0,-0.2131,-0.618,0.0,-1.0744,-1.0731,-1.0724,-1.0717,-1.0717,-1.1497,-1.2931,-1.4623,-1.6431,-1.8116,-1.9801,-2.0716,-2.1109,-2.1082,-2.0922,-2.0975,-2.1109,-2.1109,-2.1109,-2.1109,-2.1109,-2.0775,-2.0428,-2.0428,-2.0,-1.9626,-1.992,-2.0579,-2.1171,-2.164,-2.174,-2.1818,-2.2393,-2.2082,-2.2466,-2.4411,-2.548,-2.6608,-2.8067,-2.7898,-2.771,-2.8106,-2.8584,-2.8752,-2.8484,-2.771,-2.6938,-2.6724,-2.5021,-2.4196,-2.4854,-2.3978,-2.3118,-2.2577,-2.436,-2.5109,-2.4389,-2.7322,-2.9375,-3.0574,-3.3144,-3.5252,-3.6902,-4.0032,-4.1609,3.5859,3.5959,3.5685,3.2395,3.1191,3.0351,2.8613,2.7461,2.6152,2.4062,2.293,2.2187,2.1719,1.948,1.8159,1.986,1.8699,1.8104,1.9666,2.0134,1.9898,1.8775,1.8297,1.6948,1.3996,1.4886,1.4983,1.3208,1.3079,1.2314,1.0904,1.0781,1.0724,1.0724,1.0751,1.0724,1.0649,0.3562,-0.0,-0.0,-0.0,-0.0,-0.0,-0.0,-0.0268,-0.1073,0.0,0.0,-1.0744,-1.0731,-1.085,-1.124,-1.2676,-1.4493,-1.6431,-1.7988,-1.9546,-2.1109,-2.1109,-2.1109,-2.1109,-2.1109,-2.1109,-2.1109,-2.1109,-2.1109,-2.1109,-2.1109,-2.0895,-2.0681,-2.0681,-2.0241,-1.988,-2.0214,-2.0187,-2.0373,-2.0971,-2.1218,-2.1723,-2.2662,-2.2574,-2.3135,-2.5608,-2.61,-2.6573,-2.7822,-2.705,-2.6424,-2.6796,-2.7809,-2.8108,-2.7115,-2.6805,-2.6248,-2.5131,-2.3612,-2.2784,-2.3186,-2.1853,-2.1235,-2.1475,-2.3257,-2.4584,-2.5288,-2.857,-3.0647,-3.1176,-3.4531,-3.6902,-3.8223,-4.0575,-4.211,3.7178,3.6186,3.4805,3.2633,3.1172,2.9863,2.8164,2.6543,2.4902,2.3105,2.2051,2.1211,2.041,1.9758,1.9436,1.9845,1.949,1.958,2.0389,2.0561,2.0584,2.0611,1.9345,1.8163,1.7607,1.6476,0.0,0.0,1.3274,1.3143,1.2882,1.149,1.0731,1.0744,1.0665,1.0685,1.0672,0.3578,-0.0,-0.0,-0.0,-0.0,-0.0,-0.0,-0.1612,-0.4557,-0.5763,0.0,-1.0724,-1.0724,-1.1505,-1.2931,-1.3193,-1.5265,-1.8116,-1.8372,-1.9546,-2.1109,-2.1109,-2.1109,-2.1109,-2.1109,-2.1109,-2.1109,-2.1109,-2.1109,-2.1109,-2.1109,-2.0895,-2.0681,-2.0681,-2.0241,-1.9933,-2.0468,-2.1441,-2.2333,-2.298,-2.4086,-2.4964,-2.4574,-2.5391,-2.6144,-2.6154,-2.6334,-2.655,-2.6791,-2.5743,-2.5177,-2.5527,-2.5763,-2.5982,-2.6114,-2.4955,-2.4147,-2.3963,-2.2381,-2.142,-2.1475,-2.1235,-2.1727,-2.3076,-2.3762,-2.5581,-2.8709,-2.9726,-3.1172,-3.3019,-3.6173,-3.7985,-3.8223,-4.1287,-4.2837,3.7947,3.6676,3.4859,3.2792,3.1016,2.9297,2.7148,2.5312,2.3574,2.1855,2.0996,2.043,2.0,1.897,1.8547,1.9502,1.8449,1.8142,2.0158,2.0006,2.004,2.0788,2.0232,1.9152,1.7345,1.7216,1.5784,1.215,1.2808,1.2931,1.2025,1.1122,1.0758,1.0665,1.0692,0.8923,0.5121,0.1738,-0.0,-0.0,-0.0,-0.0,-0.0,-0.0,-0.2959,-0.822,-0.821,0.0,-1.0738,-1.0724,-1.1762,-1.3456,-1.4362,-1.6172,-1.864,-1.9546,-2.0322,-2.1109,-2.1109,-2.1109,-2.1109,-2.1109,-2.1109,-2.1109,-2.1109,-2.1109,-2.1109,-2.1109,-2.1002,-2.1146,-2.2004,-2.1897,-2.1732,-2.287,-2.3534,-2.4149,-2.479,-2.5351,-2.5963,-2.6317,-2.6787,-2.7282,-2.7472,-2.7141,-2.678,-2.6583,-2.4961,-2.3831,-2.4003,-2.3444,-2.3503,-2.464,-2.4054,-2.3201,-2.2341,-2.1601,-2.1109,-2.1109,-2.1978,-2.2716,-2.3574,-2.5606,-2.7565,-2.9705,-3.0891,-3.2218,-3.3418,-3.666,-3.8223,-3.8223,-4.1533,-4.3137,3.8258,3.6911,3.5025,3.2887,3.0859,2.8789,2.6309,2.4316,2.2519,2.0781,2.0156,1.9788,1.937,1.8011,1.7338,1.8617,1.7085,1.6649,1.9249,1.9291,1.9412,2.0454,2.0895,1.9941,1.6818,1.7731,0.0,1.215,1.2808,0.0,1.0724,1.0758,1.0658,1.0705,0.9198,0.5658,-0.0,-0.0,-0.0,-0.0,-0.0,-0.0,-0.0,-0.1615,-0.4983,-0.9594,-1.0398,0.0,0.0,-1.1115,-1.2281,-1.397,-1.5784,-1.7474,-1.9164,-2.0195,-2.0589,-2.0589,-2.0589,-2.0589,-2.0589,-2.0982,-2.1109,-2.1109,-2.1109,-2.1109,-2.1109,-2.1109,-2.1362,-2.1978,-2.3201,-2.352,-2.3894,-2.5225,-2.5679,-2.5999,-2.6765,-2.6781,-2.7099,-2.8082,-2.8058,-2.8163,-2.8901,-2.7789,-2.6566,-2.6267,-2.4095,-2.2451,-2.2451,-2.17,-2.1601,-2.2966,-2.3076,-2.2591,-2.1235,-2.1488,-2.1601,-2.1601,-2.3201,-2.4301,-2.4671,-2.7383,-2.9355,-3.0217,-3.1846,-3.3015,-3.3902,-3.6781,-3.8342,-3.8817,-4.1426,-4.2885,3.8194,3.6415,3.4536,3.3047,3.084,2.8418,2.623,2.4102,2.207,2.0332,1.9941,1.937,1.7715,1.766,1.7432,1.6408,1.6581,1.7122,1.8036,1.891,1.9559,2.0201,2.0775,2.0322,1.85,1.8384,1.7602,1.5524,0.0,0.0,1.0751,1.0672,1.0699,1.0705,0.4442,0.0673,-0.0,-0.0,-0.0,-0.0,-0.0,-0.0,-0.0269,-0.6745,-0.836,-0.6038,-0.9267,0.0,0.0,-1.2413,-1.4101,-1.5784,-1.7602,-1.9291,-2.0716,-1.9279,-1.8768,-1.8768,-1.8768,-1.8768,-1.9024,-2.0589,-2.1109,-2.1109,-2.1109,-2.1109,-2.1109,-2.1109,-2.2215,-2.345,-2.3574,-2.417,-2.5111,-2.6275,-2.7079,-2.7966,-2.9527,-3.0084,-3.0335,-3.0044,-2.9928,-2.9886,-2.959,-2.7258,-2.5492,-2.5459,-2.3029,-2.1321,-2.1321,-2.1222,-2.1109,-2.1362,-2.1362,-2.1235,-2.1109,-2.2466,-2.3325,-2.3325,-2.4901,-2.647,-2.7931,-2.8325,-2.9582,-3.1886,-3.2207,-3.3314,-3.556,-3.7363,-3.8935,-4.0361,-4.1068,-4.1423,3.7695,3.6164,3.4082,3.3047,3.0644,2.8047,2.6172,2.3867,2.1719,2.0215,1.9259,1.8378,1.7352,1.6161,1.5509,1.6032,1.519,1.5162,1.7131,1.7291,1.7782,1.9265,1.8974,1.8256,1.7033,0.0,1.4623,1.2931,0.0,0.0,1.0751,0.9273,0.7254,0.43,0.1477,-0.0,-0.0,-0.0,-0.0,-0.0,-0.0,-0.2289,-0.6472,-0.9332,-0.999,-0.8723,-1.0079,0.0,0.0,-1.2545,-1.4362,-1.6043,-1.7859,-1.8896,-1.9546,-1.9941,-1.9419,-1.864,-1.9674,-2.0068,-2.0195,-2.0843,-2.1727,-2.2466,-2.1362,-2.1853,-2.2591,-2.2591,-2.3807,-2.5205,-2.5977,-2.6661,-2.7474,-2.8257,-2.8653,-2.907,-3.0023,-3.0566,-3.084,-3.0644,-3.0605,-3.0469,-3.0019,-2.7552,-2.5687,-2.5353,-2.2857,-2.1109,-2.1109,-2.1109,-2.1109,-2.1109,-2.1109,-2.1475,-2.2466,-2.3201,-2.4054,-2.5024,-2.6591,-2.7917,-2.8769,-2.9766,-3.1041,-3.2519,-3.2793,-3.4057,-3.635,-3.7143,-3.8385,-4.0089,-4.0151,-4.0403,3.6693,3.5676,3.4127,3.2917,3.0234,2.75,2.5898,2.3555,2.1328,2.0,1.8732,1.7696,1.7099,1.5193,1.4137,1.538,1.4088,1.3748,1.6077,1.6113,1.6593,1.8317,1.7638,1.6834,1.6318,1.49,1.3193,0.0,0.0,0.0,1.0751,0.9123,0.6569,0.3222,0.1074,-0.0,-0.0,-0.0,-0.0,-0.0,-0.2153,-0.5796,-1.0705,-1.0692,-1.0658,-1.0751,0.0,0.0,0.0,-1.3193,-1.4754,-1.6172,-1.8372,-1.9291,-1.9419,-2.0068,-1.9546,-1.864,-1.9941,-2.0703,-2.1195,-2.1713,-2.2952,-2.4054,-2.2937,-2.3311,-2.4301,-2.4301,-2.5497,-2.6987,-2.8173,-2.8842,-2.9199,-2.9492,-2.957,-2.9687,-3.0098,-3.0566,-3.0898,-3.0898,-3.0898,-3.0781,-3.0449,-2.7991,-2.5885,-2.5518,-2.3039,-2.1109,-2.1109,-2.1475,-2.1853,-2.1853,-2.2215,-2.2827,-2.3574,-2.4425,-2.5513,-2.6591,-2.8415,-2.9527,-3.0055,-3.1194,-3.2305,-3.3164,-3.3457,-3.4679,-3.6855,-3.7065,-3.7952,-3.9578,-3.9214,-3.9191,3.5067,3.4919,3.459,3.2631,2.959,2.668,2.5371,2.3086,2.0879,1.957,1.8544,1.7605,1.679,1.5013,1.3784,1.4186,1.3621,1.3614,1.4892,1.5712,1.6593,1.7488,1.7001,1.663,1.7171,1.6412,1.4493,0.0,0.0,0.0,1.0751,1.0652,1.0678,1.0571,0.377,-0.0,-0.0,-0.0,-0.0,-0.0135,-0.7152,-1.0571,-1.0705,-1.0645,-1.0751,0.0,0.0,0.0,0.0,-1.4493,-1.5913,-1.6302,-1.9674,-2.1109,-2.0843,-1.9152,-1.8512,-1.8512,-1.85,-1.9611,-2.1227,-2.3047,-2.4655,-2.5984,-2.5984,-2.5984,-2.5984,-2.5984,-2.7073,-2.8692,-2.9834,-2.9883,-2.957,-2.957,-2.957,-2.9687,-3.0098,-3.0566,-3.0898,-3.0898,-3.0898,-3.0898,-3.0879,-2.8188,-2.5984,-2.5968,-2.3186,-2.1109,-2.1109,-2.2591,-2.3574,-2.3574,-2.5024,-2.5253,-2.3698,-2.6486,-2.8426,-2.8408,-3.0282,-3.1699,-3.2148,-3.2559,-3.3184,-3.4043,-3.4062,-3.5012,-3.7085,-3.7085,-3.7952,-3.9454,-3.8317,-3.7616,3.184,3.1233,3.0178,2.8937,2.6934,2.4902,2.3613,2.1992,2.041,1.9102,1.8112,1.7279,1.6736,1.5013,1.3918,1.4706,1.4069,1.3841,1.483,1.4684,1.527,1.7344,1.6541,1.5022,0.0,0.0,0.0,0.0,0.0,0.0,0.0,0.9442,1.0699,1.0705,0.851,0.4983,-0.0,-0.0,-0.2422,-0.7286,-0.9606,-1.0685,-1.0645,-1.0765,0.0,0.0,0.0,0.0,0.0,-1.4493,-1.5913,-1.6302,-1.9674,-2.0335,-1.9419,-2.0068,-1.9546,-1.8884,-2.1168,-2.2298,-2.3032,-2.464,-2.6349,-2.7692,-2.7692,-2.7692,-2.7931,-2.9039,-2.9235,-2.9412,-3.0042,-2.9668,-2.9199,-2.9492,-2.9785,-3.0039,-3.0176,-3.0566,-3.0528,-2.9412,-3.0138,-3.0528,-2.9394,-2.8307,-2.7692,-2.7692,-2.5863,-2.4394,-2.4394,-2.4885,-2.5349,-2.5606,-2.7102,-2.7957,-2.7347,-2.8339,-2.9434,-3.0857,-3.1886,-3.2578,-3.3008,-3.3437,-3.3926,-3.4492,-3.4805,-3.5922,-3.7695,-3.674,-3.6797,-3.7616,-3.8833,-3.9741,2.9009,2.8731,2.7623,2.6606,2.4863,2.3203,2.2246,2.1016,1.973,1.8328,1.7315,1.6543,1.614,1.4514,1.3505,1.4406,1.3747,1.348,1.4496,1.3835,1.3745,1.4953,1.512,0.0,0.0,0.0,0.0,0.0,0.0,0.0,0.0,0.9466,1.0719,1.0719,0.8107,0.458,-0.0,-0.2692,-0.6337,-1.0705,-1.0685,-1.0652,-1.0751,-1.0744,0.0,0.0,0.0,0.0,0.0,-1.4744,-1.6302,-1.7205,-1.9941,-2.0462,-1.9674,-2.1461,-2.1321,-2.0777,-2.3529,-2.4901,-2.5635,-2.6591,-2.8051,-2.9275,-2.9275,-2.9275,-2.953,-3.0645,-3.0488,-3.0137,-3.0391,-2.9941,-2.9512,-2.9961,-3.0137,-3.012,-2.9564,-2.9695,-2.953,-2.7811,-2.8801,-2.9648,-2.8545,-2.8426,-2.8426,-2.8426,-2.7073,-2.6017,-2.6166,-2.6793,-2.7313,-2.7706,-2.9382,-3.0605,-3.0903,-3.0642,-3.1153,-3.2617,-3.3047,-3.3555,-3.4141,-3.457,-3.5,-3.543,-3.5723,-3.6301,-3.7146,-3.751,-3.7763,-3.8384,-4.0838,-4.2638,0.0,2.6909,2.6487,2.502,2.3164,2.1582,2.1152,2.0117,0.0,1.7513,1.6541,1.5858,1.5396,1.3753,1.276,1.3696,1.3005,1.2826,1.3904,1.3367,1.2383,0.0,1.3077,0.0,1.0322,0.0,0.0,0.0,0.0,0.0,0.0,0.9893,0.9759,0.9215,0.269,-0.0807,-0.0807,-0.7421,-1.0705,-1.0705,-1.0645,-1.0751,-1.0751,-1.0731,0.0,0.0,0.0,0.0,0.0,-1.5135,-1.6947,-1.864,-2.0449,-2.1109,-2.1475,-2.3076,-2.3698,-2.4054,-2.5619,-2.7194,-2.8426,-2.8545,-2.9648,-3.0898,-3.0898,-3.0898,-3.0898,-3.0898,-3.0859,-3.0859,-3.0879,-3.0547,-3.0312,-3.0645,-3.0431,-2.9757,-2.8455,-2.817,-2.7811,-2.6349,-2.7349,-2.8444,-2.8426,-2.8582,-2.8618,-2.8582,-2.7401,-2.6583,-2.7041,-2.8482,-2.9556,-2.9974,-3.177,-3.3301,-3.418,-3.3437,-3.3125,-3.3574,-3.4023,-3.4629,-3.5449,-3.5879,-3.6309,-3.6699,-3.6719,-3.6523,-3.6152,-3.8924,-4.0531,-4.108,-4.4152,-4.6424,2.2487,0.0,2.151,2.0801,2.0273,1.9785,0.0,1.9004,1.8601,1.7966,1.7662,1.7283,1.6705,1.5425,1.4564,1.4754,1.4153,1.3574,1.3294,1.4433,0.0,1.3384,1.4471,1.4366,1.2258,0.0,0.0,0.0,0.0,0.8241,0.0,0.2532,-0.0,-0.5517,-0.7341,-0.8148,-0.8236,-0.9881,-1.0699,-1.0678,-1.0638,-1.0751,-1.0751,-1.0731,0.0,0.0,0.0,0.0,-1.3456,-1.5135,-1.6947,-1.864,-2.0449,-2.1853,-2.3076,-2.345,-2.4425,-2.5619,-2.7314,-2.8051,-2.8664,-2.9903,-3.0528,-3.0898,-3.0898,-3.0898,-3.0898,-3.0898,-3.0644,-3.0449,-3.0801,-3.0547,-2.9949,-2.9183,-2.8947,-2.8419,-2.6936,-2.6591,-2.647,-2.6106,-2.7557,-2.8769,-2.848,-3.0054,-3.1238,-3.0792,-3.1028,-3.1219,-3.1313,-3.1989,-3.2738,-3.3469,-3.3921,-3.4746,-3.5957,-3.4941,-3.459,-3.5371,-3.582,-3.6152,-3.6367,-3.6777,-3.7051,-3.7148,-3.7148,-3.7266,-3.748,-3.9729,-4.1067,-4.201,-4.7294,-5.0231,2.077,2.0073,1.957,1.9336,1.9141,1.8926,1.8691,1.8496,1.8143,1.748,1.7354,1.6996,1.5707,1.4944,1.4213,1.3426,1.3046,0.0,0.0,0.0,1.3167,1.2081,1.2499,1.2674,0.0,0.0,0.0,0.0,0.0,0.0,0.0,-0.2882,-0.6296,-1.0221,-1.0411,-0.9789,-0.822,-0.985,-1.0658,-1.0645,-1.0751,-1.0738,-1.0738,-1.0724,-1.1108,0.0,0.0,0.0,-1.5654,-1.5784,-1.7345,-1.9801,-2.0716,-2.209,-2.3698,-2.4425,-2.5741,-2.7314,-2.9039,-2.953,-2.9648,-3.0645,-3.0898,-3.0898,-3.0898,-3.0898,-3.0898,-3.0898,-3.0703,-3.0566,-3.082,-3.0083,-2.9287,-2.8727,-2.8076,-2.7261,-2.6694,-2.6496,-2.6496,-2.6603,-2.7992,-2.9125,-2.8967,-3.0558,-3.1914,-3.207,-3.2656,-3.3223,-3.3613,-3.4043,-3.4648,-3.5508,-3.5781,-3.6348,-3.7441,-3.707,-3.6719,-3.6621,-3.6816,-3.7051,-3.7246,-3.7461,-3.7676,-3.7871,-3.7695,-3.83,-3.9901,-4.2039,-4.4302,-4.6773,-5.113,-5.4079,2.0117,1.9626,1.9336,1.9141,1.8867,1.8543,1.8484,1.8262,1.7784,1.6991,1.6715,1.6088,1.4305,1.3784,1.3098,1.1786,0.0,0.0,1.025,1.067,1.081,1.0391,1.0386,0.0,0.0,0.0,0.0,0.0,0.0,0.0,0.0,-0.6837,-0.9832,-0.9845,-1.0068,-0.898,-0.6125,-0.9094,-1.0731,-1.0751,-1.0731,-1.0724,-1.0724,-1.0724,-1.163,0.0,0.0,0.0,-1.8372,-1.6947,-1.8244,-2.1109,-2.1362,-2.2466,-2.4178,-2.5741,-2.7452,-2.9039,-3.0392,-3.0898,-3.0898,-3.0898,-3.0898,-3.0898,-3.0898,-3.0898,-3.0898,-3.0898,-3.0762,-3.0528,-3.0528,-2.9331,-2.8229,-2.8445,-2.7446,-2.6569,-2.7024,-2.709,-2.7217,-2.7596,-2.8517,-2.9537,-2.9934,-3.1123,-3.2148,-3.2891,-3.3457,-3.4101,-3.4902,-3.5449,-3.6074,-3.6875,-3.7344,-3.791,-3.8711,-3.9101,-3.8848,-3.7773,-3.7617,-3.7715,-3.8008,-3.8086,-3.8426,-3.909,-3.8793,-4.0002,-4.2826,-4.5415,-4.8467,-5.1984,-5.484,-5.7751,1.9312,1.9291,1.9551,1.8477,1.8418,1.8535,1.8184,1.8047,1.794,1.7784,1.7148,1.6316,1.5478,1.3943,1.2936,1.317,0.0,1.1747,0.0,0.0,1.2337,1.3561,0.0,0.0,0.0,0.0,0.0,0.0,0.0,0.0,0.0,-0.9227,-0.9849,-1.0062,-1.0069,-0.9943,-0.9569,-1.0104,-1.0504,-1.0751,-1.0731,-1.0731,-1.0751,-1.0731,-1.163,0.0,0.0,-1.5005,-1.8512,-1.8244,-1.9291,-2.1235,-2.2716,-2.4163,-2.5863,-2.7434,-2.9039,-3.0528,-3.0762,-3.0898,-3.0898,-3.0898,-3.0898,-3.0898,-3.0898,-3.0898,-3.0898,-3.0898,-2.9903,-2.8783,-2.8783,-2.7799,-2.6694,-2.6901,-2.7027,-2.7024,-2.7201,-2.7217,-2.7723,-2.9101,-2.9815,-3.0567,-3.1577,-3.2863,-3.373,-3.3867,-3.4863,-3.5801,-3.6309,-3.7051,-3.7734,-3.8223,-3.8652,-3.9121,-3.9648,-3.9746,-3.9707,-3.9512,-3.9121,-3.8769,-3.8476,-3.8809,-3.9885,-4.1668,-4.196,-4.3231,-4.58,-4.9259,-5.1469,-5.2538,-5.7404,-6.0279,1.8763,1.875,1.9082,1.8496,1.9023,1.9512,1.8848,1.8266,1.7819,1.7819,1.6991,1.5832,1.448,1.4123,1.3667,1.2595,0.0,1.0331,1.0957,1.0795,1.0825,0.0,0.0,0.0,0.0,0.0,0.0,0.0,0.0,0.0,0.0,0.0,-0.9895,-0.9935,-0.9985,-1.0012,-1.0154,-1.0109,-1.0263,-1.0616,-1.0602,-1.1162,-1.2041,-1.2157,-1.3587,-1.6043,0.0,-1.6689,-1.9801,-1.8896,-2.0043,-2.2591,-2.3325,-2.5146,-2.7452,-2.9157,-3.0274,-3.0898,-3.0898,-3.0898,-3.0898,-3.0898,-3.0898,-3.0898,-3.0898,-3.0898,-3.0937,-3.1172,-2.9987,-2.8612,-2.8612,-2.7041,-2.5612,-2.682,-2.6488,-2.6665,-2.8776,-2.9212,-2.9722,-3.1402,-3.1653,-3.196,-3.3019,-3.3691,-3.4316,-3.5019,-3.6035,-3.6953,-3.7617,-3.8242,-3.8867,-3.9551,-3.9805,-4.0098,-4.0547,-4.0586,-4.0391,-3.9922,-3.9687,-3.9492,-3.9297,-4.0452,-4.1665,-4.292,-4.4133,-4.5934,-4.8302,-5.097,-5.351,-5.6106,-5.943,-6.1861,1.8442,1.8242,1.8457,1.8359,1.916,1.9902,1.9648,1.8602,1.7743,1.81,1.6985,1.5416,1.3599,1.4047,0.0,1.1217,1.0322,0.978,0.9195,0.9218,0.0,0.0,0.0,0.0,0.0,0.0,0.0,0.0,0.0,0.0,0.0,0.0,-0.9836,-0.9802,-0.9815,-0.9998,-1.0479,-1.0486,-1.0642,-1.1077,-1.1077,-1.1903,-1.3708,-1.3752,-1.5455,-1.8291,-1.7055,-1.8244,-2.0982,-2.0043,-2.1294,-2.3698,-2.4425,-2.6486,-2.9157,-3.0392,-3.0898,-3.0898,-3.0898,-3.0898,-3.0898,-3.0898,-3.0898,-3.0898,-3.0898,-3.0703,-3.0485,-3.0792,-2.9532,-2.8023,-2.843,-2.6547,-2.497,-2.6517,-2.599,-2.6129,-2.9535,-3.0195,-3.0786,-3.2644,-3.2746,-3.2969,-3.4238,-3.4453,-3.4941,-3.6133,-3.7051,-3.7871,-3.8633,-3.918,-3.9766,-4.0449,-4.0605,-4.082,-4.1152,-4.1172,-4.1033,-4.0952,-4.0813,-4.0713,-4.0614,-4.2543,-4.4052,-4.4858,-4.6536,-4.8705,-5.1516,-5.3316,-5.6134,-5.9878,-6.1566,-6.3319,1.8362,1.8027,1.7949,1.7578,1.7832,1.8594,2.0117,1.8842,1.774,1.9312,1.7641,1.5475,1.4163,1.3746,1.247,0.9391,1.121,1.2149,0.987,0.0,0.0,0.0,0.0,0.0,0.0,0.0,0.0,0.0,0.0,0.0,0.0,0.0,0.0,-0.9632,-0.9754,-1.0543,-1.1993,-1.1993,-1.2175,-1.254,-1.254,-1.3421,-1.4932,-1.514,-1.6371,-1.8172,-1.8279,-1.9419,-2.1235,-2.2577,-2.3325,-2.3946,-2.6849,-2.9157,-3.0762,-3.0898,-3.0898,-3.0898,-3.0898,-3.0898,-3.0898,-3.0898,-3.0898,-3.0898,-3.0898,-3.0049,-2.9107,-2.9143,-2.7151,-2.5543,-2.6886,-2.6166,-2.5126,-2.5287,-2.5396,-2.6008,-2.79,-2.8561,-2.9327,-3.1217,-3.1769,-3.2685,-3.4929,-3.5625,-3.6191,-3.707,-3.793,-3.8652,-3.9101,-3.9902,-4.0449,-4.0508,-4.0879,-4.1133,-4.1172,-4.1172,-4.1868,-4.371,-4.3464,-4.3025,-4.2606,-4.4866,-4.7008,-4.8896,-4.9985,-5.2312,-5.5943,-5.8181,-6.0309,-6.2352,-6.3914,-6.5173,1.76,1.7793,1.8301,1.7871,1.8281,1.9121,2.0293,1.9101,1.8146,1.9485,1.7965,1.5981,1.444,1.2112,1.0431,1.0077,1.0626,1.0661,0.0,0.0,0.0,0.0,0.0,0.0,0.0,0.0,0.0,0.0,0.0,0.0,0.0,0.0,0.0,-0.9605,-1.0599,-1.1503,-1.2217,-1.3168,-1.4201,-1.5324,-1.4485,-1.4868,-1.6629,-1.6717,-1.7766,-1.9394,-1.9509,-2.0035,-2.0967,-2.2661,-2.3978,-2.5375,-2.8683,-3.0392,-3.0898,-3.0898,-3.0898,-3.0898,-3.0898,-3.0898,-3.0898,-3.0898,-3.0157,-2.9394,-2.9394,-2.8456,-2.7446,-2.7685,-2.7111,-2.6435,-2.5919,-2.4701,-2.4026,-2.5071,-2.5577,-2.6359,-2.8093,-2.864,-2.9445,-3.1363,-3.2088,-3.3028,-3.5433,-3.6582,-3.7402,-3.8008,-3.8828,-3.9551,-3.998,-4.0312,-4.0625,-4.0898,-4.1074,-4.1773,-4.2922,-4.3075,-4.3815,-4.5701,-4.4678,-4.4337,-4.5325,-4.7539,-4.8943,-4.9676,-5.1552,-5.386,-5.6424,-5.8712,-6.0903,-6.314,-6.4837,-6.5981,1.6815,1.6857,1.7178,1.7025,1.7643,1.8746,2.0407,1.9326,1.8418,1.9686,1.7981,1.5833,1.4148,1.169,0.9968,0.0,1.0288,0.0,0.0,0.0,0.0,0.0,0.0,0.0,0.0,0.0,0.0,0.0,0.0,0.0,0.0,0.0,0.0,0.0,-1.1294,-1.246,-1.3542,-1.4795,-1.6138,-1.7806,-1.6782,-1.6954,-1.8119,-1.8204,-1.9031,-2.0241,-2.0334,-2.0726,-2.1519,-2.3307,-2.5408,-2.7811,-3.002,-3.0898,-3.0898,-3.0898,-3.0898,-3.0898,-3.0898,-3.0898,-3.0762,-3.0274,-2.9275,-2.8289,-2.7811,-2.6806,-2.5865,-2.612,-2.6147,-2.5733,-2.4669,-2.4196,-2.4078,-2.461,-2.5128,-2.5761,-2.7516,-2.8196,-2.9159,-3.1915,-3.2683,-3.367,-3.6228,-3.7461,-3.8281,-3.8711,-3.9531,-4.0195,-4.0488,-4.0644,-4.084,-4.1152,-4.1872,-4.2839,-4.4306,-4.5039,-4.6308,-4.8383,-4.7203,-4.6921,-4.7927,-4.9985,-5.1498,-5.1985,-5.4037,-5.6327,-5.8658,-6.0635,-6.2736,-6.4881,-6.6298,-6.7208,1.6096,1.5204,1.4321,1.4595,1.5446,1.7097,2.0345,1.957,1.866,2.0136,1.7835,1.5059,1.3111,1.271,0.0,0.9325,1.0303,0.0,0.0,0.0,0.0,0.0,0.0,0.0,0.0,0.0,0.0,0.0,0.0,0.0,0.0,0.0,0.0,0.0,-1.1735,-1.3432,-1.6459,-1.6832,-1.7806,-1.9359,-1.9359,-1.9359,-1.9372,-1.9666,-1.996,-2.0241,-2.0548,-2.1519,-2.3095,-2.5108,-2.7931,-3.0879,-3.0879,-3.0879,-3.0898,-3.0898,-3.0898,-3.0898,-3.0898,-3.0898,-3.0645,-2.892,-2.8426,-2.8051,-2.647,-2.525,-2.4416,-2.4416,-2.3714,-2.2939,-2.3247,-2.4677,-2.5614,-2.3732,-2.3554,-2.4323,-2.6224,-2.6899,-2.8334,-3.2524,-3.3635,-3.4729,-3.7488,-3.8301,-3.873,-3.9141,-3.9961,-4.0527,-4.0527,-4.0898,-4.1172,-4.1172,-4.3485,-4.4921,-4.4942,-4.7311,-4.956,-5.1531,-5.1677,-5.12,-5.0032,-5.2379,-5.4628,-5.6424,-5.7588,-5.9912,-6.3486,-6.4756,-6.6195,-6.7986,-6.8675,-6.9004,1.5128,1.5148,1.54,1.5002,1.6195,1.7941,1.9838,1.8872,1.7831,1.8833,1.7213,1.5221,1.3846,1.2654,0.0,0.9405,0.0,0.0,0.0,0.0,0.0,0.0,0.0,0.0,0.0,0.0,0.0,0.0,0.0,0.0,0.0,0.0,0.0,0.0,-1.2046,-1.3635,-1.4707,-1.6964,-1.8385,-1.9052,-1.9052,-1.9158,-1.9372,-1.9666,-1.984,-1.9947,-2.1421,-2.2271,-2.2856,-2.5662,-2.8223,-3.041,-3.041,-3.0605,-3.0898,-3.0898,-3.0898,-3.0898,-3.0898,-3.0898,-3.0645,-2.892,-2.7747,-2.6717,-2.514,-2.3852,-2.2937,-2.2937,-2.312,-2.3207,-2.33,-2.4988,-2.6217,-2.4099,-2.4818,-2.6354,-2.7147,-2.8725,-3.064,-3.3625,-3.445,-3.5484,-3.7972,-3.9004,-3.9648,-4.0059,-4.0625,-4.0976,-4.0976,-4.1094,-4.1872,-4.3659,-4.4398,-4.6398,-4.9985,-5.0592,-5.1673,-5.42,-5.5062,-5.4962,-5.3329,-5.5088,-5.6516,-5.7059,-5.8995,-6.1108,-6.3486,-6.4756,-6.6195,-6.7986,-6.8675,-6.9004,1.4769,1.478,1.488,1.4681,1.5968,1.7327,1.7713,1.8277,1.8657,1.7955,1.6722,1.5155,1.3237,1.2036,0.0,0.0,0.0,0.0,0.0,0.0,0.0,0.0,0.0,0.0,0.0,0.0,0.0,0.0,0.0,0.0,0.0,0.0,0.0,0.0,-1.2321,-1.4009,-1.4697,-1.7179,-1.8584,-1.8758,-1.8865,-1.9011,-1.9199,-2.0164,-2.0662,-2.1033,-2.3582,-2.4671,-2.4773,-2.7079,-2.8426,-2.9013,-2.9013,-2.8913,-2.8799,-2.8799,-2.891,-2.892,-2.892,-2.892,-2.8701,-2.7141,-2.6003,-2.5,-2.3662,-2.2738,-2.2271,-2.2392,-2.2766,-2.3332,-2.4386,-2.5664,-2.6491,-2.5328,-2.6668,-2.868,-2.9887,-3.1136,-3.2893,-3.5351,-3.623,-3.6953,-3.8603,-3.9551,-4.0234,-4.0488,-4.0898,-4.1522,-4.2591,-4.2611,-4.3721,-4.6462,-4.7443,-4.9269,-5.2577,-5.3252,-5.4373,-5.6622,-5.7739,-5.8217,-5.7826,-5.8316,-5.9102,-6.0121,-6.1789,-6.3549,-6.5718,-6.6744,-6.7787,-6.8794,-6.9453,-6.9752,1.4932,1.4279,1.3368,1.3976,1.5223,1.5993,1.4859,1.7702,1.9778,1.7013,1.6016,1.4877,1.1809,1.1135,1.0492,0.0,0.0,0.0,0.0,0.0,0.0,0.0,0.0,0.0,0.0,0.0,0.0,0.0,0.0,0.0,0.0,0.0,0.0,-1.0797,-1.2559,-1.4169,-1.5837,-1.7553,-1.8397,0.0,-1.8718,-1.8878,-1.8931,-2.08,-2.2206,-2.3315,-2.6182,-2.7607,-2.7821,-2.8691,-2.8314,-2.7068,-2.7068,-2.6493,-2.5525,-2.5559,-2.5774,-2.5935,-2.5968,-2.5984,-2.579,-2.4405,-2.3828,-2.3488,-2.2326,-2.2004,-2.2084,-2.2499,-2.2944,-2.3694,-2.6186,-2.6922,-2.7168,-2.7534,-2.9122,-3.1169,-3.3428,-3.3997,-3.5,-3.7584,-3.8398,-3.8828,-3.9258,-3.998,-4.0527,-4.072,-4.1361,-4.2511,-4.4879,-4.5227,-4.6332,-4.9418,-5.1372,-5.2851,-5.3726,-5.5435,-5.721,-5.9202,-6.0048,-6.1156,-6.2862,-6.1942,-6.2427,-6.464,-6.5318,-6.6733,-6.9004,-6.9662,-6.9991,-6.9991,-7.062,-7.0919,1.5451,1.4747,1.423,1.5102,1.6077,1.6562,1.5372,1.5952,1.6175,1.4407,1.4235,1.3892,1.1792,1.1552,0.0,0.0,0.0,0.0,0.0,0.0,0.0,0.0,0.0,0.0,0.0,0.0,0.0,0.0,0.0,0.0,0.0,0.0,0.0,-1.0498,-1.1992,-1.3581,-1.52,-1.6755,-1.7675,0.0,-1.821,-1.8477,-1.8931,-2.1032,-2.3447,-2.6071,-2.5388,-2.576,-2.6875,-2.5569,-2.5025,-2.5053,-2.5053,-2.5158,-2.5277,-2.5459,-2.5608,-2.5708,-2.5885,-2.5984,-2.5757,-2.4131,-2.3798,-2.3642,-2.2394,-2.2151,-2.2646,-2.4401,-2.511,-2.5859,-2.8027,-3.0001,-3.1357,-3.2175,-3.2685,-3.3287,-3.4126,-3.6043,-3.7846,-3.8681,-3.9297,-3.9746,-4.0176,-4.0391,-4.1065,-4.3022,-4.4763,-4.6195,-4.7127,-4.7193,-4.8471,-5.1428,-5.2143,-5.3985,-5.8053,-5.8317,-5.944,-6.2259,-6.3516,-6.451,-6.5422,-6.5193,-6.54,-6.5939,-6.7471,-6.8445,-6.9004,-6.9662,-6.9991,-6.9991,-7.062,-7.1198,1.5587,1.4932,1.441,1.5476,1.6234,1.6315,1.5095,1.4504,1.3691,1.2173,1.2243,1.2073,1.0365,1.0342,0.0,0.0,0.0,0.0,0.0,0.0,0.0,0.0,0.0,0.0,0.0,0.0,0.0,0.0,0.0,0.0,0.0,-0.9152,-0.9726,-1.1216,-1.2638,-1.3869,-1.4745,-1.6343,-1.7301,-1.7622,-1.7916,-1.8673,-2.0033,-2.1435,-2.3431,-2.5812,-2.4976,-2.5104,-2.5613,-2.4507,-2.3747,-2.3083,-2.3083,-2.2844,-2.2613,-2.2946,-2.3037,-2.3232,-2.3548,-2.3668,-2.3574,-2.2889,-2.2808,-2.2893,-2.3346,-2.3601,-2.4185,-2.6213,-2.7091,-2.7845,-2.997,-3.1714,-3.3284,-3.4762,-3.521,-3.5698,-3.7455,-3.9026,-4.0432,-4.2063,-4.2732,-4.3004,-4.3234,-4.3464,-4.3973,-4.5233,-4.6662,-4.8033,-4.9421,-4.9845,-5.1319,-5.4351,-5.4377,-5.5801,-5.9804,-5.9642,-6.0935,-6.4595,-6.5755,-6.6854,-6.8047,-6.8635,-6.8664,-6.8077,-6.904,-6.9782,-7.038,-7.0739,-7.1009,-7.1378,-7.1708,-7.1989,1.5566,1.4887,1.4101,1.5046,1.5178,1.49,1.3959,1.2689,1.1466,1.0244,1.0209,1.0103,0.8716,0.0,0.0,0.0,0.0,0.0,0.0,0.0,0.0,0.0,0.0,0.0,0.0,0.0,0.0,0.0,0.0,0.0,-1.0288,-1.0288,-1.095,-1.2401,-1.3599,-1.4418,-1.4791,-1.6253,-1.7048,-1.7257,-1.7756,-1.8932,-2.0626,-2.1329,-2.2528,-2.4315,-2.445,-2.4253,-2.386,-2.3586,-2.2761,-2.1496,-2.1496,-2.1147,-2.0572,-2.092,-2.0984,-2.1012,-2.1352,-2.1348,-2.1149,-2.1403,-2.1767,-2.2406,-2.4378,-2.5242,-2.6021,-2.8147,-2.9009,-2.9764,-3.2186,-3.3502,-3.484,-3.7075,-3.7808,-3.8624,-4.0954,-4.1962,-4.3034,-4.5363,-4.6231,-4.6469,-4.6703,-4.7186,-4.7626,-4.7716,-4.8543,-4.9886,-5.2041,-5.2668,-5.3935,-5.6623,-5.647,-5.7568,-6.0811,-6.058,-6.226,-6.6619,-6.7434,-6.8532,-7.029,-7.1338,-7.1457,-7.05,-7.05,-7.1009,-7.2056,-7.2056,-7.2397,-7.289,-7.289,-7.2973,1.5305,1.46,1.3464,1.3136,1.1847,1.0702,1.0618,0.9581,0.8592,0.0,0.8625,0.8822,0.0,0.0,0.0,0.0,0.0,0.0,0.0,0.0,0.0,0.0,0.0,0.0,0.0,0.0,0.0,0.0,0.0,0.0,-1.156,-1.1658,-1.2252,-1.363,-1.3835,-1.4643,-1.6032,-1.6268,-1.6647,-1.7257,-1.7756,-1.8198,-1.8483,-1.8836,-2.0656,-2.3459,-2.2461,-2.1699,-2.1152,-2.0033,-2.0217,-2.1152,-2.1152,-2.2019,-2.3311,-2.4069,-2.3433,-2.2392,-2.2995,-2.2341,-2.1122,-2.1162,-2.2328,-2.4,-2.4486,-2.5955,-2.7897,-3.0311,-3.0954,-3.1769,-3.47,-3.6784,-3.8574,-4.0396,-4.2171,-4.3024,-4.1707,-4.3708,-4.5922,-4.62,-4.6603,-4.7073,-4.767,-4.9129,-5.0504,-5.0953,-5.2598,-5.4042,-5.4758,-5.4882,-5.5326,-5.6244,-5.6244,-5.7821,-6.2014,-6.2261,-6.4364,-6.9209,-6.9645,-7.0181,-7.1577,-7.1787,-7.2086,-7.2505,-7.2535,-7.2624,-7.2774,-7.2774,-7.2847,-7.289,-7.289,-7.3255,1.3949,1.3742,1.3402,1.2445,1.1685,1.1172,1.0982,0.9938,0.9104,0.9418,0.8758,0.0,0.0,0.0,0.0,0.0,0.0,0.0,0.0,0.0,0.0,0.0,0.0,0.0,0.0,0.0,0.0,0.0,0.0,-1.1648,-1.2909,-1.3006,-1.3596,-1.4949,-1.4949,-1.53,-1.6019,-1.6192,-1.6567,-1.7154,-1.7582,-1.7876,-1.8063,-1.8357,-1.932,-2.0633,-2.0115,-2.0125,-2.0505,-2.001,-2.0833,-2.2308,-2.2308,-2.2957,-2.3904,-2.4631,-2.3858,-2.2692,-2.4421,-2.3931,-2.2745,-2.3768,-2.4936,-2.604,-2.74,-2.8802,-3.0153,-3.2357,-3.3199,-3.4279,-3.6951,-3.8595,-4.0096,-4.2522,-4.4934,-4.6519,-4.5961,-4.6977,-4.8403,-4.9722,-5.0482,-5.0914,-5.1154,-5.2427,-5.3517,-5.3763,-5.4688,-5.5566,-5.5817,-5.5842,-5.5942,-5.6194,-5.7159,-5.9157,-6.2811,-6.4122,-6.6326,-7.0281,-7.0859,-7.1308,-7.1876,-7.2595,-7.3163,-7.3462,-7.3103,-7.3103,-7.3462,-7.3402,-7.3687,-7.4016,-7.4016,-7.4151,1.2182,1.2096,1.2065,1.0988,1.0771,1.0854,1.0572,0.0,0.9332,0.0,0.0,0.0,0.0,0.0,0.0,0.0,0.0,0.0,0.0,0.0,0.0,0.0,0.0,0.0,0.0,0.0,0.0,0.0,0.0,-1.3006,-1.4268,-1.4364,-1.4854,-1.5737,-1.5832,-1.5832,-1.5832,-1.6126,-1.6486,-1.6927,-1.7221,-1.7684,-1.8126,-1.8358,-1.8669,-1.9006,-1.8988,-1.9671,-2.0788,-2.0971,-2.2037,-2.3702,-2.3803,-2.4275,-2.5034,-2.5794,-2.5028,-2.3968,-2.5977,-2.5497,-2.4471,-2.6059,-2.7236,-2.8306,-2.9976,-3.1303,-3.2524,-3.41,-3.5416,-3.6716,-3.88,-4.0501,-4.2452,-4.4778,-4.7506,-4.96,-5.0132,-5.0253,-5.084,-5.2729,-5.3432,-5.3833,-5.426,-5.5039,-5.5691,-5.5993,-5.6369,-5.6595,-5.6445,-5.642,-5.6491,-5.6895,-5.8108,-6.0334,-6.4023,-6.5517,-6.764,-7.0908,-7.1607,-7.2026,-7.2385,-7.3373,-7.3971,-7.4151,-7.3672,-7.3642,-7.4151,-7.4196,-7.4466,-7.4869,-7.4869,-7.4869,0.9932,0.9063,0.8492,0.7712,0.725,0.7049,0.7278,0.0,0.757,0.7821,0.0,0.0,0.0,0.0,0.0,0.0,0.0,0.0,0.0,0.0,0.0,0.0,0.0,0.0,0.0,0.0,0.0,0.0,0.0,-1.4364,-1.5629,-1.5737,-1.5737,-1.5832,-1.5832,-1.5832,-1.5832,-1.6126,-1.6286,-1.6326,-1.6607,-1.7341,-1.8434,-1.8449,-1.914,-2.0281,-2.0377,-2.0878,-2.1656,-2.2346,-2.3491,-2.4927,-2.5306,-2.6579,-2.8164,-2.9017,-2.8295,-2.7,-2.7902,-2.7194,-2.5928,-2.6414,-2.8282,-3.0375,-3.0791,-3.2655,-3.4712,-3.5684,-3.7226,-3.8982,-4.0213,-4.3623,-4.6879,-4.8059,-5.0172,-5.2065,-5.2616,-5.2742,-5.2892,-5.3557,-5.3683,-5.421,-5.5817,-5.6118,-5.6545,-5.76,-5.7801,-5.76,-5.7072,-5.6997,-5.748,-5.856,-5.8763,-6.0889,-6.5698,-6.6211,-6.7844,-7.1565,-7.1876,-7.2445,-7.3732,-7.3851,-7.418,-7.4809,-7.4779,-7.4779,-7.4839,-7.4809,-7.4839,-7.4869,-7.4869,-7.4869,0.8807,0.8341,0.7981,0.7224,0.7017,0.6889,0.6666,0.6817,0.6662,0.5517,0.0,0.0,0.0,0.0,0.0,0.0,0.0,0.0,0.0,0.0,0.0,0.0,0.0,0.0,0.0,0.0,0.0,0.0,0.0,0.0,-1.5737,-1.5832,-1.5832,-1.5832,-1.5832,-1.5832,-1.5832,-1.5939,-1.6457,-1.7409,-1.7523,-1.8349,-1.9715,-1.9715,-2.0473,-2.1692,-2.1977,-2.2247,-2.2536,-2.3077,-2.4524,-2.6275,-2.6427,-2.7237,-2.8398,-2.9258,-2.8521,-2.7362,-2.9367,-2.9085,-2.8288,-2.9952,-3.1433,-3.2397,-3.31,-3.4448,-3.5605,-3.5937,-3.6935,-3.834,-4.0188,-4.1869,-4.3937,-4.7648,-5.0651,-5.2678,-5.2879,-5.2929,-5.308,-5.3607,-5.4009,-5.4561,-5.5516,-5.6269,-5.6997,-5.7775,-5.7901,-5.7826,-5.7625,-5.8232,-5.9007,-5.9483,-6.1631,-6.4053,-6.6729,-6.7962,-6.9554,-7.1787,-7.2295,-7.2954,-7.3851,-7.43,-7.4629,-7.4869,-7.4869,-7.4869,-7.4869,-7.4869,-7.4869,-7.4869,-7.4869,-7.4869,0.7827,0.7567,0.7353,0.6627,0.6557,0.6603,0.6345,0.6476,0.6338,0.5226,0.0,0.0,0.0,0.0,0.0,0.0,0.0,0.0,0.0,0.0,0.0,0.0,0.0,0.0,0.0,0.0,0.0,0.0,0.0,0.0,-1.5832,-1.5832,-1.5832,-1.5832,-1.5832,-1.6008,-1.6386,-1.648,-1.7131,-1.8565,-1.8565,-1.9335,-2.0678,-2.0301,-2.107,-2.2612,-2.2227,-2.2643,-2.3721,-2.3863,-2.4804,-2.6275,-2.6408,-2.7008,-2.7714,-2.9128,-2.8878,-2.818,-3.0219,-3.0424,-3.0279,-3.2131,-3.3184,-3.3809,-3.4668,-3.5929,-3.7049,-3.6544,-3.7886,-3.9646,-4.064,-4.1678,-4.3477,-4.7888,-5.0489,-5.205,-5.2792,-5.2929,-5.313,-5.3858,-5.431,-5.4863,-5.5792,-5.6545,-5.7223,-5.7801,-5.7901,-5.8126,-5.8468,-5.9357,-6.0527,-6.1572,-6.4053,-6.6359,-6.8327,-6.9584,-7.0949,-7.2475,-7.2984,-7.3552,-7.421,-7.4629,-7.4869,-7.4869,-7.4869,-7.4869,-7.4869,-7.4869,-7.4869,-7.4869,-7.4869,-7.5185,0.0,0.0,0.0,0.574,0.5658,0.5818,0.611,0.0,0.639,0.0,0.0,0.0,0.0,0.0,0.0,0.0,0.0,0.0,0.0,0.0,0.0,0.0,0.0,0.0,0.0,0.0,0.0,0.0,0.0,-1.5818,-1.5805,-1.5805,-1.5818,-1.5927,-1.5832,-1.648,-1.7777,-1.7777,-1.8319,-1.9588,-1.9588,-2.0133,-2.1284,-2.0133,-2.0764,-2.2882,-2.0985,-2.1955,-2.4927,-2.4435,-2.4392,-2.4805,-2.5394,-2.581,-2.6373,-2.8795,-2.959,-2.9726,-3.0605,-3.1191,-3.1719,-3.2559,-3.3418,-3.4277,-3.5156,-3.7307,-3.901,-3.7728,-4.0201,-4.2967,-4.1665,-4.3327,-4.6269,-4.9275,-4.9961,-5.0551,-5.2491,-5.2929,-5.3281,-5.4361,-5.4587,-5.5114,-5.6721,-5.7022,-5.7198,-5.7775,-5.7876,-5.837,-5.9594,-6.0419,-6.2085,-6.5114,-6.6026,-6.7611,-7.0699,-7.0949,-7.1787,-7.3762,-7.3881,-7.418,-7.4839,-7.4869,-7.4869,-7.4869,-7.4869,-7.4869,-7.4869,-7.4869,-7.4869,-7.4869,-7.4869,-7.582,0.6013,0.0,0.0,0.0,0.0,0.0,0.3713,0.456,0.4916,0.0,0.0,0.0,0.0,0.0,0.0,0.0,0.0,0.0,0.0,0.0,0.0,0.0,0.0,0.0,0.0,0.0,0.0,0.0,-1.5351,-1.5773,-1.6353,-1.6555,-1.7231,-1.8488,-1.7669,-1.7762,-1.8948,-1.9039,-1.9588,-2.0836,-2.0836,-2.1016,-2.1302,-2.0944,-2.0692,-2.0512,-2.0231,-2.0762,-2.1848,-2.2295,-2.2791,-2.3419,-2.4863,-2.5865,-2.6773,-2.8799,-2.998,-3.0605,-3.1152,-3.2031,-3.2988,-3.3535,-3.4316,-3.5195,-3.6055,-3.7095,-3.7888,-3.7759,-3.8962,-4.0347,-4.0264,-4.2228,-4.4603,-4.6879,-4.8681,-5.0551,-5.2491,-5.3231,-5.3708,-5.4436,-5.4888,-5.544,-5.6294,-5.6445,-5.662,-5.7198,-5.8379,-5.9568,-6.0354,-6.2892,-6.534,-6.719,-6.8708,-7.0337,-7.2235,-7.2355,-7.2804,-7.3821,-7.3881,-7.418,-7.4839,-7.4869,-7.4869,-7.4869,-7.4869,-7.4869,-7.4869,-7.4869,-7.4869,-7.4869,-7.4869,-7.6455,0.5564,0.5379,0.5173,0.4334,0.0,0.0,0.4151,0.2372,0.0276,0.0,0.0,0.0,0.0,0.0,0.0,0.0,0.0,0.0,0.0,0.0,0.0,0.0,0.0,0.0,0.0,0.0,0.0,-1.5455,-1.6181,-1.6862,-1.7497,-1.7807,-1.8451,-1.948,-1.8856,-1.9039,-2.0206,-2.0206,-2.0854,-2.2031,-2.1569,-2.1302,-2.1302,-2.0223,-1.9679,-1.9422,-1.8754,-1.9,-1.9779,-2.0718,-2.1699,-2.2765,-2.3943,-2.536,-2.6936,-2.8837,-3.0137,-3.0976,-3.1582,-3.25,-3.3516,-3.4141,-3.4805,-3.5547,-3.6406,-3.749,-3.8367,-3.8314,-3.8828,-3.959,-4.0039,-4.1785,-4.4039,-4.6144,-4.8441,-5.0624,-5.2765,-5.3683,-5.416,-5.4486,-5.5013,-5.5566,-5.6118,-5.6219,-5.6662,-5.8046,-5.9085,-6.0607,-6.3136,-6.5544,-6.7765,-6.9483,-7.0991,-7.2176,-7.3223,-7.3313,-7.3612,-7.427,-7.43,-7.448,-7.4869,-7.4869,-7.4869,-7.4869,-7.4869,-7.4869,-7.4869,-7.4869,-7.4869,-7.4869,-7.4869,-7.6258,0.5179,0.5252,0.5017,0.3388,0.3915,0.0,0.5451,-0.0137,-0.54,-0.5375,0.0,0.0,0.0,0.0,0.0,0.0,0.0,0.0,0.0,0.0,0.0,0.0,0.0,0.0,-1.4082,-1.5304,-1.6044,-1.6044,-1.7429,-1.8473,-1.8957,-1.9239,-1.9602,-1.9743,-1.9636,-2.0193,-2.1407,-2.1318,-2.1799,-2.2862,-2.1658,-2.1033,-2.0836,-1.8688,-1.8226,-1.8964,-1.7266,-1.7316,-1.8676,-1.9998,-2.1227,-2.2552,-2.3095,-2.4763,-2.7009,-2.8895,-3.0234,-3.1133,-3.1914,-3.2773,-3.3691,-3.4453,-3.5078,-3.5684,-3.6504,-3.8283,-3.9806,-3.8951,-3.9355,-4.0059,-4.0774,-4.218,-4.4167,-4.6793,-4.865,-5.0696,-5.3138,-5.416,-5.4587,-5.4637,-5.5089,-5.5641,-5.6384,-5.6536,-5.7414,-5.9837,-6.0421,-6.231,-6.6806,-6.8065,-6.9571,-7.1894,-7.2654,-7.3283,-7.3941,-7.4001,-7.424,-7.4839,-7.4869,-7.4869,-7.4869,-7.4869,-7.4869,-7.4869,-7.4869,-7.4869,-7.4869,-7.4869,-7.4869,-7.4869,-7.4929,-7.591,0.3618,0.4306,0.5346,0.4962,0.2957,0.0,0.1227,-0.2199,-0.5424,0.0,0.0,0.0,0.0,0.0,0.0,0.0,0.0,0.0,0.0,0.0,0.0,0.0,0.0,0.0,0.0,-1.5118,-1.5786,-1.5786,-1.7663,-1.9071,-1.9759,-1.9583,-2.0039,-2.1419,-2.0449,-2.068,-2.2274,-2.1286,-2.1083,-2.1658,-2.0387,-1.9314,-1.8411,-1.787,-1.7311,-1.6574,-1.7552,-1.8409,-1.9375,-2.0969,-2.1426,-2.1434,-2.4717,-2.6417,-2.7409,-2.9336,-3.0859,-3.1934,-3.2109,-3.3164,-3.4473,-3.4648,-3.5488,-3.6523,-3.7031,-3.798,-3.9136,-3.9955,-4.0273,-4.0774,-4.2809,-4.3669,-4.487,-4.8627,-4.9677,-5.0696,-5.3138,-5.416,-5.4687,-5.5139,-5.5666,-5.6479,-5.8082,-5.89,-5.9784,-6.1794,-6.4187,-6.6343,-6.7795,-6.9839,-7.1718,-7.3373,-7.3612,-7.3971,-7.4629,-7.4689,-7.4749,-7.4869,-7.4869,-7.4869,-7.4869,-7.4869,-7.4869,-7.4869,-7.4869,-7.4869,-7.4869,-7.4869,-7.4869,-7.4869,-7.5472,-7.7274,0.378,0.3364,0.2703,0.2672,0.1321,0.0,0.0,-0.21,-0.4346,-0.5408,0.0,0.0,0.0,0.0,0.0,0.0,0.0,0.0,0.0,0.0,0.0,0.0,0.0,0.0,0.0,-1.4568,-1.5759,-1.7037,-1.7797,-1.8967,-2.0484,-2.009,-2.0181,-2.0987,-2.0987,-2.11,-2.1391,-2.0893,-2.1076,-2.1926,-2.0318,-1.9497,-1.9497,-1.8856,-1.8412,-1.8018,-1.919,-2.0194,-2.1113,-2.3201,-2.3939,-2.3921,-2.5767,-2.7418,-2.888,-3.0141,-3.123,-3.2226,-3.2656,-3.3633,-3.4746,-3.4961,-3.5781,-3.6797,-3.7422,-3.8516,-3.9687,-4.0332,-4.141,-4.2637,-4.3731,-4.5552,-4.7467,-4.9534,-5.091,-5.2263,-5.3869,-5.5382,-5.6456,-5.7023,-5.8418,-5.9325,-5.9325,-6.0408,-6.226,-6.4961,-6.6757,-6.849,-7.0779,-7.209,-7.3283,-7.427,-7.439,-7.451,-7.4839,-7.4869,-7.4869,-7.4869,-7.4869,-7.4869,-7.4869,-7.4869,-7.5048,-7.5377,-7.5377,-7.5557,-7.5856,-7.5587,-7.5347,-7.5442,-7.6107,-7.7651,0.3582,0.2196,-0.0,-0.0,-0.0,-0.0,0.0,0.0,0.0,0.0,0.0,0.0,0.0,0.0,0.0,0.0,0.0,0.0,0.0,0.0,0.0,0.0,0.0,0.0,0.0,-1.4036,-1.5777,-1.8018,-1.7706,-1.829,-2.0335,-1.9898,-1.9728,-1.9978,-2.0844,-2.1104,-2.055,-2.0522,-2.1121,-2.2274,-2.0355,-2.0025,-2.0926,-2.0019,-1.9744,-2.0168,-2.1256,-2.2231,-2.3237,-2.572,-2.7068,-2.753,-2.7216,-2.8369,-3.0254,-3.0801,-3.1504,-3.2285,-3.3125,-3.3984,-3.4766,-3.5234,-3.6035,-3.6973,-3.8008,-3.9297,-4.043,-4.1025,-4.2637,-4.4247,-4.4977,-4.7613,-5.0127,-5.053,-5.2189,-5.4024,-5.5101,-5.6799,-5.8382,-5.9488,-6.1494,-6.2643,-6.1129,-6.2509,-6.4764,-6.8229,-6.9079,-7.0467,-7.3537,-7.4001,-7.43,-7.4809,-7.4869,-7.4869,-7.4869,-7.4869,-7.4869,-7.4869,-7.4869,-7.4869,-7.4869,-7.4869,-7.5198,-7.5886,-7.5916,-7.6215,-7.6814,-7.6485,-7.6265,-7.6151,-7.677,-7.8097,0.0506,0.0294,-0.0,-0.0,-0.0,-0.0,-0.0,0.0,-0.3573,-0.5431,0.0,0.0,0.0,0.0,0.0,0.0,0.0,0.0,0.0,0.0,0.0,0.0,0.0,0.0,0.0,0.0,-1.5467,-1.6974,-1.7041,-1.7163,-1.7708,-1.7677,-1.8117,-1.9083,-1.9261,-2.0093,-2.169,-2.0605,-2.0544,-2.1407,-2.0099,-1.9588,-1.9679,-1.9919,-2.0085,-2.0262,-2.262,-2.4061,-2.5081,-2.715,-2.8765,-2.9812,-2.9754,-2.9945,-3.0293,-3.1133,-3.1758,-3.2285,-3.3125,-3.3984,-3.4766,-3.5234,-3.623,-3.7539,-3.918,-3.9805,-4.0551,-4.307,-4.3903,-4.4977,-4.8361,-4.9677,-5.053,-5.2759,-5.3493,-5.4379,-5.719,-5.7867,-5.8902,-6.1631,-6.3666,-6.4941,-6.4679,-6.6347,-6.8229,-7.0308,-7.2119,-7.3342,-7.3851,-7.442,-7.4809,-7.4869,-7.4869,-7.4869,-7.4869,-7.4869,-7.4869,-7.4869,-7.4869,-7.4869,-7.4869,-7.4869,-7.5198,-7.5886,-7.5916,-7.6215,-7.6814,-7.7263,-7.7344,-7.6694,-7.742,-7.949,-0.0,-0.0,-0.0,-0.0,-0.0,0.0,-0.313,0.0,-0.3705,0.0,0.0,0.0,0.0,0.0,0.0,0.0,-0.8146,0.0,0.0,0.0,0.0,0.0,0.0,0.0,0.0,0.0,0.0,0.0,0.0,-1.5553,-1.7532,-1.7648,-1.7995,-1.8631,-1.9989,-2.075,-2.0903,-2.0619,-2.1108,-2.2422,-2.1373,-2.1405,-2.2392,-2.2795,-2.3107,-2.34,-2.4989,-2.6351,-2.7485,-2.9487,-3.0921,-3.1921,-3.2187,-3.1732,-3.1074,-3.1934,-3.2519,-3.3027,-3.3867,-3.457,-3.5254,-3.6191,-3.7187,-3.855,-4.0914,-4.1779,-4.2534,-4.5082,-4.6588,-4.7904,-4.9534,-5.1075,-5.2379,-5.3493,-5.4974,-5.6652,-5.7815,-6.0049,-6.2152,-6.3819,-6.6259,-6.813,-6.8484,-6.9221,-7.043,-7.2312,-7.3343,-7.4031,-7.442,-7.4719,-7.4869,-7.4869,-7.4869,-7.4869,-7.4869,-7.4869,-7.5048,-7.5437,-7.5467,-7.5288,-7.4899,-7.5258,-7.5766,-7.6425,-7.6425,-7.6933,-7.7981,-7.7831,-7.8358,-7.9482,-7.9819,-8.1691,-0.0,0.0,0.0,0.0,0.0,0.0,0.0,0.0,0.0,0.0,0.0,0.0,0.0,0.0,-0.7492,-0.7583,0.0,-0.8897,0.0,0.0,0.0,0.0,0.0,0.0,0.0,0.0,0.0,0.0,0.0,0.0,-1.6738,-1.7291,-1.779,-1.8407,-2.04,-2.1286,-2.0967,-2.1262,-2.2145,-2.3516,-2.2975,-2.3277,-2.4434,-2.5,-2.543,-2.5801,-2.6777,-2.8042,-2.9579,-3.12,-3.2568,-3.3685,-3.3675,-3.3238,-3.2535,-3.2819,-3.3301,-3.3906,-3.4766,-3.543,-3.6074,-3.6992,-3.8201,-3.9694,-4.2126,-4.3382,-4.45,-4.7141,-4.8938,-5.0127,-5.0717,-5.2256,-5.3872,-5.4555,-5.6383,-5.8387,-5.9778,-6.2473,-6.4929,-6.6287,-6.8595,-7.05,-7.1308,-7.1607,-7.2206,-7.3672,-7.4061,-7.433,-7.4809,-7.4869,-7.4869,-7.4869,-7.4869,-7.4869,-7.4869,-7.5048,-7.5377,-7.5886,-7.6066,-7.5766,-7.4899,-7.5707,-7.6365,-7.6814,-7.6993,-7.7652,-7.8789,-7.882,-7.9866,-8.2151,-8.1566,-8.3127,0.0,0.0,0.0,-0.0,0.0,0.0,0.0,0.0,-0.662,0.0,0.0,0.0,-0.6302,-0.7088,-0.8005,-0.8675,-0.8937,0.0,0.0,0.0,0.0,0.0,0.0,0.0,0.0,0.0,0.0,0.0,0.0,0.0,-1.4556,-1.5691,-1.7009,-1.8321,-1.9604,-2.1107,-2.2999,-2.3038,-2.3555,-2.4375,-2.4302,-2.4302,-2.4453,-2.5312,-2.5723,-2.5801,-2.709,-2.8951,-3.1042,-3.1611,-3.3116,-3.5113,-3.4133,-3.4198,-3.4814,-3.3723,-3.3926,-3.4785,-3.5664,-3.6523,-3.7246,-3.7285,-3.8808,-4.0927,-4.2312,-4.4019,-4.6104,-4.9109,-4.9961,-5.041,-5.2327,-5.3306,-5.4227,-5.6621,-5.761,-5.9424,-6.4102,-6.5174,-6.6128,-6.9218,-7.044,-7.1308,-7.2624,-7.3373,-7.3821,-7.3881,-7.442,-7.4869,-7.4869,-7.4869,-7.4869,-7.4869,-7.4869,-7.4869,-7.4869,-7.5497,-7.5886,-7.5916,-7.6485,-7.6215,-7.4929,-7.6125,-7.6814,-7.6814,-7.7442,-7.81,-7.8789,-8.0479,-8.216,-8.3931,-8.22,-8.2867,0.0,0.0,-0.4622,-0.4279,0.0,0.0,0.0,0.0,0.0,0.0,0.0,0.0,-0.7312,-0.8084,-0.8769,-0.8831,-0.8363,-0.8006,0.0,0.0,0.0,0.0,0.0,0.0,0.0,0.0,0.0,0.0,0.0,0.0,0.0,-1.7196,-1.8576,-2.0254,-2.1794,-2.2909,-2.3574,-2.3848,-2.4277,-2.4844,-2.4844,-2.5,-2.5312,-2.6191,-2.6582,-2.666,-2.8938,-3.0597,-3.1719,-3.4078,-3.5296,-3.5714,-3.5615,-3.5682,-3.577,-3.4596,-3.4824,-3.5703,-3.6562,-3.7848,-3.9081,-3.9388,-4.0805,-4.2963,-4.5685,-4.6981,-4.819,-5.115,-5.1886,-5.205,-5.2767,-5.45,-5.6295,-5.7135,-6.021,-6.3348,-6.5015,-6.6996,-6.8842,-7.0281,-7.1487,-7.2505,-7.3402,-7.4121,-7.454,-7.454,-7.4719,-7.4869,-7.4869,-7.4869,-7.4869,-7.4869,-7.4869,-7.4869,-7.4869,-7.5886,-7.6335,-7.5946,-7.6904,-7.7083,-7.6215,-7.6604,-7.7023,-7.7472,-7.7682,-7.813,-7.8789,-8.0509,-8.2325,-8.3995,-8.345,-8.4543,-0.1806,-0.4461,0.0,-0.6506,-0.536,0.0,-0.6257,0.0,-0.7476,0.0,0.0,0.0,0.0,-0.9019,-0.9271,-0.9115,-0.8245,-0.7449,0.0,-0.7417,0.0,0.0,0.0,0.0,0.0,0.0,0.0,0.0,0.0,0.0,0.0,0.0,-1.9377,-2.0832,-2.2787,-2.3945,-2.4238,-2.4512,-2.4863,-2.5312,-2.5312,-2.5547,-2.5996,-2.6699,-2.7475,-2.8327,-3.0244,-3.1785,-3.2944,-3.5344,-3.614,-3.587,-3.6136,-3.6303,-3.6247,-3.523,-3.5684,-3.6897,-3.7828,-3.9004,-4.0234,-4.1049,-4.268,-4.4727,-4.7643,-4.8964,-4.9913,-5.2304,-5.2929,-5.3092,-5.3929,-5.5689,-5.7621,-5.9152,-6.2408,-6.555,-6.6487,-6.8358,-7.0171,-7.0769,-7.1996,-7.3043,-7.3462,-7.43,-7.4869,-7.4869,-7.4869,-7.4869,-7.4869,-7.4869,-7.4869,-7.4869,-7.4869,-7.4988,-7.5228,-7.6215,-7.6664,-7.6245,-7.7442,-7.7771,-7.6874,-7.7293,-7.7711,-7.816,-7.816,-7.8746,-8.0062,-8.1017,-8.2325,-8.3995,-8.3995,-8.5115]},{"header":{"parameterUnit":"m.s-1","parameterCategory":1,"la1":30.6,"la2":29.2853,"lo1":-89.7004,"lo2":-87.6739,"dy":0.0162,"dx":0.0183,"nx":112,"ny":82,"refTime":"2024-03-09T06:00:00:Z","depth":0,"parameterNumber":3,"parameterNumberName":"V-component_of_WINDS"},"data":[0.0,0.0,0.0,0.0,0.0,0.0,0.0,0.0,0.0,0.0,0.0,0.0,0.0,0.0,0.0,0.0,0.0,0.0,0.0,0.0,0.0,0.0,0.0,0.0,0.0,0.0,0.0,0.0,0.0,0.0,0.0,0.0,0.0,0.0,0.0,0.0,0.0,0.0,0.0,0.0,0.0,0.0,0.0,0.0,0.0,0.0,0.0,0.0,0.0,0.0,0.0,0.0,0.0,0.0,0.0,0.0,0.0,0.0,0.0,0.0,0.0,0.0,0.0,0.0,0.0,0.0,0.0,0.0,0.0,0.0,0.0,0.0,0.0,0.0,0.0,0.0,0.0,0.0,0.0,0.0,0.0,0.0,0.0,0.0,0.0,0.0,0.0,0.0,0.0,0.0,-3.4031,-3.4856,-3.8048,-4.0087,-4.0087,-4.1711,-4.1597,-3.8926,0.0,0.0,0.0,0.0,0.0,0.0,0.0,0.0,0.0,0.0,0.0,0.0,0.0,0.0,0.0,0.0,0.0,0.0,0.0,0.0,0.0,0.0,0.0,0.0,0.0,0.0,0.0,0.0,0.0,0.0,0.0,0.0,0.0,0.0,0.0,0.0,0.0,0.0,0.0,0.0,0.0,0.0,0.0,0.0,0.0,0.0,0.0,0.0,0.0,0.0,0.0,0.0,0.0,0.0,0.0,0.0,0.0,0.0,0.0,0.0,0.0,0.0,0.0,0.0,0.0,0.0,0.0,0.0,0.0,0.0,0.0,0.0,0.0,0.0,0.0,0.0,0.0,0.0,0.0,0.0,0.0,0.0,0.0,0.0,0.0,0.0,0.0,0.0,0.0,0.0,0.0,0.0,0.0,0.0,0.0,0.0,0.0,0.0,0.0,0.0,0.0,0.0,0.0,0.0,-3.6114,-3.6464,-3.8662,-4.0087,-4.0087,-3.9817,-3.9623,-3.9537,0.0,0.0,0.0,0.0,0.0,0.0,0.0,0.0,0.0,0.0,0.0,0.0,0.0,0.0,0.0,0.0,0.0,0.0,0.0,0.0,0.0,0.0,0.0,0.0,0.0,0.0,0.0,0.0,0.0,0.0,0.0,0.0,0.0,0.0,0.0,0.0,0.0,0.0,0.0,0.0,0.0,0.0,0.0,0.0,0.0,0.0,0.0,0.0,0.0,0.0,0.0,0.0,0.0,0.0,0.0,0.0,0.0,0.0,0.0,0.0,0.0,0.0,0.0,0.0,0.0,0.0,0.0,0.0,0.0,0.0,0.0,0.0,0.0,0.0,0.0,0.0,0.0,0.0,0.0,0.0,0.0,0.0,0.0,0.0,0.0,0.0,0.0,0.0,0.0,0.0,0.0,0.0,0.0,0.0,0.0,0.0,0.0,0.0,0.0,0.0,0.0,0.0,0.0,-3.6006,-3.6138,-3.7238,-3.9005,-4.0087,-4.0087,-3.9783,-3.9525,-3.9324,-4.1047,0.0,0.0,0.0,0.0,0.0,0.0,0.0,0.0,0.0,0.0,0.0,0.0,0.0,0.0,0.0,0.0,0.0,0.0,0.0,0.0,0.0,0.0,0.0,0.0,0.0,0.0,0.0,0.0,0.0,0.0,0.0,0.0,0.0,0.0,0.0,0.0,0.0,0.0,0.0,0.0,0.0,0.0,0.0,0.0,0.0,0.0,0.0,0.0,0.0,0.0,0.0,0.0,0.0,0.0,0.0,0.0,0.0,0.0,0.0,0.0,0.0,0.0,0.0,0.0,0.0,0.0,0.0,0.0,0.0,0.0,0.0,0.0,0.0,0.0,0.0,0.0,0.0,0.0,0.0,0.0,0.0,0.0,0.0,0.0,0.0,0.0,0.0,0.0,0.0,0.0,0.0,0.0,0.0,0.0,0.0,0.0,0.0,0.0,0.0,0.0,0.0,0.0,-3.6516,-3.5891,-3.8173,-3.9411,-4.0087,-4.0087,-3.958,-3.9374,-3.9452,-3.9486,0.0,0.0,0.0,0.0,0.0,0.0,0.0,0.0,0.0,0.0,0.0,0.0,0.0,0.0,0.0,0.0,0.0,0.0,0.0,0.0,0.0,0.0,0.0,0.0,0.0,0.0,0.0,0.0,0.0,0.0,0.0,0.0,0.0,0.0,0.0,0.0,0.0,0.0,0.0,0.0,0.0,0.0,0.0,0.0,0.0,0.0,0.0,0.0,0.0,0.0,0.0,0.0,0.0,0.0,0.0,0.0,0.0,0.0,0.0,0.0,0.0,0.0,0.0,0.0,0.0,0.0,0.0,0.0,0.0,0.0,0.0,0.0,0.0,0.0,0.0,0.0,0.0,0.0,0.0,0.0,0.0,0.0,0.0,0.0,0.0,0.0,0.0,0.0,0.0,0.0,0.0,0.0,0.0,0.0,0.0,0.0,0.0,0.0,0.0,0.0,0.0,0.0,-3.683,-3.6345,-3.9596,-4.002,-4.0087,-4.0087,-3.8193,-3.8103,-4.0619,-3.8866,0.0,0.0,0.0,0.0,0.0,0.0,0.0,0.0,0.0,0.0,0.0,0.0,0.0,0.0,0.0,0.0,0.0,0.0,0.0,0.0,0.0,0.0,0.0,0.0,0.0,0.0,0.0,0.0,0.0,0.0,0.0,0.0,0.0,0.0,0.0,0.0,0.0,0.0,0.0,0.0,0.0,0.0,0.0,0.0,0.0,0.0,0.0,0.0,0.0,0.0,0.0,0.0,0.0,0.0,0.0,0.0,0.0,0.0,0.0,0.0,0.0,0.0,0.0,0.0,0.0,0.0,0.0,0.0,0.0,0.0,0.0,0.0,0.0,0.0,0.0,0.0,0.0,0.0,0.0,0.0,0.0,0.0,0.0,0.0,0.0,0.0,0.0,0.0,0.0,0.0,0.0,0.0,0.0,0.0,0.0,0.0,0.0,0.0,0.0,0.0,0.0,0.0,-3.7525,-3.716,-3.9833,-4.0087,-4.0087,-4.0087,-3.8903,-3.8955,-4.077,0.0,0.0,0.0,0.0,0.0,0.0,0.0,0.0,0.0,0.0,0.0,0.0,0.0,0.0,0.0,0.0,0.0,0.0,0.0,0.0,0.0,0.0,0.0,0.0,0.0,0.0,0.0,0.0,0.0,0.0,0.0,0.0,0.0,0.0,0.0,0.0,0.0,0.0,0.0,0.0,0.0,0.0,0.0,0.0,0.0,0.0,0.0,0.0,0.0,0.0,0.0,0.0,0.0,0.0,0.0,0.0,0.0,0.0,0.0,0.0,0.0,0.0,0.0,0.0,0.0,0.0,0.0,0.0,0.0,0.0,0.0,0.0,0.0,0.0,0.0,0.0,0.0,0.0,0.0,0.0,0.0,0.0,0.0,0.0,0.0,0.0,0.0,0.0,0.0,0.0,0.0,0.0,0.0,0.0,0.0,0.0,0.0,0.0,0.0,0.0,0.0,0.0,-3.9075,-3.7663,-3.7347,-3.9817,-4.0087,-4.0154,-4.0319,-3.8785,-3.8883,-4.1323,0.0,0.0,0.0,0.0,0.0,0.0,0.0,0.0,0.0,0.0,0.0,0.0,0.0,0.0,0.0,0.0,0.0,0.0,0.0,0.0,0.0,0.0,0.0,0.0,0.0,0.0,0.0,0.0,0.0,0.0,0.0,0.0,0.0,0.0,0.0,0.0,0.0,0.0,0.0,0.0,0.0,0.0,0.0,0.0,0.0,0.0,0.0,0.0,0.0,0.0,0.0,0.0,0.0,0.0,0.0,0.0,0.0,0.0,0.0,0.0,0.0,0.0,0.0,0.0,0.0,0.0,0.0,0.0,0.0,0.0,0.0,0.0,0.0,0.0,0.0,0.0,0.0,0.0,0.0,0.0,0.0,0.0,0.0,0.0,0.0,0.0,0.0,0.0,0.0,0.0,0.0,0.0,0.0,0.0,0.0,0.0,0.0,0.0,0.0,0.0,0.0,0.0,-3.9005,-3.718,-3.6772,-3.9749,-4.0138,-4.0319,-4.0874,-3.7413,-3.7391,0.0,0.0,0.0,0.0,0.0,0.0,0.0,0.0,0.0,0.0,0.0,0.0,0.0,0.0,0.0,0.0,0.0,0.0,0.0,0.0,0.0,0.0,0.0,0.0,0.0,0.0,0.0,0.0,0.0,0.0,0.0,0.0,0.0,0.0,0.0,0.0,0.0,0.0,0.0,0.0,0.0,0.0,0.0,0.0,0.0,0.0,0.0,0.0,0.0,0.0,0.0,0.0,0.0,0.0,0.0,0.0,0.0,0.0,0.0,0.0,0.0,0.0,0.0,0.0,0.0,0.0,0.0,0.0,0.0,0.0,0.0,0.0,0.0,0.0,0.0,0.0,0.0,0.0,0.0,0.0,0.0,0.0,0.0,0.0,0.0,0.0,0.0,0.0,0.0,0.0,0.0,0.0,0.0,0.0,0.0,0.0,0.0,0.0,0.0,0.0,0.0,0.0,0.0,-3.9005,-3.718,-3.6772,-3.9749,-4.0466,-4.0733,-4.092,-3.9258,-3.9518,-4.251,0.0,0.0,0.0,0.0,0.0,0.0,0.0,0.0,0.0,0.0,0.0,0.0,0.0,0.0,0.0,0.0,0.0,0.0,0.0,0.0,0.0,0.0,0.0,0.0,0.0,0.0,0.0,0.0,0.0,0.0,0.0,0.0,0.0,0.0,0.0,0.0,0.0,0.0,0.0,0.0,0.0,0.0,0.0,0.0,0.0,0.0,0.0,0.0,0.0,0.0,0.0,0.0,0.0,0.0,0.0,0.0,0.0,0.0,0.0,0.0,0.0,0.0,0.0,0.0,0.0,0.0,0.0,0.0,0.0,0.0,0.0,0.0,0.0,0.0,0.0,0.0,0.0,0.0,0.0,0.0,0.0,0.0,0.0,0.0,0.0,0.0,0.0,0.0,0.0,0.0,0.0,0.0,0.0,0.0,0.0,0.0,0.0,0.0,0.0,0.0,0.0,0.0,-3.904,-3.718,-3.6772,-3.9749,-4.0577,-4.1013,-4.1206,-4.0359,-4.0592,-4.2414,0.0,0.0,0.0,0.0,0.0,0.0,0.0,0.0,0.0,0.0,0.0,0.0,0.0,0.0,0.0,0.0,0.0,0.0,0.0,0.0,0.0,0.0,0.0,0.0,0.0,0.0,0.0,0.0,0.0,0.0,0.0,0.0,0.0,0.0,0.0,0.0,0.0,0.0,0.0,0.0,0.0,0.0,0.0,0.0,0.0,0.0,0.0,0.0,0.0,0.0,0.0,0.0,0.0,0.0,0.0,0.0,0.0,0.0,0.0,0.0,0.0,0.0,0.0,0.0,0.0,0.0,0.0,0.0,0.0,0.0,0.0,0.0,0.0,0.0,0.0,0.0,0.0,0.0,0.0,0.0,0.0,0.0,0.0,0.0,0.0,0.0,0.0,0.0,0.0,0.0,0.0,0.0,0.0,0.0,0.0,0.0,0.0,0.0,0.0,0.0,0.0,0.0,-3.9217,-3.7215,-3.6772,-3.9849,-4.0672,-4.1206,-4.1853,-4.0984,-4.0962,-4.2326,0.0,0.0,0.0,0.0,0.0,0.0,0.0,0.0,0.0,0.0,0.0,0.0,0.0,0.0,0.0,0.0,0.0,0.0,0.0,0.0,0.0,0.0,0.0,0.0,0.0,0.0,0.0,0.0,0.0,0.0,0.0,0.0,0.0,0.0,0.0,0.0,0.0,0.0,0.0,0.0,0.0,0.0,0.0,0.0,0.0,0.0,0.0,0.0,0.0,0.0,0.0,0.0,0.0,0.0,0.0,0.0,0.0,0.0,0.0,0.0,-4.0881,0.0,0.0,0.0,0.0,0.0,0.0,0.0,0.0,0.0,0.0,0.0,0.0,0.0,0.0,0.0,0.0,0.0,0.0,0.0,0.0,0.0,0.0,0.0,0.0,0.0,0.0,0.0,0.0,0.0,0.0,0.0,0.0,0.0,0.0,0.0,0.0,0.0,0.0,0.0,0.0,0.0,-3.9999,-3.756,-3.6922,-4.0375,-4.1286,-4.1853,-4.2458,-4.2123,-4.2258,-4.3204,-4.2717,0.0,0.0,0.0,0.0,0.0,0.0,0.0,0.0,0.0,0.0,0.0,0.0,0.0,0.0,0.0,0.0,0.0,0.0,0.0,0.0,0.0,0.0,0.0,0.0,0.0,0.0,0.0,0.0,0.0,0.0,0.0,0.0,0.0,0.0,0.0,0.0,0.0,0.0,0.0,0.0,0.0,0.0,0.0,0.0,0.0,0.0,0.0,0.0,0.0,0.0,0.0,0.0,0.0,0.0,0.0,0.0,0.0,0.0,0.0,0.0,-4.2398,0.0,0.0,0.0,0.0,0.0,0.0,0.0,0.0,0.0,0.0,0.0,0.0,0.0,0.0,0.0,0.0,0.0,0.0,0.0,0.0,0.0,0.0,0.0,0.0,0.0,0.0,0.0,0.0,0.0,0.0,0.0,0.0,0.0,0.0,0.0,0.0,0.0,0.0,0.0,0.0,-4.0318,-3.8277,-3.7669,-4.0562,-4.1725,-4.2526,-4.3235,-4.3032,-4.3057,-4.3461,-4.3461,0.0,0.0,0.0,0.0,0.0,0.0,0.0,0.0,0.0,0.0,0.0,0.0,0.0,0.0,0.0,0.0,0.0,0.0,0.0,0.0,0.0,0.0,0.0,0.0,0.0,0.0,0.0,0.0,0.0,0.0,0.0,0.0,0.0,0.0,0.0,0.0,0.0,0.0,0.0,0.0,0.0,0.0,0.0,0.0,0.0,0.0,0.0,0.0,0.0,0.0,0.0,0.0,0.0,-4.2745,-4.3776,-4.5163,-4.5316,-4.5163,-4.4761,-4.4594,-4.352,-4.2068,0.0,0.0,0.0,0.0,0.0,0.0,0.0,0.0,0.0,0.0,0.0,0.0,0.0,0.0,0.0,0.0,0.0,0.0,0.0,0.0,0.0,0.0,0.0,0.0,0.0,-4.1409,-4.0639,0.0,0.0,0.0,0.0,0.0,0.0,0.0,0.0,0.0,0.0,0.0,0.0,-4.0588,-3.8971,-3.8649,-4.0961,-4.2246,-4.3201,-4.4005,-4.3834,-4.3718,-4.3718,-4.4195,-4.394,0.0,0.0,0.0,0.0,0.0,0.0,0.0,0.0,0.0,0.0,0.0,0.0,0.0,0.0,0.0,0.0,0.0,0.0,0.0,0.0,0.0,0.0,0.0,0.0,0.0,0.0,0.0,0.0,0.0,0.0,0.0,0.0,-3.2672,-3.2407,0.0,0.0,0.0,0.0,0.0,0.0,0.0,0.0,0.0,0.0,0.0,0.0,0.0,-4.2307,-4.3182,-4.3151,-4.3416,-4.396,-4.3384,-4.3209,-4.3431,-4.4162,-4.524,-4.6586,-4.7242,0.0,-4.3936,-4.4438,0.0,0.0,0.0,0.0,0.0,0.0,0.0,0.0,0.0,0.0,0.0,0.0,0.0,0.0,0.0,0.0,0.0,0.0,0.0,0.0,0.0,0.0,-4.0179,-3.9423,-3.9276,-3.9263,0.0,-4.042,-4.1355,-4.0887,-3.9771,0.0,0.0,0.0,0.0,0.0,0.0,0.0,-4.1101,-3.9533,-3.938,-4.2171,-4.3228,-4.3971,-4.4528,-4.4563,-4.4562,-4.4562,-4.3975,-4.3651,-4.3715,-4.3894,0.0,0.0,0.0,0.0,0.0,0.0,0.0,0.0,0.0,0.0,0.0,0.0,0.0,0.0,0.0,0.0,0.0,0.0,0.0,0.0,0.0,0.0,0.0,0.0,0.0,0.0,0.0,0.0,0.0,-3.3182,-3.4968,-3.4739,-3.6248,-3.7456,0.0,0.0,0.0,0.0,0.0,0.0,0.0,0.0,0.0,-4.1348,-4.2517,-4.3322,-4.3594,-4.3905,-4.4402,-4.5047,-4.5624,-4.6163,-4.6663,-4.7509,-4.8548,-4.974,-5.0087,-4.9625,-4.8585,-4.7276,-4.6408,-4.5835,0.0,0.0,0.0,0.0,-4.4531,-4.4392,-4.4598,-4.4614,0.0,0.0,0.0,0.0,0.0,0.0,0.0,0.0,0.0,0.0,0.0,0.0,0.0,-4.1794,-4.1976,-4.221,-4.152,-4.1294,-4.1004,0.0,-3.939,-3.9373,-4.135,0.0,0.0,0.0,0.0,-4.0203,-4.1286,-4.0668,-4.0809,-4.251,-4.3285,-4.3944,-4.4636,-4.4305,-4.4089,-4.4233,-4.3505,-4.2953,-4.2726,-4.3155,-4.3736,0.0,0.0,0.0,0.0,0.0,0.0,0.0,0.0,0.0,0.0,0.0,0.0,0.0,0.0,0.0,0.0,0.0,0.0,0.0,0.0,0.0,0.0,0.0,0.0,0.0,0.0,0.0,0.0,-3.4544,-3.659,-3.6222,-3.7622,-3.8767,0.0,0.0,0.0,0.0,0.0,0.0,-4.0815,-4.2249,-4.3341,-4.399,-4.4582,-4.494,-4.5047,-4.5624,-4.6355,-4.724,-4.8471,-4.9548,-5.0394,-5.1048,-5.1779,-5.2587,-5.2587,-5.2684,-5.255,-4.9912,-4.8067,-4.6863,-4.5883,-4.5464,-4.5366,-4.5117,-4.4883,-4.4738,-4.524,-4.5526,-4.5586,-4.5586,0.0,-4.4798,-4.3284,0.0,0.0,0.0,0.0,-4.3101,-4.3732,-4.4288,-4.4602,-4.418,-4.4484,-4.45,-4.3436,-4.223,-4.103,0.0,-3.9058,-3.905,-4.0964,0.0,0.0,0.0,0.0,-4.1034,-4.1579,-4.1687,-4.2014,-4.2811,-4.3433,-4.4048,-4.4672,-4.4158,-4.3834,-4.3927,-4.3126,-4.2342,-4.1639,-4.2335,-4.3135,-4.3885,0.0,0.0,0.0,0.0,0.0,0.0,0.0,0.0,0.0,0.0,0.0,0.0,0.0,0.0,0.0,0.0,0.0,0.0,0.0,0.0,0.0,0.0,0.0,0.0,0.0,0.0,0.0,0.0,0.0,-3.4984,-3.8295,0.0,0.0,0.0,0.0,-4.0151,-4.0912,-4.1865,-4.3069,-4.3992,-4.5176,-4.6646,-4.7472,-4.8644,-5.0279,-5.0356,-5.0779,-5.1587,-5.1664,-5.2164,-5.301,-5.3049,-5.3549,-5.4395,-5.4493,-5.457,-5.43,-5.101,-4.9681,-4.9621,-4.8084,-4.7391,-4.7152,-4.6259,-4.5841,-4.5582,-4.468,-4.4893,-4.597,-4.8355,-4.8716,-4.7551,-4.4416,-4.3453,0.0,0.0,-4.2904,-4.3458,-4.3495,-4.412,-4.4748,-4.4907,-4.455,-4.3976,-4.3339,-4.2706,-4.1798,0.0,-3.8328,-3.7546,-3.9558,0.0,-4.0036,-4.1284,-4.1866,-4.2216,-4.2252,-4.2252,-4.2582,-4.3353,-4.4195,-4.4672,-4.4709,-4.4672,-4.4419,-4.3963,-4.3126,-4.218,-4.1082,-4.1764,-4.253,-4.341,-4.4224,0.0,0.0,0.0,0.0,0.0,0.0,0.0,0.0,0.0,0.0,0.0,0.0,0.0,0.0,0.0,0.0,0.0,0.0,0.0,0.0,0.0,0.0,0.0,0.0,0.0,0.0,0.0,0.0,-3.9368,-4.0811,0.0,-4.3068,-4.266,-4.2567,-4.3063,-4.409,-4.4975,-4.573,-4.7226,-4.8686,-5.0067,-5.0394,-5.1125,-5.2318,-5.2318,-5.2433,-5.2741,-5.3318,-5.3741,-5.4049,-5.4587,-5.5011,-5.5395,-5.5455,-5.528,-5.4818,-5.3046,-5.1702,-5.0619,-4.905,-4.7952,-4.7249,-4.6899,-4.6663,-4.6624,-4.7317,-4.7242,-4.6784,-4.6708,-4.6535,-4.5985,-4.407,-4.3497,-4.3534,-4.3791,-4.4048,-4.4525,-4.5553,-4.603,-4.6285,-4.6499,-4.6087,-4.5411,-4.4798,-4.3784,-4.2833,-4.2243,-4.0387,-3.9378,-4.0841,-4.02,-4.0075,-4.1758,-4.2184,-4.2286,-4.2286,-4.2763,-4.3167,-4.3461,-4.3754,-4.3938,-4.3938,-4.3616,-4.3165,-4.2573,-4.1909,-4.144,-4.1134,-4.0914,-4.1869,-4.4113,-4.3944,-4.506,0.0,0.0,0.0,0.0,0.0,0.0,0.0,0.0,0.0,0.0,0.0,0.0,0.0,0.0,0.0,0.0,0.0,0.0,0.0,0.0,0.0,0.0,0.0,0.0,0.0,0.0,-4.0448,-4.2638,-4.3731,-4.4812,-4.6152,-4.5747,-4.5437,-4.5517,-4.6465,-4.742,-4.8324,-4.983,-5.1318,-5.2721,-5.3174,-5.3596,-5.4049,-5.4172,-5.4172,-5.4049,-5.4626,-5.4934,-5.4972,-5.5511,-5.5857,-5.5994,-5.6071,-5.5857,-5.5472,-5.4643,-5.3615,-5.2328,-5.0464,-4.9274,-4.8593,-4.8561,-4.8625,-4.8874,-5.0202,-5.0057,-4.8998,-4.7559,-4.6962,-4.6587,-4.5144,-4.4709,-4.4819,-4.5369,-4.5516,-4.5773,-4.6903,-4.7411,-4.7429,-4.6919,-4.6578,-4.623,-4.5389,-4.4443,-4.3681,-4.334,-4.2158,-4.1326,-4.1744,-4.1339,-4.1378,-4.2668,-4.277,-4.28,-4.3057,-4.3351,-4.3497,-4.3497,-4.3497,-4.3428,-4.325,-4.3541,-4.3116,-4.1595,-4.1831,-4.1773,-4.1222,-4.1204,-4.2252,-4.4519,-4.4553,-4.5669,-4.7902,0.0,0.0,0.0,0.0,0.0,0.0,0.0,0.0,0.0,0.0,0.0,0.0,0.0,0.0,0.0,0.0,0.0,0.0,0.0,0.0,0.0,0.0,0.0,-3.8705,-4.1432,-4.3631,-4.4376,-4.6987,-4.8114,-4.6675,-4.7703,-4.8122,-4.7352,-4.8049,-4.9194,-5.0832,-5.1714,-5.2927,-5.4566,-5.5721,-5.6142,-5.572,-5.6104,-5.6129,-5.5703,-5.5742,-5.578,-5.5895,-5.5934,-5.6032,-5.6225,-5.634,-5.6379,-5.6302,-5.5594,-5.5208,-5.4823,-5.2428,-5.1421,-5.1376,-5.1376,-5.1703,-5.2281,-5.2913,-5.2947,-5.2448,-5.1206,-5.0515,-4.9782,-4.7795,-4.7241,-4.7241,-4.7241,-4.7241,-4.7274,-4.7446,-4.8034,-4.8038,-4.6095,-4.6118,-4.6217,-4.4946,-4.4643,-4.435,-4.3572,-4.3374,-4.3067,-4.2043,-4.3023,-4.3924,-4.3924,-4.3689,0.0,-4.4562,-4.3975,-4.3497,-4.3571,-4.3571,-4.3323,-4.284,-4.4636,-4.4397,-4.1163,-4.2914,-4.3208,-4.1323,-4.2625,-4.3775,-4.4587,-4.6109,-4.7225,-4.797,0.0,0.0,0.0,0.0,0.0,0.0,0.0,0.0,0.0,0.0,0.0,0.0,0.0,0.0,0.0,0.0,0.0,0.0,0.0,0.0,0.0,-3.9553,-4.0998,-4.1201,-4.3316,-4.5717,-4.8064,-4.9532,-5.0605,-5.1213,-5.1637,-5.1756,-5.1536,-5.227,-5.3195,-5.4295,-5.5088,-5.5943,-5.6702,-5.7416,-5.7224,-5.6155,-5.6573,-5.6422,-5.5703,-5.6319,-5.6357,-5.5895,-5.6549,-5.6665,-5.634,-5.6379,-5.6109,-5.5596,-5.5271,-5.4774,-5.4066,-5.3409,-5.2988,-5.2818,-5.2818,-5.3241,-5.3699,-5.2691,-5.3025,-5.361,-5.1487,-5.108,-5.1295,-5.0144,-4.9774,-4.9774,-4.9774,-4.9774,-4.9808,-4.987,-4.964,-4.9235,-4.8662,-4.7568,-4.6515,-4.6129,-4.5282,-4.4483,-4.4094,-4.4509,-4.4585,-4.3623,-4.3698,-4.4041,-4.4418,-4.3941,0.0,-4.3791,-4.3644,-4.3938,-4.5112,-4.4816,-4.4686,-4.5219,-4.444,-4.3313,-4.1856,-4.196,-4.2023,-4.1982,-4.2388,-4.347,-4.5365,-4.7361,-4.9052,0.0,0.0,0.0,0.0,0.0,0.0,0.0,0.0,0.0,0.0,0.0,0.0,0.0,0.0,0.0,0.0,0.0,0.0,0.0,0.0,0.0,0.0,-4.2142,-4.4042,-4.5285,-4.6518,-4.8299,-5.0962,-5.1952,-5.2878,-5.4063,-5.4216,-5.4216,-5.4216,-5.4838,-5.5469,-5.6149,-5.7207,-5.7696,-5.7596,-5.854,-5.8183,-5.63,-5.7277,-5.7066,-5.578,-5.6665,-5.6742,-5.6148,-5.6648,-5.6732,0.0,-5.6491,-5.6227,-5.5734,-5.5264,-5.4912,0.0,0.0,0.0,0.0,0.0,-5.4703,-5.4908,-5.3704,-5.3846,-5.4237,-5.2568,-5.229,-5.2344,-5.1536,-5.1316,-5.1165,-5.0514,-5.032,-5.0235,-4.9631,-4.9388,-4.9118,-4.8232,-4.7351,-4.6494,-4.5932,-4.5158,-4.4563,-4.4434,-4.5217,0.0,-4.5152,-4.495,-4.495,-4.5187,-4.4525,-4.4011,-4.4011,-4.3718,-4.3904,-4.4928,-4.4654,-4.4576,-4.4929,-4.4718,0.0,0.0,0.0,-4.3268,-4.3673,-4.4012,0.0,0.0,0.0,-4.9569,-5.0832,0.0,0.0,0.0,-5.2597,-5.3221,0.0,0.0,0.0,0.0,0.0,0.0,0.0,0.0,0.0,0.0,0.0,0.0,0.0,0.0,0.0,0.0,-4.4577,-4.7095,-4.9911,-5.0416,-5.1253,-5.3109,-5.4142,-5.495,-5.5647,-5.5794,-5.5912,-5.5919,-5.6351,-5.6781,-5.7234,0.0,0.0,0.0,0.0,-5.9026,-5.6605,-5.811,-5.7992,-5.6225,-5.7088,-5.7165,-5.6533,-5.6648,-5.6654,-5.6582,-5.6559,-5.6494,-5.634,-5.5511,-5.5472,-5.5742,-5.4353,-5.4314,-5.5066,-5.5665,-5.5857,-5.5813,-5.5224,0.0,0.0,-5.3869,-5.3484,-5.3078,-5.2344,-5.2082,-5.1731,-5.0371,-4.9928,-4.9567,-4.8364,-4.8508,-4.8459,-4.6635,-4.6506,-4.6472,-4.5207,-4.4856,-4.472,-4.4776,-4.5699,-4.6365,-4.6365,-4.6354,-4.6219,-4.5955,-4.5333,-4.482,-4.4747,-4.4124,-4.3798,-4.4173,0.0,0.0,-4.3603,-4.518,-4.5087,-4.2596,-4.4318,-4.5539,-4.5669,-4.6481,-4.7564,-4.8984,-4.9086,-4.9492,-5.0202,-5.0328,-5.1446,-5.3463,-5.3463,-5.394,0.0,0.0,0.0,0.0,0.0,0.0,0.0,0.0,0.0,0.0,0.0,0.0,0.0,0.0,0.0,-4.4384,-4.73,-5.0026,-5.227,-5.37,-5.4422,-5.4216,-5.5464,-5.6418,-5.6565,-5.7152,-5.7707,-5.8103,-5.8189,-5.8615,-5.9422,-5.9731,-5.9798,-5.9607,-6.0329,-5.9907,-5.8349,-5.9026,-5.8889,-5.7995,0.0,0.0,-5.7478,-5.8127,-5.7767,-5.6592,-5.6482,-5.6417,-5.6379,-5.5934,-5.5742,-5.5703,-5.5434,-5.5395,-5.5549,-5.5703,-5.5742,-5.5638,-5.4886,-5.4547,-5.4355,-5.3563,-5.3272,-5.3188,-5.3041,-5.255,0.0,-5.1715,-5.1262,-5.0779,-5.047,-5.013,-4.9699,-4.9217,-4.7967,-4.6859,-4.7052,-4.6182,-4.5442,-4.5965,-4.6222,-4.6365,-4.6365,-4.6657,-4.6754,-4.6219,-4.5878,-4.548,-4.5022,-4.4798,-4.5192,-4.6555,-4.5729,-4.5351,-4.5962,-4.5367,-4.4477,-4.3267,-4.4211,-4.506,-4.5669,-4.6989,-4.8105,-4.8984,-4.9593,-5.0236,-5.1014,-5.1665,-5.2477,-5.3463,-5.3463,-5.4206,0.0,0.0,0.0,0.0,0.0,0.0,0.0,0.0,0.0,0.0,0.0,-3.914,-4.0376,0.0,-4.4811,-4.74,-5.0031,-5.2437,-5.4143,-5.5798,-5.6492,-5.5684,-5.6308,-5.6969,-5.7373,-5.7776,-5.8097,-5.8369,-5.8796,-5.9248,-5.969,-6.0189,-6.0338,-6.0103,-6.0572,-6.0175,-5.8806,-5.9766,-5.9704,-5.8611,-5.955,-5.9456,-5.847,-5.8398,-5.7968,-5.7208,-5.6648,-5.634,-5.6263,-5.5955,-5.5742,-5.5703,-5.5703,-5.5703,-5.5703,-5.5703,-5.5703,-5.5577,-5.476,-5.4484,-5.4392,-5.3444,-5.3225,-5.3225,-5.3225,-5.2937,-5.2509,-5.1825,-5.1343,-5.0929,-5.0258,-5.0033,-4.9929,-4.9548,-4.8889,-4.8394,-4.8295,-4.7417,-4.6709,-4.7002,-4.6696,-4.6507,-4.6931,-4.7196,-4.6967,-4.5873,-4.5623,-4.5312,-4.4578,-4.4507,-4.484,-4.574,-4.5257,-4.5044,-4.5623,-4.532,-4.4993,-4.4587,-4.5263,-4.6007,-4.6786,-4.7868,-4.8815,-4.9526,-5.0673,-5.1638,-5.233,-5.3112,-5.4077,-5.5193,-5.5193,-5.5628,0.0,0.0,0.0,0.0,0.0,0.0,0.0,-3.5917,-3.7673,-3.8509,-4.0459,-4.2465,-4.3833,-4.5886,-4.8129,-5.0224,-5.2484,-5.4394,-5.566,-5.7061,-5.7776,-5.7116,-5.7042,-5.7299,-5.7923,-5.8051,-5.815,-5.8282,-5.9065,-5.9559,-5.9696,-6.0365,-6.0622,-6.0255,-6.0622,-6.0277,-5.9224,-6.0392,-6.0388,-5.9223,-6.0057,-6.0104,-5.9414,-5.8711,-5.8311,-5.8066,-5.7058,-5.6417,-5.6071,-5.5818,-5.5703,-5.5703,-5.5895,-5.5934,-5.5934,-5.5742,-5.5703,-5.5577,-5.476,-5.4484,-5.4392,-5.3444,-5.3225,-5.3225,-5.3225,-5.3103,-5.2725,-5.1593,-5.1189,-5.0823,-4.9664,-4.9838,-5.0084,-4.9458,-4.9697,-4.9877,-4.9386,-4.8639,-4.8152,-4.8247,-4.7618,-4.7228,-4.7758,-4.7717,-4.7125,-4.5681,-4.5564,-4.5329,-4.4402,-4.4296,-4.4353,-4.4558,-4.444,-4.4403,-4.4575,-4.5263,-4.5703,-4.5703,-4.6515,-4.7293,-4.7902,-4.8748,-4.9622,-5.0521,-5.1882,-5.3028,-5.3913,-5.4691,-5.5705,-5.6912,-5.7057,-5.7057,-3.2654,-3.3839,-3.5271,-3.5585,-3.5982,-3.7065,0.0,-4.0393,-4.1041,-4.244,-4.4081,-4.5419,-4.6278,-4.8243,-5.0275,-5.1871,-5.4064,-5.583,-5.6653,-5.7437,-5.796,-5.7886,-5.7886,-5.7886,-5.7997,-5.8375,-5.8796,-5.9212,-5.9728,-6.0189,-6.0622,-6.0757,-6.0757,-6.0734,-6.0757,-6.0719,-6.058,-6.0858,-6.1002,-6.0994,-6.1234,-6.0973,-6.0273,-6.0156,-5.9733,-5.8997,-5.7814,-5.6708,-5.5742,-5.5703,-5.5703,-5.578,-5.6549,-5.6857,-5.6742,-5.5972,-5.5703,-5.5577,-5.476,-5.4484,-5.4392,-5.3444,-5.3225,-5.3225,-5.3225,-5.2769,-5.2159,-5.2065,-5.1544,-5.1034,-5.0876,-5.0929,-5.0946,-5.0875,-5.0397,-5.0119,-5.0545,-5.0073,-4.9748,-5.0373,-4.9851,-4.9159,-4.8742,-4.8137,-4.7419,-4.6604,-4.6976,-4.6843,-4.5474,-4.5354,-4.5337,-4.5355,-4.4878,-4.4597,-4.4609,-4.5263,-4.5703,-4.5703,-4.7022,-4.7834,-4.7936,-4.9255,-5.0646,-5.2122,-5.2978,-5.4032,-5.5468,-5.6224,-5.6701,-5.6948,-5.7546,-5.751,-3.3312,-3.4216,-3.5516,-3.6135,-3.7499,-3.9151,-4.1244,-4.2479,-4.3429,-4.4507,-4.6304,-4.7868,-4.8578,-5.0566,-5.2392,-5.3541,-5.5259,-5.6704,-5.7462,-5.7371,-5.7116,-5.6638,-5.6602,-5.6969,-5.7923,-5.8418,-5.8756,-5.899,-5.9658,-6.0189,-6.0365,-6.0647,-6.0781,-6.0781,-6.0781,-6.0781,-6.0781,-6.105,-6.1235,-6.1289,-6.1539,-6.1452,-6.1133,-6.0156,-5.9148,-5.8114,-5.7119,-5.6917,-5.7165,-5.6665,-5.6742,-5.7242,-5.7627,-5.7742,-5.7703,-5.7357,-5.6896,-5.6345,-5.5511,-5.4899,-5.4392,-5.3444,-5.3225,-5.3225,-5.3225,-5.298,-5.2644,-5.2206,-5.1886,-5.1593,-5.1189,-5.1393,-5.1692,-5.1692,-5.1766,-5.191,-5.217,-5.1257,-5.0543,-5.0802,-4.9603,-4.8588,-4.8732,-4.8217,-4.7728,-4.7421,-4.7258,-4.69,-4.6349,-4.5883,-4.561,-4.561,-4.5365,-4.5399,-4.5838,-4.6143,-4.6515,-4.6955,-4.797,-4.8748,-4.9154,-5.0168,-5.1492,-5.2978,-5.4185,-5.5292,-5.6367,-5.7637,-5.7992,-5.7546,-5.8339,-5.8049,-3.3862,-3.5087,-3.6471,-3.7643,-3.9626,-4.177,-4.3687,-4.4936,-4.6085,-4.7275,-4.8781,-5.0135,-5.0879,-5.2529,-5.4042,-5.4818,-5.6062,-5.7166,-5.7904,-5.7299,-5.6492,-5.5684,-5.539,-5.5809,-5.7044,-5.8036,-5.8689,-5.9065,-5.9855,-6.0311,-6.0311,-6.0622,-6.0781,-6.0781,-6.0781,-6.0781,-6.0781,-6.1151,-6.1312,-6.1289,-6.1342,-6.1328,-6.1289,-6.0041,-5.8858,-5.7741,-5.7371,-5.761,-5.8242,-5.7627,-5.7742,-5.8319,-5.855,-5.8627,-5.8642,-5.8765,-5.7973,-5.675,-5.5974,-5.5098,-5.4187,-5.344,-5.3371,-5.3555,-5.3555,-5.3702,-5.3689,-5.2954,-5.2753,-5.2542,-5.1861,-5.2018,-5.2381,-5.2381,-5.2813,-5.3146,-5.2937,-5.1991,-5.1153,-5.0976,-4.952,-4.8522,-4.9041,-4.8616,-4.8206,-4.8206,-4.7767,-4.7259,-4.6853,-4.6346,-4.6007,-4.6007,-4.6007,-4.621,-4.6752,-4.6989,-4.7428,-4.8173,-4.8917,-4.9627,-5.0371,-5.1337,-5.2454,-5.3788,-5.5278,-5.6528,-5.7529,-5.8409,-5.8674,-5.8339,-5.8657,-5.8069,-3.445,-3.674,-3.9321,-4.1337,-4.3178,-4.5206,-4.8112,-4.8787,-4.9492,-5.1657,-5.2164,-5.2469,-5.3247,-5.4038,-5.4844,-5.5574,-5.6367,-5.7166,-5.7904,-5.7299,-5.6492,-5.5684,-5.4913,-5.4612,0.0,-5.7,-5.8727,-5.9968,-6.0508,-6.0781,-6.0781,-6.0781,-6.0781,-6.0781,-6.0781,-6.0781,-6.0781,-6.1151,-6.1312,-6.1289,-6.0718,-6.043,-6.0429,-6.0228,-5.963,-5.8725,-5.9379,-5.9149,-5.8319,-5.828,-5.828,-5.8396,-5.9165,-5.9473,-5.9504,-5.9901,-5.8491,-5.6338,-5.5882,-5.4859,-5.3758,-5.3318,-5.3739,-5.4363,-5.4363,-5.4913,-5.5354,-5.4583,-5.4319,-5.4136,-5.3366,-5.3146,-5.3182,-5.3182,-5.3146,-5.298,-5.2289,-5.2076,-5.185,-5.1205,-5.0465,-4.9907,-4.9941,-4.9428,-4.8984,-4.8984,-4.8951,-4.8409,-4.6989,-4.6786,-4.6752,-4.6752,-4.6752,-4.6786,-4.6786,-4.7462,-4.8206,-4.8917,-4.9661,-5.0405,-5.115,-5.2654,-5.3788,-5.4555,-5.608,-5.7615,-5.9124,-5.8413,-5.8411,-5.9168,-5.8316,-5.7329,-3.6173,-3.8683,-4.1466,-4.4493,-4.6419,-4.8037,-5.0033,-5.0845,-5.1251,-5.1522,-5.1183,-5.0871,-5.107,-5.0976,-5.1563,-5.3687,-5.4777,-5.5982,-5.7721,-5.7299,-5.6124,-5.4216,-5.3775,-5.3669,0.0,0.0,0.0,-5.8613,-5.9264,-5.9764,-6.03,-6.0622,-6.0781,-6.0781,-6.0781,-6.0781,-6.0781,-6.055,-6.0442,-6.0421,-5.9859,-5.9609,-5.9609,-5.942,-5.9425,-5.9514,-5.9117,-5.9319,-5.9896,-5.9319,-5.9435,-5.9973,-6.0242,-6.0358,-6.0311,-6.0168,-5.9041,-5.744,-5.6436,-5.5809,-5.5245,-5.4312,-5.4546,-5.5207,-5.5207,-5.539,-5.5537,-5.5244,-5.4803,-5.4326,-5.4069,-5.3592,-5.3225,-5.3225,-5.2813,-5.2381,-5.2159,-5.1741,-5.1343,-5.1138,-5.0876,-5.0716,-5.0716,-5.0146,-4.9521,-4.9046,-4.9018,-4.8646,-4.7665,-4.797,-4.8071,-4.7597,-4.753,-4.7936,-4.8917,-4.8342,-4.8646,-5.0371,-5.0236,-5.0861,-5.2654,-5.2711,-5.3792,-5.608,-5.6616,-5.737,-5.8413,-5.9167,-5.9173,-5.8351,-5.829,-5.7803,-3.8447,-4.1168,-4.4145,-4.757,-4.9278,-5.0507,-5.1758,-5.2164,-5.2029,-5.1014,-4.9999,-4.9209,-4.8846,-4.792,-4.8295,-5.1508,-5.2474,-5.3795,-5.6694,-5.6455,-5.5441,-5.399,-5.3588,-5.3461,-5.3526,0.0,0.0,-5.8,-5.8597,-5.9196,-5.984,-6.0468,-6.0781,-6.0781,-6.0781,-6.0819,-6.0858,-6.0296,-5.9898,-5.9708,-5.9363,-5.9219,-5.9218,-5.9257,-5.9549,-5.995,-5.955,-5.9896,-6.0742,-6.0204,-6.0281,-6.0781,-6.0781,-6.071,-6.0482,-6.0006,-5.9257,-5.8201,-5.7117,-5.6397,-5.5858,-5.508,-5.5354,-5.6014,-5.6014,-5.6235,-5.6381,-5.6088,-5.5464,-5.4766,-5.4473,-5.3812,-5.3225,-5.3225,-5.2813,-5.2499,-5.2521,-5.222,-5.1821,-5.1563,-5.1511,-5.1405,-5.1121,-5.05,-4.978,-4.9107,-4.9018,-4.8849,-4.8376,-4.8714,-4.8815,-4.8342,-4.8308,-4.8781,-4.9999,-4.9494,-4.9983,-5.1902,-5.1802,-5.2502,-5.4196,-5.4087,-5.5027,-5.7257,-5.7316,-5.7798,-5.8844,-5.9259,-5.887,-5.7741,-5.7971,-5.7186,-4.1272,-4.4256,-4.7249,-5.0591,-5.1894,-5.257,-5.3281,-5.2807,-5.1758,-5.0236,-4.8714,-4.7394,-4.6641,-4.5132,-4.5303,-4.9265,-4.9853,-5.1131,-5.5155,-5.506,-5.4723,-5.4984,-5.4429,-5.4033,-5.3987,-5.4343,0.0,-5.812,0.0,-5.901,-5.948,-6.0296,-6.0781,-6.0781,-6.0781,-6.0858,-6.0973,-6.0319,-5.97,-5.9219,-5.914,-5.918,-5.9297,-5.9779,-6.0049,-6.0104,-6.0589,-6.0819,-6.0781,-6.0781,-6.0781,-6.0781,-6.0781,-6.0508,-6.0036,-5.9559,-5.9102,-5.8601,-5.7779,-5.6747,-5.5721,-5.5647,-5.6198,-5.6859,-5.6859,-5.7409,-5.785,-5.7079,-5.6235,-5.5427,-5.4656,-5.3849,-5.3225,-5.3261,-5.3219,-5.323,-5.3338,-5.3388,-5.3194,-5.2536,-5.2395,-5.2059,-5.1228,-5.05,-4.978,-4.9107,-4.9018,-4.9018,-4.9052,-4.9052,-4.9086,-4.912,-4.9182,-4.9452,-5.0198,-5.0961,-5.2021,-5.3489,-5.4253,-5.493,-5.5745,-5.6456,-5.7257,-5.8067,-5.8087,-5.879,-6.0248,-5.8612,-5.7741,-5.7471,-5.7132,-5.5596,-4.5602,-4.7645,-4.9451,-5.2907,-5.345,-5.3078,-5.2706,-5.1589,-5.0067,-4.8037,-4.5534,-4.3464,-4.2533,-4.2541,-4.4095,-4.8416,-5.0443,-5.2889,-5.6804,-5.7189,-5.6683,-5.5607,-5.5612,-5.5581,-5.5252,-5.5404,0.0,0.0,-5.8068,-5.8368,-5.9343,-6.0277,-6.0781,-6.0781,-6.0781,-6.0858,-6.0973,-5.9796,-5.9181,-5.918,-5.8555,-5.8906,-6.0117,-6.0149,-6.0438,-6.0973,-6.0935,-6.0896,-6.0781,-6.0781,-6.0781,-6.0781,-6.0781,-6.0508,-6.0036,-5.9559,-5.9102,-5.8635,-5.8067,-5.7655,-5.7299,-5.6675,-5.7042,-5.7703,-5.7703,-5.785,-5.796,-5.774,-5.6675,-5.5537,-5.5354,-5.4252,-5.3371,-5.3959,-5.3644,-5.3469,-5.411,-5.4291,-5.4242,-5.4044,-5.3504,-5.2623,-5.1331,-5.05,-4.978,-4.9107,-4.9018,-4.9187,-4.9729,-4.983,-5.0033,-5.0608,-5.1199,-5.1839,-5.2536,-5.2787,-5.3556,-5.5049,-5.4818,-5.5185,-5.6527,-5.6795,-5.7243,-5.8015,-5.8637,-5.8839,-5.8549,-5.7947,-5.7229,-5.6448,-5.5345,-5.4335,-4.8199,-5.0069,-5.135,-5.3981,-5.4059,-5.3044,-5.1251,-4.9695,-4.7834,-4.4925,-4.2489,-4.0561,-3.9727,-3.9822,-4.1533,-4.6076,-4.8562,-5.1493,-5.5823,-5.6712,-5.6801,-5.6436,-5.6655,-5.6743,-5.6557,-5.6689,-5.7263,0.0,-5.8295,-5.8539,-5.9397,-6.0316,-6.0781,-6.0781,-6.0858,-6.0819,-6.0666,-5.9908,-5.959,-5.9726,-5.9219,-5.9687,-6.0976,-6.082,-6.1017,-6.1369,0.0,-6.0935,-6.0858,-6.0819,-6.0781,-6.0781,-6.0559,-6.0189,-5.976,-5.9248,-5.8796,-5.8332,-5.8097,-5.7997,-5.7923,-5.7483,-5.7629,-5.7997,-5.7997,-5.7997,-5.7997,-5.7997,-5.7079,-5.6124,-5.6124,-5.495,-5.3922,-5.473,-5.4318,-5.409,-5.5291,-5.5545,-5.5389,-5.4737,-5.364,-5.2292,-5.0893,-5.0279,-4.978,-4.9107,-4.9562,-5.0249,-5.0967,-5.0521,-5.0561,-5.1651,-5.2114,-5.2869,-5.3894,-5.4276,-5.499,-5.6152,-5.6149,-5.6508,-5.7315,-5.7388,-5.7746,-5.8519,-5.8591,-5.8596,-5.8421,-5.7408,-5.6415,-5.549,-5.4348,-5.3497,-5.0041,-5.1834,-5.3156,-5.4451,-5.4025,-5.257,-4.956,-4.7564,-4.5297,-4.1677,-3.9715,-3.843,-3.7618,-3.7421,-3.8943,-4.3579,-4.5992,-4.9072,-5.4032,-5.5317,-5.619,-5.7357,-5.7593,-5.7679,-5.7742,-5.8084,-5.8462,-5.8968,-5.8997,-5.9202,-5.9557,-6.0373,-6.0819,-6.0819,-6.0973,-6.0819,-6.0396,-6.0403,-6.0469,-6.0586,-6.0469,-6.0859,-6.1719,-6.1562,-6.1523,-6.1475,0.0,0.0,-6.0935,-6.0858,-6.0757,-6.0647,-6.0283,-5.9792,-5.9248,-5.8835,-5.8418,-5.7997,-5.7997,-5.7997,-5.7997,-5.7997,-5.7997,-5.7997,-5.7997,-5.7997,-5.7997,-5.7997,-5.7409,-5.6822,-5.6822,-5.5611,-5.462,-5.5537,-5.5089,-5.4854,-5.6466,-5.6749,-5.6223,-5.4711,-5.3181,-5.1658,-5.0258,-5.0137,-4.9976,-4.9426,-5.0607,-5.1859,-5.259,-5.1485,-5.1234,-5.2646,-5.2892,-5.3519,-5.4827,-5.5626,-5.6391,-5.7029,-5.7679,-5.795,-5.7821,-5.7927,-5.8268,-5.886,-5.8254,-5.825,-5.8943,-5.6905,-5.549,-5.4589,-5.3845,-5.2704,-5.2363,-5.3902,-5.4896,-5.54,-5.3991,-5.1725,-4.8781,-4.5974,-4.3132,-4.002,-3.8193,-3.6738,-3.5351,-3.6965,-3.9849,-4.38,-4.6765,-5.035,-5.564,-5.6492,-5.694,-5.7802,-5.8238,-5.8495,-5.8501,-5.8911,0.0,0.0,-5.9874,-5.9903,-5.996,-6.052,-6.0858,-6.0935,-6.1266,-6.1381,-6.1304,-6.0676,-6.0742,-6.1484,-6.0742,-6.0859,-6.1719,-6.168,-6.1541,-6.1315,-6.1253,0.0,-6.0819,-6.0819,-6.0597,-6.0189,-6.0132,-5.9559,-5.8796,-5.8716,-5.8418,-5.7997,-5.7997,-5.7997,-5.7997,-5.7997,-5.7997,-5.7997,-5.7997,-5.7997,-5.7997,-5.7997,-5.7409,-5.6822,-5.6822,-5.5611,-5.4766,-5.6235,-5.5494,-5.493,-5.6523,-5.64,-5.5418,-5.3922,-5.2936,-5.1869,-5.0241,-5.0587,-5.1003,-5.0921,-5.2201,-5.3384,-5.4126,-5.4014,-5.4169,-5.5058,-5.5722,-5.6204,-5.6453,-5.7182,-5.7674,-5.7821,-5.795,-5.7726,-5.7116,-5.7722,-5.7795,-5.7269,-5.7717,-5.8015,-5.8065,-5.5968,-5.4755,-5.4589,-5.2608,-5.1506,-5.3446,-5.489,-5.5786,-5.5669,-5.3721,-5.0744,-4.7022,-4.3842,-4.0832,-3.7855,-3.6366,-3.5385,-3.4641,-3.6056,-3.8239,-4.1117,-4.3728,-4.7262,-5.2514,-5.3866,-5.506,-5.7116,-5.7936,-5.8508,-5.9028,-5.9065,-5.9424,-6.0391,-6.0255,-6.0189,-6.0456,-6.0748,-6.1012,-6.1266,-6.142,-6.1544,-6.1623,-6.1264,-6.1289,-6.168,-6.1289,-6.1289,-6.1719,-6.1719,-6.1609,-6.1405,-6.1328,0.0,-6.0896,-6.0819,-6.0508,-6.0074,-5.9823,-5.9319,-5.8673,-5.8418,-5.8194,-5.7997,-5.7997,-5.7997,-5.7997,-5.7997,-5.7997,-5.7997,-5.7997,-5.7997,-5.7997,-5.7997,-5.7703,-5.7317,-5.6951,-5.5946,-5.5171,-5.5555,-5.5107,-5.4883,-5.6009,-5.5628,-5.4741,-5.366,-5.2858,-5.1855,-5.0335,-5.1045,-5.172,-5.1338,-5.3227,-5.4809,-5.5203,-5.5908,-5.6392,-5.6331,-5.6668,-5.7065,-5.7449,-5.7774,-5.7997,-5.7997,-5.7631,-5.7302,-5.6912,-5.6843,-5.6832,-5.6759,-5.7191,-5.753,-5.7881,-5.5651,-5.4589,-5.4589,-5.2215,-5.1409,-5.4134,-5.5766,-5.6877,-5.6111,-5.345,-4.9864,-4.5568,-4.2117,-3.9005,-3.5994,-3.4912,-3.4447,-3.4236,-3.497,-3.635,-3.8596,-4.0742,-4.3944,-4.918,-5.1255,-5.3335,-5.6198,-5.7409,-5.8326,-5.9139,-5.8913,0.0,-6.0391,-6.0255,0.0,-6.0819,-6.1012,-6.1228,-6.1497,-6.1543,-6.1576,-6.1719,-6.1719,-6.1719,-6.1719,-6.1719,-6.1719,-6.1719,-6.1658,-6.1596,-6.1443,-6.1312,0.0,0.0,-6.071,-6.0365,-5.9916,-5.9424,-5.899,-5.8545,-5.8238,-5.8142,-5.8142,-5.8142,-5.8142,-5.8142,-5.8042,-5.7997,-5.7997,-5.7997,-5.7997,-5.7997,-5.7997,-5.7904,-5.7631,-5.7065,-5.6088,-5.4952,-5.4095,-5.4141,-5.4508,-5.4875,-5.4607,-5.4056,-5.3376,-5.277,-5.1871,-5.0566,-5.1718,-5.2707,-5.2114,-5.4437,-5.6273,-5.6273,-5.7277,-5.7774,-5.7202,-5.7116,-5.7351,-5.795,-5.7857,-5.7774,-5.7774,-5.7065,-5.6563,-5.6403,-5.5834,-5.5796,-5.6532,-5.6575,-5.6896,-5.7554,-5.5571,-5.4505,-5.4168,-5.2549,-5.2024,-5.48,-5.7159,-5.922,-5.7239,-5.3416,-4.9221,-4.5432,-4.1745,-3.8227,-3.5216,-3.4539,-3.4236,-3.3317,-3.3744,-3.5349,-3.8654,-4.0528,-4.3468,-4.8888,-5.1605,-5.3739,-5.55,-5.7079,-5.8194,-5.8676,-5.8753,-5.8951,-5.9492,0.0,0.0,-6.0973,-6.1304,-6.1458,-6.1497,-6.1598,-6.1676,-6.1719,-6.1719,-6.1719,-6.1719,-6.1719,-6.1719,-6.1718,-6.1585,-6.1426,-6.1305,-6.1098,0.0,0.0,-6.0338,-5.9885,-5.9424,-5.8951,-5.8503,-5.8097,-5.8466,-5.8632,-5.8632,-5.8632,-5.8632,-5.8549,-5.8142,-5.7997,-5.7997,-5.7997,-5.7997,-5.7997,-5.7997,-5.7498,-5.6964,-5.6912,-5.5257,-5.3243,-5.1847,-5.2577,-5.3437,-5.2725,-5.3173,-5.3345,-5.2567,-5.2363,-5.2027,-5.1251,-5.2924,-5.4358,-5.4288,-5.6292,-5.7794,-5.7794,-5.7914,-5.7997,-5.7904,-5.7904,-5.795,-5.7997,-5.7401,-5.7015,-5.7015,-5.6259,-5.5495,-5.4818,-5.4703,-5.5056,-5.5788,-5.5784,-5.5996,-5.636,-5.5134,-5.4084,-5.3077,-5.352,-5.374,-5.4338,-5.7041,-5.9032,-5.7239,-5.3078,-4.8578,-4.5331,-4.1339,-3.7618,-3.5013,-3.4389,-3.4026,-3.3156,-3.3319,-3.4228,-3.622,-3.713,-3.9243,-4.4052,-4.6248,-4.8857,-5.2931,-5.5106,-5.7032,-5.8915,0.0,-5.976,-6.0189,0.0,0.0,-6.0973,-6.1136,-6.1291,-6.149,-6.1545,-6.1601,-6.1719,-6.1719,-6.1719,-6.1719,-6.1719,-6.1676,-6.1575,-6.1523,-6.134,-6.1099,-6.1048,0.0,0.0,-6.0311,-5.9823,-5.9354,-5.8874,-5.8591,-5.8418,-5.8326,-5.8461,-5.8673,-5.8375,-5.8282,-5.8238,-5.8051,-5.7726,-5.7401,-5.7904,-5.7679,-5.7351,-5.7351,-5.6773,-5.5952,-5.508,-5.3183,-5.1399,-5.1241,-5.1691,-5.2175,-5.2264,-5.2942,-5.3416,-5.3078,-5.301,-5.2773,-5.1995,-5.3783,-5.5086,-5.4682,-5.6573,-5.7997,-5.7997,-5.7997,-5.7997,-5.7997,-5.7997,-5.7821,-5.7401,-5.7065,-5.6668,-5.6204,-5.5437,-5.5088,-5.5265,-5.4823,-5.5145,-5.6325,-5.6799,-5.6962,-5.6784,-5.6922,-5.6376,-5.5177,-5.5518,-5.5866,-5.2893,-5.5731,-5.7648,-5.6727,-5.2367,-4.7631,-4.4857,-4.0798,-3.6941,-3.4641,-3.4144,-3.3813,-3.2847,-3.2956,-3.3507,-3.4543,-3.509,-3.6772,-4.0815,-4.281,-4.559,-5.0325,-5.2713,-5.5062,-5.786,-5.9209,-6.0132,0.0,0.0,0.0,-6.0973,-6.1041,-6.1211,-6.1478,-6.1553,-6.1601,-6.1719,-6.1719,-6.1719,-6.1719,-6.1642,-6.1603,-6.1497,-6.142,-6.1228,-6.0973,0.0,0.0,0.0,-6.0132,-5.9728,-5.9319,-5.8716,-5.8503,-5.8461,-5.8282,-5.8418,-5.8673,-5.8326,-5.806,-5.784,-5.769,-5.7166,-5.6668,-5.713,-5.6978,-5.6563,-5.6563,-5.5948,-5.5027,-5.3549,-5.1765,-5.0574,-5.1082,-5.1217,-5.142,-5.2131,-5.2942,-5.3518,-5.3518,-5.3518,-5.3315,-5.2739,-5.4348,-5.5511,-5.5036,-5.6667,-5.7997,-5.7997,-5.7821,-5.7679,-5.7679,-5.7498,-5.7216,-5.6912,-5.651,-5.5984,-5.5437,-5.4876,-5.4952,-5.5644,-5.5417,-5.5953,-5.7442,-5.7949,-5.8001,-5.7573,-5.8181,-5.7887,-5.6787,-5.7324,-5.8377,-5.0314,-5.3008,-5.5355,-5.5673,-5.1251,-4.621,-4.3944,-3.9986,-3.6163,-3.3897,-3.3802,-3.364,-3.2083,-3.2565,-3.3485,-3.4248,-3.5483,-3.7404,-4.0639,-4.3167,-4.559,-4.8049,-5.0084,-5.2344,-5.4876,-5.7712,-5.9792,0.0,0.0,0.0,-6.0973,-6.1189,-6.1343,-6.152,-6.1642,-6.1719,-6.1719,-6.1719,-6.1719,-6.1718,-6.1578,-6.152,-6.1497,-6.1151,-6.0973,0.0,0.0,0.0,0.0,-5.9792,-5.9389,-5.9284,-5.8375,-5.7997,-5.8051,-5.8508,-5.8713,-5.8713,-5.8676,-5.819,-5.7537,-5.7043,-5.6367,-5.5724,-5.5724,-5.5724,-5.5724,-5.5724,-5.5203,-5.4247,-5.2731,-5.1758,-5.1217,-5.1217,-5.1217,-5.142,-5.2131,-5.2942,-5.3518,-5.3518,-5.3518,-5.3518,-5.3484,-5.473,-5.5724,-5.5688,-5.7029,-5.7997,-5.7997,-5.7351,-5.6912,-5.6912,-5.6204,-5.6059,-5.6861,-5.553,-5.4606,-5.4572,-5.4629,-5.4905,-5.5683,-5.6393,-5.7476,-5.8964,-5.8998,-5.8849,-5.8492,-5.8492,-5.7887,-5.6873,-5.8722,-6.1383,-4.5897,-4.8557,-5.0725,-4.9869,-4.665,-4.3132,-4.0899,-3.8091,-3.5351,-3.3085,-3.3014,-3.3017,-3.1979,-3.2565,-3.381,-3.5724,-3.665,-3.8028,-4.0744,-4.295,-4.5308,-4.7977,-5.2863,-5.6555,0.0,0.0,0.0,0.0,0.0,0.0,0.0,-6.1348,-6.1458,-6.1497,-6.1523,-6.1596,-6.1719,-6.1719,-6.1632,-6.1562,-6.152,-6.1381,-6.1151,-6.105,0.0,0.0,0.0,0.0,0.0,-5.9792,-5.9389,-5.9284,-5.8375,-5.8231,-5.8461,-5.8282,-5.8418,-5.8553,-5.7767,-5.734,-5.7007,-5.6331,-5.5552,-5.4939,-5.4939,-5.4939,-5.4818,-5.4328,-5.3288,-5.2252,-5.2298,-5.1386,-5.0574,-5.1082,-5.1589,-5.2029,-5.2266,-5.2942,-5.3685,-5.4171,-5.3815,-5.3685,-5.4136,-5.4668,-5.4939,-5.4939,-5.578,-5.6438,-5.6438,-5.6223,-5.6273,-5.6843,-5.6188,-5.5768,-5.6069,-5.5618,-5.5357,-5.5382,-5.5788,-5.6427,-5.7171,-5.7915,-5.8761,-5.9742,-6.0283,-6.008,-5.9169,-6.0545,-6.124,-6.1383,-6.1546,-6.2682,-4.2012,-4.4453,-4.62,-4.5621,-4.3064,-4.0189,-3.8531,-3.64,-3.4346,-3.2895,-3.291,-3.3,-3.2196,-3.2791,-3.3851,-3.5214,-3.5811,-3.7037,-3.9827,-4.1957,-4.461,-4.853,-5.3612,0.0,0.0,0.0,0.0,0.0,0.0,0.0,0.0,-6.1502,-6.1574,-6.1574,-6.1578,-6.1627,-6.1719,-6.166,-6.1589,-6.1497,-6.1381,-6.1189,-6.0973,-6.0935,0.0,0.0,0.0,0.0,0.0,-5.969,-5.9284,-5.9028,-5.8326,-5.8186,-5.8375,-5.7784,-5.7794,-5.7867,-5.6804,-5.6259,-5.5928,-5.5437,-5.4757,-5.42,-5.42,-5.42,-5.4106,-5.3618,-5.2807,-5.2198,-5.2638,-5.186,-5.1116,-5.1894,-5.2198,-5.2433,-5.3062,-5.357,-5.4106,-5.4878,-5.4454,-5.4042,-5.4544,-5.4606,-5.4606,-5.4606,-5.5203,-5.5794,-5.6113,-5.586,-5.5999,-5.6806,-5.6443,-5.6368,-5.6917,-5.6436,-5.6201,-5.6494,-5.7239,-5.8118,-5.9133,-5.9877,-6.0622,-6.1366,-6.1873,-6.1627,-6.0617,-6.1814,-6.2848,-6.3568,-6.3186,-6.3214,0.0,-4.0463,-4.1576,-4.2476,-4.0121,-3.7381,-3.6637,-3.4844,0.0,-3.2938,-3.3175,-3.3247,-3.2645,-3.3202,-3.3679,-3.3478,-3.3879,-3.5238,-3.8462,-4.0837,-4.4277,0.0,-5.294,0.0,-5.5692,0.0,0.0,0.0,0.0,0.0,0.0,-6.1593,-6.1615,-6.1659,-6.1621,-6.1635,-6.1674,-6.1546,-6.1497,-6.1497,-6.1151,-6.0973,-6.0973,-6.0858,0.0,0.0,0.0,0.0,0.0,-5.9592,-5.9102,-5.8673,-5.815,-5.7997,-5.7821,-5.7116,-5.6861,-5.6668,-5.5893,-5.5144,-5.4606,-5.4544,-5.4042,-5.3518,-5.3518,-5.3518,-5.3518,-5.3518,-5.345,-5.345,-5.3484,-5.2909,-5.2503,-5.3348,-5.2975,-5.2864,-5.4371,-5.4695,-5.4878,-5.5552,-5.5154,-5.4641,-5.4606,-5.4614,-5.4683,-5.4614,-5.5259,-5.6046,-5.6694,-5.6203,-5.6176,-5.6971,-5.702,-5.7679,-5.9201,-5.7915,-5.7374,-5.8152,-5.893,-5.9979,-6.14,-6.2144,-6.2888,-6.3565,-6.3599,-6.326,-6.2618,-6.2595,-6.3012,-6.3866,-6.3645,-6.2738,-3.3974,0.0,-3.6155,-3.5847,-3.5115,-3.4269,0.0,-3.2916,-3.2381,-3.1754,-3.1701,-3.1998,-3.2786,-3.2891,-3.3494,-3.562,-3.6869,-3.8332,-4.0614,-4.509,0.0,-5.129,-5.4963,-5.7087,-5.6458,0.0,0.0,0.0,0.0,-6.156,0.0,-6.1041,-6.0976,-6.1511,-6.0887,-6.0863,-6.1521,-6.1516,-6.1458,-6.1343,-6.1112,-6.0973,-6.0973,-6.0858,0.0,0.0,0.0,0.0,-6.0074,-5.9592,-5.9102,-5.8673,-5.815,-5.7679,-5.7116,-5.6964,-5.651,-5.5893,-5.5084,-5.4757,-5.4482,-5.3946,-5.3685,-5.3518,-5.3518,-5.3518,-5.3518,-5.3518,-5.3078,-5.2739,-5.3348,-5.2909,-5.2666,-5.4029,-5.4155,-5.4302,-5.5227,-5.5437,-5.5495,-5.5667,-5.5574,-5.5265,-5.471,-5.5066,-5.5213,-5.4702,-5.5689,-5.6611,-5.6782,-5.7121,-5.7865,-5.9157,-5.9349,-6.0182,-6.2279,-6.052,-5.9911,-6.1264,-6.2042,-6.2618,-6.299,-6.37,-6.4174,-6.4343,-6.4343,-6.4546,-6.4918,-6.3889,-6.4153,-6.5312,-6.2477,-6.1207,-3.1831,-3.2917,-3.3897,-3.3491,-3.3152,-3.278,-3.2374,-3.2036,-3.1743,-3.1534,-3.147,-3.1797,-3.293,-3.2983,-3.3687,-3.6391,-3.7358,0.0,0.0,0.0,-5.0459,-5.2855,-5.5805,-5.7766,0.0,0.0,0.0,0.0,0.0,0.0,0.0,-6.0009,-5.9904,-6.0272,-5.9804,-6.0106,-6.1405,-6.1323,-6.1228,-6.1151,-6.0973,-6.0896,-6.0896,-6.0819,-6.0671,0.0,0.0,0.0,-5.9458,-5.9424,-5.9028,-5.8332,-5.8097,-5.7546,-5.6861,-5.651,-5.5836,-5.5084,-5.4328,-5.4106,-5.4042,-5.3618,-5.3518,-5.3518,-5.3518,-5.3518,-5.3518,-5.3518,-5.3179,-5.2942,-5.3382,-5.3443,-5.3661,-5.489,-5.5401,-5.5894,-5.6599,-5.6821,-5.6821,-5.6728,-5.6143,-5.5652,-5.5646,-5.5414,-5.5277,-5.5547,-5.6562,-5.7543,-5.822,-5.8964,-6.0013,-6.1501,-6.1975,-6.2956,-6.485,-6.4208,-6.3599,-6.3429,-6.3768,-6.4174,-6.4512,-6.4884,-6.5256,-6.5595,-6.529,-6.5345,-6.5755,-6.4735,-6.4159,-6.3791,-6.1477,-5.9798,-3.1276,-3.2503,-3.3491,-3.3152,-3.2679,-3.228,-3.2178,-3.163,-3.1274,-3.1623,-3.177,-3.2092,-3.3096,-3.3485,-3.4345,-3.6545,0.0,0.0,-4.53,-4.8128,-5.0856,-5.4089,-5.6038,0.0,0.0,0.0,0.0,0.0,0.0,0.0,0.0,-5.8862,-5.8753,-5.883,-5.8594,-5.9205,-6.0825,-6.0848,-6.0858,-6.0973,-6.0858,-6.0819,-6.0819,-6.0819,-6.0533,0.0,0.0,0.0,-5.8716,-5.9102,-5.8756,-5.7997,-5.7904,-5.7401,-5.6616,-5.5836,-5.5059,-5.4328,-5.3717,-5.3518,-5.3518,-5.3518,-5.3518,-5.3518,-5.3518,-5.3518,-5.3518,-5.3518,-5.3551,-5.3685,-5.3685,-5.4303,-5.5104,-5.5827,-5.6586,-5.7304,-5.7954,-5.8096,-5.8036,-5.7857,-5.6885,-5.6141,-5.6595,-5.586,-5.5683,-5.6968,-5.7949,-5.9066,-6.0452,-6.14,-6.2482,-6.3869,-6.4681,-6.5662,-6.7049,-6.7726,-6.7286,-6.5425,-6.5155,-6.5324,-6.5831,-6.5967,-6.6221,-6.6693,-6.6188,-6.5922,-6.5947,-6.486,-6.345,-6.1679,-6.0374,-5.8257,-3.1825,-3.3246,-3.3863,-3.2002,-3.1901,-3.2104,-3.1495,-3.1258,-3.123,-3.1274,-3.1582,-3.2195,-3.3383,-3.4727,-3.6029,-3.719,0.0,-4.5016,0.0,0.0,-5.3438,-5.4389,0.0,0.0,0.0,0.0,0.0,0.0,0.0,0.0,0.0,-5.8258,-5.8077,-5.8556,-5.7841,-5.7863,-5.8757,-5.9579,-6.0342,-6.0973,-6.0858,-6.0858,-6.0973,-6.0858,-6.0533,0.0,0.0,-5.9625,-5.8713,-5.8756,-5.8503,-5.795,-5.7302,-5.658,-5.578,-5.5024,-5.4328,-5.3685,-5.3551,-5.3518,-5.3518,-5.3518,-5.3518,-5.3518,-5.3518,-5.3518,-5.3518,-5.3518,-5.3946,-5.4419,-5.4419,-5.5453,-5.6599,-5.6717,-5.7306,-5.7954,-5.8001,-5.8036,-5.7797,-5.7115,-5.7274,-5.7187,-5.6098,-5.7209,-5.8423,-5.866,-6.0385,-6.2009,-6.2888,-6.4174,-6.5358,-6.6203,-6.6948,-6.776,-6.8673,-6.8842,-6.8774,-6.8436,-6.776,-6.7151,-6.6643,-6.7218,-6.704,-6.6039,-6.6502,-6.6569,-6.602,-6.3333,-6.216,-6.2336,-5.8161,-5.6211,-3.1381,-3.2476,-3.3051,-3.2036,-3.2949,-3.3795,-3.2645,-3.2616,-3.2818,-3.2818,-3.3167,-3.3951,-3.5395,-3.6084,-3.7551,-4.0877,0.0,-4.8602,-5.0465,-5.1897,-5.3207,0.0,0.0,0.0,0.0,0.0,0.0,0.0,0.0,0.0,0.0,0.0,-5.684,-5.7071,-5.6626,-5.678,-5.7588,-5.8072,-5.8957,-6.0204,-6.0127,-6.0224,-6.0533,-6.043,-6.0044,-5.9354,0.0,-5.9176,-5.8332,-5.8591,-5.8208,-5.7351,-5.7015,-5.615,-5.5059,-5.4264,-5.3783,-5.3518,-5.3518,-5.3518,-5.3518,-5.3518,-5.3518,-5.3518,-5.3518,-5.3518,-5.3585,-5.3991,-5.4658,-5.5258,-5.5258,-5.6694,-5.8208,-5.8178,-5.8801,-5.9193,-5.8675,-5.859,-5.8333,-5.7535,-5.7398,-5.7361,-5.748,-5.8355,-5.9438,-6.0655,-6.2415,-6.4005,-6.5155,-6.6237,-6.732,-6.8504,-6.8944,-6.9451,-7.0229,-7.0297,-6.9958,-6.9147,-6.8741,-6.8402,-6.8064,-6.7657,-6.733,-6.7048,-6.6678,-6.6213,-6.5576,-6.3224,-6.1556,-6.0431,-5.7391,-5.57,-3.0845,-3.1596,-3.1968,-3.1799,-3.3186,-3.4472,-3.4032,-3.4082,-3.4449,-3.5144,-3.561,-3.6317,-3.7617,-3.8077,0.0,-4.499,-4.8563,-5.0905,-5.149,-5.2279,0.0,0.0,0.0,0.0,0.0,0.0,0.0,0.0,0.0,0.0,0.0,0.0,-5.578,-5.5588,-5.5665,-5.5989,-5.6537,-5.6575,-5.742,-5.9048,-5.9048,-5.9166,-5.9376,-5.9566,-5.9228,-5.8455,-5.899,-5.8756,-5.8042,-5.8208,-5.7721,-5.6861,-5.651,-5.553,-5.4264,-5.3717,-5.3518,-5.3518,-5.3518,-5.3518,-5.3518,-5.3518,-5.3518,-5.3518,-5.3518,-5.372,-5.4158,-5.4702,-5.5835,-5.6825,-5.6404,-5.7917,-5.9547,-5.9559,-6.0131,-6.0454,-5.9564,-5.9582,-5.9455,-5.859,-5.8174,-5.8273,-5.9302,-5.9674,-6.052,-6.2584,-6.4174,-6.5595,-6.6914,-6.7861,-6.8876,-7.006,-7.0331,-7.0703,-7.1278,-7.1312,-7.0715,-6.9178,-6.8942,-6.8774,-6.8606,-6.7427,-6.6872,-6.7135,-6.646,-6.5521,-6.4188,-6.2701,-6.0725,-5.8331,-5.6662,-5.5529,-3.0711,-3.1224,-3.1089,-3.0446,-3.0886,-3.2205,-3.4844,-3.4885,-3.5196,-3.7902,-3.8709,-3.9037,-3.9448,-4.1082,-4.3847,-4.8314,-5.0049,-5.1597,-5.3909,0.0,0.0,0.0,0.0,0.0,0.0,0.0,0.0,0.0,0.0,0.0,0.0,0.0,0.0,-5.4626,-5.5318,-5.5531,-5.5236,-5.5236,-5.6076,-5.7756,-5.7756,-5.7558,-5.7224,-5.8018,-5.8048,-5.7633,-5.8418,-5.8461,-5.795,-5.7315,-5.7015,-5.6757,-5.5355,-5.4264,-5.3551,-5.3518,-5.3518,-5.3518,-5.3518,-5.3518,-5.3518,-5.3518,-5.3518,-5.3518,-5.3518,-5.449,-5.5617,-5.5686,-5.7895,-5.9813,-5.832,-5.9116,-6.0286,-6.0303,-6.0935,-6.1271,-6.0519,-6.0901,-6.1143,-6.0288,-6.0705,-6.1149,-6.1113,-6.1704,-6.2685,-6.4208,-6.5696,-6.6948,-6.7726,-6.9113,-7.006,-7.0161,-7.0804,-7.1244,-7.1312,-7.1312,-7.0724,-6.9277,-6.8554,-6.7862,-6.7202,-6.6517,-6.5599,-6.4302,-6.5437,-6.46,-6.1588,-6.0512,-5.9008,-5.7135,-5.556,-5.493,-2.9437,-3.0818,-3.1698,-3.0954,-3.1664,-3.3119,-3.5148,-3.6693,-3.8258,-4.0172,-4.2067,-4.3318,-4.3156,-4.5202,-4.7541,-4.9532,-5.1653,-5.3598,0.0,0.0,0.0,0.0,0.0,0.0,0.0,0.0,0.0,0.0,0.0,0.0,0.0,0.0,0.0,-5.4472,-5.4526,-5.4702,-5.5107,-5.4848,-5.4912,-5.5258,-5.6009,-5.6474,-5.6592,-5.6891,-5.6777,-5.6325,-5.6657,-5.697,-5.7217,-5.6441,-5.6149,-5.6004,-5.4516,-5.3717,-5.3518,-5.3518,-5.3518,-5.3518,-5.3518,-5.3518,-5.3518,-5.3518,-5.3849,-5.4136,-5.4136,-5.5251,-5.6586,-5.7078,-5.8474,-5.9724,-5.9609,-6.0756,-6.1782,-6.1281,-6.1748,-6.2098,-6.129,-6.1769,-6.2082,-6.1223,-6.164,-6.2117,-6.1995,-6.3362,-6.4783,-6.5831,-6.7252,-6.8504,-6.9248,-6.9823,-7.0364,-7.0838,-7.1142,-7.0916,-7.0043,-6.9949,-6.9442,-6.8074,-6.847,-6.8273,-6.7197,-6.6035,-6.5245,-6.4739,-6.481,-6.3622,-6.1307,-6.027,-5.907,-5.7604,-5.5867,-5.5365,-2.8404,-2.9644,-3.0674,-3.0401,-3.1666,-3.3646,-3.6253,-3.8552,-4.0887,-4.37,-4.5649,-4.6644,-4.5917,-4.7327,-4.8996,0.0,-5.2318,0.0,0.0,0.0,0.0,0.0,0.0,0.0,0.0,0.0,0.0,0.0,0.0,0.0,0.0,0.0,0.0,0.0,-5.3708,-5.3971,-5.4314,-5.4269,-5.4048,-5.3604,-5.4465,-5.5025,-5.5352,-5.5612,-5.5665,-5.5611,-5.5868,-5.6181,-5.6426,-5.5923,-5.5431,-5.4878,-5.3881,-5.3518,-5.3518,-5.3518,-5.3518,-5.3518,-5.3518,-5.3518,-5.3551,-5.3783,-5.42,-5.4634,-5.4878,-5.62,-5.7754,-5.8324,-5.9424,-6.0624,-6.1444,-6.2219,-6.2725,-6.2476,-6.2985,-6.3362,-6.2534,-6.2959,-6.3251,-6.2301,-6.2784,-6.3324,-6.3385,-6.4884,-6.6305,-6.7049,-6.847,-6.962,-7.0128,-7.0398,-7.0737,-7.1278,-7.1084,-7.0597,-6.9547,-6.9354,-6.8655,-6.7208,-6.8042,-6.7952,-6.6574,-6.5437,-6.4453,-6.391,-6.3831,-6.2558,-6.0214,-5.9846,-5.9017,-5.7655,-5.6624,-5.6394,-2.7739,-2.757,-2.7511,-2.8337,-3.0315,-3.3375,-3.8466,-4.0348,-4.266,-4.8612,-4.9336,-4.8497,-4.7278,-4.7023,0.0,-5.0315,-5.1798,0.0,0.0,0.0,0.0,0.0,0.0,0.0,0.0,0.0,0.0,0.0,0.0,0.0,0.0,0.0,0.0,0.0,-5.2933,-5.3375,-5.2602,-5.3386,-5.3604,-5.3188,-5.3188,-5.3188,-5.3225,-5.4032,-5.484,-5.5611,-5.6455,-5.6426,-5.5757,-5.5738,-5.4818,-5.3484,-5.3484,-5.3484,-5.3518,-5.3518,-5.3518,-5.3518,-5.3518,-5.3518,-5.3618,-5.4391,-5.4606,-5.4757,-5.5495,-5.7386,-5.9311,-5.9311,-6.0981,-6.3025,-6.387,-6.3456,-6.3,-6.3899,-6.4714,-6.5055,-6.4101,-6.4541,-6.4777,-6.3832,-6.427,-6.4973,-6.559,-6.6339,-6.7083,-6.7793,-6.9214,-7.0195,-7.0195,-7.0838,-7.1312,-7.1312,-7.0614,-7.0174,-7.0207,-6.9485,-6.8527,-6.7156,-6.7043,-6.6425,-6.5204,-6.4395,-6.312,-6.1307,-6.2572,-6.1501,-5.792,-5.9078,-5.8823,-5.7047,-5.7625,-5.7901,-2.7433,-2.8489,-2.99,-3.1102,-3.3953,-3.7404,-4.1129,-4.2139,-4.3857,-4.9382,-4.9639,-4.9019,-4.9506,-4.9824,0.0,-5.1373,0.0,0.0,0.0,0.0,0.0,0.0,0.0,0.0,0.0,0.0,0.0,0.0,0.0,0.0,0.0,0.0,0.0,0.0,-5.1661,-5.179,-5.2145,-5.1825,-5.1919,-5.2344,-5.2344,-5.2637,-5.3225,-5.4032,-5.4509,-5.4803,-5.5083,-5.5124,-5.4842,-5.3802,-5.308,-5.2672,-5.2672,-5.301,-5.3518,-5.3518,-5.3518,-5.3518,-5.3518,-5.3518,-5.3618,-5.4391,-5.5348,-5.6329,-5.7135,-5.9035,-6.0943,-6.0943,-6.2251,-6.3759,-6.4016,-6.4257,-6.4483,-6.4888,-6.5077,-6.5229,-6.5538,-6.5672,-6.5707,-6.5287,-6.5827,-6.6385,-6.6437,-6.7557,-6.8673,-6.9383,-7.0364,-7.0973,-7.0973,-7.1176,-7.1084,-7.0552,-7.0367,-6.9769,-6.8798,-6.806,-6.7342,-6.6337,-6.4755,-6.4069,-6.4981,-6.3651,-6.2492,-6.1997,-6.1627,-6.0313,-5.792,-5.9078,-5.8823,-5.7047,-5.7625,-5.7901,-2.8071,-2.9645,-3.155,-3.2973,-3.6291,-4.0088,-4.3568,-4.5236,-4.7062,-5.0704,-5.0342,-4.9571,-5.0279,-5.062,0.0,0.0,0.0,0.0,0.0,0.0,0.0,0.0,0.0,0.0,0.0,0.0,0.0,0.0,0.0,0.0,0.0,0.0,0.0,0.0,-5.035,-5.0515,-5.1255,-5.0972,-5.1059,-5.1536,-5.183,-5.2234,-5.2747,-5.3222,-5.3827,-5.4437,-5.4235,-5.4135,-5.4046,-5.2577,-5.2083,-5.234,-5.234,-5.2975,-5.388,-5.388,-5.4086,-5.4391,-5.4391,-5.4391,-5.4551,-5.5648,-5.6404,-5.7154,-5.8565,-6.0017,-6.119,-6.152,-6.2548,-6.3672,-6.3945,-6.4327,-6.4752,-6.5131,-6.5185,-6.518,-6.5581,-6.5646,-6.5615,-6.5791,-6.6382,-6.701,-6.7201,-6.8504,-6.9688,-7.0128,-7.0838,-7.1199,-7.0884,-7.0917,-7.0652,-7.0196,-6.9679,-6.9072,-6.852,-6.7549,-6.6549,-6.5424,-6.4125,-6.3532,-6.3941,-6.2536,-6.147,-6.0913,-6.0456,-5.952,-5.7888,-5.8791,-5.8667,-5.7725,-5.8278,-5.8529,-2.9306,-3.0796,-3.2473,-3.4377,-3.7917,-4.1937,-4.5732,-4.8636,-5.086,-5.1974,-5.1185,-5.0226,-5.0152,-5.0226,-5.0444,0.0,0.0,0.0,0.0,0.0,0.0,0.0,0.0,0.0,0.0,0.0,0.0,0.0,0.0,0.0,0.0,0.0,0.0,-4.87,-4.9002,-4.9415,-4.9849,-5.0265,-5.0545,0.0,-5.1426,-5.1867,-5.2013,-5.2137,-5.2954,-5.4266,-5.3682,-5.3316,-5.316,-5.176,-5.161,-5.2275,-5.2275,-5.3137,-5.4429,-5.45,-5.4959,-5.5617,-5.5688,-5.5724,-5.5943,-5.7495,-5.7526,-5.7412,-5.9713,-6.0456,-6.0676,-6.1398,-6.2192,-6.2954,-6.361,-6.3811,-6.4004,-6.4867,-6.5027,-6.4982,-6.4905,-6.4962,-6.5138,-6.5759,-6.6508,-6.7252,-6.7996,-6.9248,-7.0195,-7.0174,-7.0569,-7.075,-7.0108,-6.9977,-7.0001,-6.9925,-6.8795,-6.8259,-6.8766,-6.7548,-6.6103,-6.4325,-6.4393,-6.3884,-6.2316,-6.1136,-6.0022,-5.8973,-5.9331,-5.904,-5.7901,-5.8453,-5.873,-5.873,-5.9257,-5.9508,-2.9212,-3.0574,-3.2532,-3.6237,-4.0815,-4.4894,-4.6962,-4.7675,-4.8342,-4.9834,-5.0898,-5.1398,-5.1078,-5.1574,0.0,0.0,0.0,0.0,0.0,0.0,0.0,0.0,0.0,0.0,0.0,0.0,0.0,0.0,0.0,0.0,0.0,0.0,0.0,-4.7846,-4.7655,-4.7755,-4.8207,-4.7979,-4.8563,0.0,-5.0031,-5.0765,-5.2013,-5.2717,-5.2973,-5.2866,-5.2634,-5.2236,-5.1627,-5.1284,-5.1595,-5.2232,-5.2232,-5.2745,-5.3596,-5.4288,-5.4606,-5.4818,-5.5511,-5.5724,-5.5872,-5.6848,-5.7454,-5.8151,-5.9896,-6.086,-6.1385,-6.1551,-6.215,-6.2815,-6.2949,-6.2899,-6.3238,-6.4533,-6.4845,-6.4978,-6.5555,-6.6039,-6.6554,-6.7337,-6.8064,-6.8842,-6.9586,-6.9958,-7.0063,-6.9523,-6.8601,-6.8165,-6.857,-6.8666,-6.8585,-6.8558,-6.8262,-6.7566,-6.6197,-6.5338,-6.4584,-6.3632,-6.1874,-6.0951,-6.1007,-6.0794,-6.0456,-6.0158,-5.8911,-5.82,-5.7901,-5.8453,-5.873,-5.873,-5.9257,-5.9478,-2.9626,-3.1482,-3.4155,-3.9288,-4.2848,-4.5441,-4.6806,-4.7074,-4.7357,-4.8375,-4.9565,-5.029,-4.9832,-5.0833,0.0,0.0,0.0,0.0,0.0,0.0,0.0,0.0,0.0,0.0,0.0,0.0,0.0,0.0,0.0,0.0,0.0,-4.6013,-4.6254,-4.6719,-4.6355,-4.645,-4.7122,-4.7129,-4.7535,-4.8416,-4.9224,-5.0277,-5.1515,-5.2723,-5.2937,-5.2341,-5.2658,-5.2337,-5.1654,-5.167,-5.1809,-5.2151,-5.2151,-5.2852,-5.3927,-5.472,-5.5274,-5.5743,-5.65,-5.6789,-5.6912,-5.7738,-5.8274,-5.8869,-6.0034,-6.069,-6.1006,-6.1013,-6.1569,-6.2175,-6.2134,-6.2579,-6.3263,-6.4023,-6.4179,-6.4401,-6.5203,-6.5597,-6.598,-6.6344,-6.7076,-6.7829,-6.8192,-6.8554,-6.8693,-6.8339,-6.7894,-6.7651,-6.7711,-6.7981,-6.8102,-6.8023,-6.7752,-6.7093,-6.5839,-6.5088,-6.3932,-6.2107,-6.105,-6.0195,-5.9676,-6.0191,-6.0217,-5.9702,-5.8706,-5.8554,-5.9056,-5.9357,-5.9583,-5.9629,-5.9904,-5.9872,-2.9902,-3.2666,-3.6261,-4.1622,-4.3771,-4.4856,-4.6015,-4.6543,-4.686,-4.7182,-4.8028,-4.857,-4.8203,0.0,0.0,0.0,0.0,0.0,0.0,0.0,0.0,0.0,0.0,0.0,0.0,0.0,0.0,0.0,0.0,0.0,-4.5011,-4.5011,-4.5176,-4.5488,-4.5185,-4.5382,-4.6206,-4.6541,-4.6838,-4.7094,-4.8783,-4.9971,-5.0733,-5.2134,-5.2436,-5.1847,-5.2732,-5.2608,-5.1757,-5.2054,-5.2036,-5.1896,-5.1896,-5.2671,-5.3945,-5.4857,-5.5752,-5.6575,-5.7491,-5.7867,-5.8107,-5.8804,-5.9003,-5.914,-5.996,-6.0195,-6.0203,-6.0361,-6.0819,-6.1366,-6.1501,-6.235,-6.3178,-6.3573,-6.3549,-6.3651,-6.4596,-6.4925,-6.5017,-6.5087,-6.5719,-6.6364,-6.639,-6.6767,-6.7078,-6.7205,-6.743,-6.7417,-6.691,-6.7412,-6.7806,-6.7781,-6.7298,-6.6516,-6.5497,-6.4965,-6.3357,-6.0513,-6.0718,-6.0366,-5.8981,-5.9859,-5.996,-5.9156,-5.9156,-5.9583,-6.0462,-6.0462,-6.048,-6.0622,-6.0622,-6.0154,-2.9245,-3.318,-3.75,-4.0131,-4.2359,-4.4151,-4.5095,-4.5566,-4.5802,0.0,-4.7108,-4.8183,0.0,0.0,0.0,0.0,0.0,0.0,0.0,0.0,0.0,0.0,0.0,0.0,0.0,0.0,0.0,0.0,0.0,0.0,-4.4701,-4.4676,-4.4557,-4.4237,-4.4214,-4.4406,-4.4961,-4.5001,-4.5736,-4.7094,-4.8783,-4.9661,-4.9764,-5.0717,-5.0805,-5.0307,-5.1656,-5.143,-5.0135,-5.1515,-5.1653,-5.1066,-5.1066,-5.1251,-5.1749,-5.3122,-5.4215,-5.5075,-5.6559,-5.7449,-5.8033,-5.8143,-5.8166,-5.83,-5.9114,-5.9337,-5.9486,-6.0136,-6.0423,-6.0705,-6.1961,-6.1522,-6.1432,-6.4024,-6.3714,-6.3189,-6.4531,-6.5413,-6.5888,-6.598,-6.6556,-6.7228,-6.7764,-6.7004,-6.6416,-6.7007,-6.6124,-6.5558,-6.6132,-6.6282,-6.6523,-6.7029,-6.7029,-6.5933,-6.3106,-6.2807,-6.1615,-5.911,-5.8959,-5.9413,-6.006,-6.0236,-6.0487,-6.0839,-6.0864,-6.0939,-6.1065,-6.1065,-6.0856,-6.0622,-6.0622,-6.0119,-2.9743,-3.2571,-3.5608,-3.8302,-4.0089,-4.1693,-4.3639,-4.4369,-4.4747,-4.5281,-4.6129,0.0,0.0,0.0,0.0,0.0,0.0,0.0,0.0,0.0,0.0,0.0,0.0,0.0,0.0,0.0,0.0,0.0,0.0,-4.4638,-4.429,-4.4261,-4.4125,-4.3726,-4.3726,-4.3812,-4.4011,-4.4488,-4.5516,-4.7131,-4.8306,-4.9114,-4.9627,-5.0435,-5.066,-5.0435,-5.1064,-5.0766,-4.9812,-5.0475,-5.0606,-5.0401,-5.0401,-5.0667,-5.1263,-5.2821,-5.3901,-5.4783,-5.583,-5.6721,-5.7375,-5.7381,-5.7693,-5.8146,-5.8425,-5.9053,-5.9822,-5.9595,-6.0203,-6.0898,-6.1193,-6.1466,-6.2038,-6.3339,-6.3287,-6.3154,-6.4139,-6.4658,-6.482,-6.4506,-6.4906,-6.5461,-6.5769,-6.591,-6.6088,-6.6391,-6.6341,-6.6221,-6.652,-6.655,-6.667,-6.6969,-6.6044,-6.4842,-6.3086,-6.1922,-6.0777,-5.9235,-5.9458,-5.9834,-6.0311,-6.0914,-6.1391,-6.1642,-6.1341,-6.1341,-6.1642,-6.1592,-6.1557,-6.1832,-6.1832,-6.1671,-2.9962,-3.1717,-3.3603,-3.6222,-3.7873,-3.9472,-4.201,0.0,-4.3902,0.0,0.0,0.0,0.0,0.0,0.0,0.0,0.0,0.0,0.0,0.0,0.0,0.0,0.0,0.0,0.0,0.0,0.0,0.0,0.0,-4.4261,-4.3912,-4.3881,-4.3758,-4.3532,-4.3497,-4.3497,-4.3497,-4.4305,-4.5296,-4.6507,-4.7315,-4.7936,-4.848,-4.9102,-4.9277,-4.919,-5.0117,-4.9937,-4.8974,-4.9405,-4.9495,-4.9414,-4.9626,-5.0048,-5.0764,-5.2306,-5.3368,-5.4151,-5.508,-5.5948,-5.6617,-5.6851,-5.7423,-5.8035,-5.8203,-5.9184,-6.0215,-5.9967,-6.0425,-6.1107,-6.1198,-6.1774,-6.2349,-6.2776,-6.2758,-6.2917,-6.3592,-6.3746,-6.3629,-6.3399,-6.3677,-6.4156,-6.4665,-6.5592,-6.637,-6.6729,-6.7178,-6.7448,-6.7268,-6.7238,-6.7025,-6.6322,-6.5105,-6.3857,-6.2641,-6.1363,-6.0371,-5.9763,-6.0085,-6.0437,-6.0738,-6.1567,-6.2069,-6.222,-6.1818,-6.1793,-6.222,-6.1983,-6.2208,-6.2822,-6.2822,-6.2822,-2.9259,-3.0844,-3.2543,-3.3739,-3.6036,-3.8501,-4.0246,0.0,-4.3487,-4.4355,0.0,0.0,0.0,0.0,0.0,0.0,0.0,0.0,0.0,0.0,0.0,0.0,0.0,0.0,0.0,0.0,0.0,0.0,0.0,-4.3881,-4.3529,-4.3532,-4.3532,-4.3497,-4.3497,-4.3497,-4.3497,-4.4305,-4.4745,-4.4856,-4.5626,-4.577,-4.5341,-4.5377,-4.509,-4.476,-4.8299,-4.8595,-4.6708,-4.8196,-4.8432,-4.7885,-4.8612,-4.8953,-4.9277,-5.0769,-5.1843,-5.2705,-5.4174,-5.5144,-5.5922,-5.6644,-5.7351,-5.804,-5.8836,-5.9521,-6.0427,-6.1806,-6.1346,-6.0896,-6.3122,-6.23,-6.137,-6.2631,-6.2512,-6.2325,-6.2984,-6.3134,-6.3314,-6.3827,-6.3977,-6.4605,-6.652,-6.6879,-6.7388,-6.8645,-6.8884,-6.8645,-6.8016,-6.7926,-6.7004,-6.4752,-6.441,-6.3328,-6.0997,-6.0671,-6.0553,-6.0317,-6.0311,-6.0788,-6.1868,-6.1969,-6.2245,-6.2772,-6.2747,-6.2747,-6.2797,-6.2772,-6.2797,-6.2822,-6.2822,-6.2822,-2.9494,-3.0076,-3.086,-3.1927,-3.3372,-3.5032,-3.6863,-3.8661,-4.0352,-4.1904,0.0,0.0,0.0,0.0,0.0,0.0,0.0,0.0,0.0,0.0,0.0,0.0,0.0,0.0,0.0,0.0,0.0,0.0,0.0,0.0,-4.3532,-4.3497,-4.3497,-4.3497,-4.3497,-4.3497,-4.3497,-4.3791,-4.4016,-4.4195,-4.4485,-4.4574,-4.4543,-4.4543,-4.4156,-4.3745,-4.5563,-4.5866,-4.5201,-4.6285,-4.6861,-4.7158,-4.7431,-4.8141,-4.9187,-5.0676,-5.1719,-5.2562,-5.3528,-5.4701,-5.5819,-5.6629,-5.7295,-5.8146,-5.9409,-6.0578,-6.167,-6.2245,-6.2704,-6.3183,-6.3694,-6.3258,-6.2748,-6.2945,-6.2829,-6.278,-6.3019,-6.3079,-6.3258,-6.3887,-6.4366,-6.5024,-6.6161,-6.7059,-6.7926,-6.8854,-6.9004,-6.8914,-6.8675,-6.7284,-6.5822,-6.4915,-6.2716,-6.1318,-6.1146,-6.0127,-5.9668,-6.0236,-6.0663,-6.1215,-6.1969,-6.2345,-6.2621,-6.2822,-6.2822,-6.2822,-6.2822,-6.2822,-6.2822,-6.2822,-6.2822,-6.2822,-2.9729,-2.9796,-3.0051,-3.1178,-3.1872,-3.2819,-3.4658,-3.6262,-3.7872,-3.9696,0.0,0.0,0.0,0.0,0.0,0.0,0.0,0.0,0.0,0.0,0.0,0.0,0.0,0.0,0.0,0.0,0.0,0.0,0.0,0.0,-4.3497,-4.3497,-4.3497,-4.3497,-4.3497,-4.3391,-4.325,-4.3214,-4.3213,-4.3212,-4.3212,-4.3173,-4.311,-4.3289,-4.2963,-4.2305,-4.3388,-4.3965,-4.4148,-4.5356,-4.6404,-4.7158,-4.7397,-4.8226,-4.9487,-5.0706,-5.1566,-5.2173,-5.3141,-5.4326,-5.5478,-5.6503,-5.7476,-5.8558,-6.0047,-6.1301,-6.2273,-6.2978,-6.3366,-6.3756,-6.4101,-6.4178,-6.4156,-6.3839,-6.3758,-6.3706,-6.3194,-6.3079,-6.3318,-6.4186,-6.4725,-6.5383,-6.649,-6.7388,-6.8196,-6.8884,-6.9004,-6.8661,-6.7855,-6.6504,-6.4907,-6.3482,-6.1318,-6.0276,-6.0717,-5.9693,-5.9533,-6.0814,-6.124,-6.1718,-6.227,-6.2621,-6.2822,-6.2822,-6.2822,-6.2822,-6.2822,-6.2822,-6.2822,-6.2822,-6.2822,-6.2809,0.0,0.0,0.0,-3.1354,-3.1686,-3.2173,-3.3788,0.0,-3.6238,0.0,0.0,0.0,0.0,0.0,0.0,0.0,0.0,0.0,0.0,0.0,0.0,0.0,0.0,0.0,0.0,0.0,0.0,0.0,0.0,-4.3461,-4.3424,-4.3424,-4.3461,-4.3463,-4.3497,-4.3214,-4.2655,-4.2655,-4.2382,-4.1768,-4.1768,-4.1508,-4.0886,-4.1508,-4.1196,-4.0238,-4.209,-4.3088,-4.3613,-4.5715,-4.7106,-4.7904,-4.8522,-4.9318,-5.0126,-5.0895,-5.1251,-5.1488,-5.301,-5.4025,-5.4938,-5.6393,-5.7881,-5.937,-6.0892,-6.148,-6.2127,-6.405,-6.3408,-6.2518,-6.4465,-6.5151,-6.5167,-6.5094,-6.5111,-6.4703,-6.3394,-6.3079,-6.3498,-6.4784,-6.5054,-6.5682,-6.7597,-6.7956,-6.8166,-6.8854,-6.8974,-6.8042,-6.5607,-6.5647,-6.4291,-6.019,-6.0237,-6.0345,-5.9587,-5.9533,-6.0236,-6.1893,-6.1994,-6.2245,-6.2797,-6.2822,-6.2822,-6.2822,-6.2822,-6.2822,-6.2822,-6.2822,-6.2822,-6.2822,-6.2822,-6.2779,-3.0228,0.0,0.0,0.0,0.0,0.0,-3.0793,-3.1942,-3.339,0.0,0.0,0.0,0.0,0.0,0.0,0.0,0.0,0.0,0.0,0.0,0.0,0.0,0.0,0.0,0.0,0.0,0.0,0.0,-4.2176,-4.2187,-4.1252,-4.176,-4.2119,-4.2266,-4.2657,-4.2619,-4.2062,-4.2021,-4.1768,-4.1115,-4.1115,-4.1024,-4.092,-4.1105,-4.1276,-4.1366,-4.2414,-4.3286,-4.406,-4.5712,-4.7251,-4.8553,-4.8796,-4.9686,-5.0887,-5.1162,-5.1928,-5.301,-5.3957,-5.548,-5.7137,-5.8084,-5.9438,-6.096,-6.2448,-6.329,-6.4001,-6.5073,-6.5816,-6.6489,-6.7678,-6.7579,-6.707,-6.6027,-6.549,-6.4703,-6.3394,-6.3438,-6.4006,-6.4874,-6.5413,-6.6071,-6.7089,-6.7268,-6.7478,-6.8166,-6.7157,-6.6157,-6.5865,-6.3721,-6.2006,-6.1568,-6.0521,-6.0074,-6.0613,-6.0713,-6.109,-6.1943,-6.1994,-6.2245,-6.2797,-6.2822,-6.2822,-6.2822,-6.2822,-6.2822,-6.2822,-6.2822,-6.2822,-6.2822,-6.2822,-6.2745,-3.0393,-3.0506,-3.0502,-3.0356,0.0,0.0,-3.05,-3.1003,-3.1678,0.0,0.0,0.0,0.0,0.0,0.0,0.0,0.0,0.0,0.0,0.0,0.0,0.0,0.0,0.0,0.0,0.0,0.0,-4.0261,-4.0816,-4.0962,-4.0482,-4.1199,-4.1685,-4.1775,-4.2103,-4.2021,-4.1429,-4.1429,-4.115,-4.0577,-4.078,-4.092,-4.092,-4.1464,-4.1725,-4.1888,-4.313,-4.396,-4.4686,-4.6534,-4.7891,-4.882,-4.882,-4.9771,-5.1198,-5.123,-5.2198,-5.3653,-5.4702,-5.6292,-5.8051,-5.9133,-6.0283,-6.1569,-6.3057,-6.3646,-6.417,-6.5699,-6.7252,-6.8571,-6.935,-6.886,-6.7814,-6.6827,-6.5764,-6.4795,-6.3725,-6.3977,-6.4545,-6.4934,-6.5562,-6.6221,-6.6879,-6.6999,-6.6932,-6.6774,-6.5909,-6.4993,-6.4248,-6.2471,-6.1284,-6.1473,-6.0632,-6.0563,-6.1441,-6.1517,-6.1768,-6.232,-6.2345,-6.2496,-6.2822,-6.2822,-6.2822,-6.2822,-6.2822,-6.2822,-6.2822,-6.2822,-6.2822,-6.2822,-6.2822,-6.2862,-3.054,-3.0568,-3.0805,-3.1576,-3.1319,0.0,-3.1723,-3.1328,-3.1018,-3.1696,0.0,0.0,0.0,0.0,0.0,0.0,0.0,0.0,0.0,0.0,0.0,0.0,0.0,0.0,-3.8689,-3.8852,-3.8975,-3.8975,-3.9147,-3.9615,-4.0424,-4.1025,-4.1329,-4.1392,-4.14,-4.1174,-4.0689,-4.0735,-4.0569,-4.0204,-4.0733,-4.1059,-4.1115,-4.2221,-4.2422,-4.2098,-4.3831,-4.4818,-4.5369,-4.7399,-4.8529,-4.8919,-4.8968,-4.994,-5.1336,-5.1332,-5.2367,-5.3923,-5.5277,-5.6765,-5.8355,-5.9674,-6.0757,-6.1806,-6.3226,-6.34,-6.3703,-6.6457,-6.8166,-6.9383,-6.9917,-6.9169,-6.8011,-6.7138,-6.6048,-6.4888,-6.4176,-6.4545,-6.5054,-6.5114,-6.5652,-6.6311,-6.6604,-6.6783,-6.6339,-6.5015,-6.4793,-6.3963,-6.1755,-6.1826,-6.1551,-6.0594,-6.0964,-6.1492,-6.2044,-6.2094,-6.2295,-6.2797,-6.2822,-6.2822,-6.2822,-6.2822,-6.2822,-6.2822,-6.2822,-6.2822,-6.2822,-6.2822,-6.2822,-6.2822,-6.2873,-6.2854,-3.0568,-3.0636,-3.071,-3.0893,-3.1424,0.0,-3.1226,-3.1447,-3.1569,0.0,0.0,0.0,0.0,0.0,0.0,0.0,0.0,0.0,0.0,0.0,0.0,0.0,0.0,0.0,0.0,-3.838,-3.811,-3.811,-3.745,-3.7631,-3.899,-3.8641,-3.8495,-3.864,-3.9074,-3.9306,-3.937,-3.9824,-4.0285,-4.0733,-4.134,-4.1895,-4.2342,-4.2616,-4.2846,-4.3178,-4.3717,-4.4718,-4.5924,-4.655,-4.7843,-4.959,-5.0398,-5.1292,-5.2097,-5.2115,-5.345,-5.531,-5.5615,-5.7442,-5.9708,-6.0013,-6.1467,-6.326,-6.414,-6.5125,-6.644,-6.8857,-6.9755,-6.9917,-6.9517,-6.9211,-6.8438,-6.6016,-6.5328,-6.4888,-6.4176,-6.4545,-6.5173,-6.5712,-6.634,-6.6421,-6.5076,-6.5129,-6.4957,-6.3157,-6.2528,-6.2137,-6.2122,-6.1247,-6.0983,-6.1567,-6.1768,-6.2069,-6.2621,-6.2672,-6.2722,-6.2822,-6.2822,-6.2822,-6.2822,-6.2822,-6.2822,-6.2822,-6.2822,-6.2822,-6.2822,-6.2822,-6.2822,-6.2822,-6.277,-6.2855,-3.0784,-3.0715,-3.0898,-3.1331,-3.1848,0.0,0.0,-3.2041,-3.1932,-3.1888,0.0,0.0,0.0,0.0,0.0,0.0,0.0,0.0,0.0,0.0,0.0,0.0,0.0,0.0,0.0,-3.6749,-3.668,-3.6535,-3.6693,-3.7026,-3.7727,-3.7983,-3.8156,-3.8254,-3.8254,-3.8459,-3.879,-3.9502,-3.9848,-3.9966,-4.12,-4.181,-4.181,-4.2103,-4.2597,-4.3231,-4.4133,-4.5356,-4.687,-4.7834,-4.9082,-5.0435,-5.0571,-5.1296,-5.2369,-5.2736,-5.4093,-5.5818,-5.6562,-5.8254,-6.0182,-6.0554,-6.1975,-6.3734,-6.4816,-6.6711,-6.8741,-6.9857,-6.9951,-6.9577,-6.931,-6.8174,-6.6855,-6.5436,-6.4869,-6.4539,-6.4483,-6.4275,-6.4376,-6.5022,-6.488,-6.4742,-6.4742,-6.4216,-6.3357,-6.2459,-6.198,-6.1939,-6.2071,-6.1571,-6.1492,-6.232,-6.2421,-6.2521,-6.2797,-6.2822,-6.2822,-6.2822,-6.2822,-6.2822,-6.2822,-6.2822,-6.2973,-6.3249,-6.3249,-6.34,-6.3651,-6.3425,-6.3224,-6.2745,-6.2738,-6.3443,-3.1437,-3.1408,-3.1758,-3.2305,-3.2695,-3.3008,0.0,0.0,0.0,0.0,0.0,0.0,0.0,0.0,0.0,0.0,0.0,0.0,0.0,0.0,0.0,0.0,0.0,0.0,0.0,-3.5405,-3.5435,-3.5362,-3.6303,-3.6886,-3.6874,-3.7819,-3.8304,-3.8174,-3.7798,-3.7877,-3.8446,-3.9212,-3.9514,-3.937,-4.1051,-4.1516,-4.107,-4.1736,-4.2341,-4.3006,-4.4565,-4.609,-4.7643,-4.9145,-5.0376,-5.1236,-5.0651,-5.1179,-5.2401,-5.3348,-5.4566,-5.5919,-5.7374,-5.8863,-6.0216,-6.1028,-6.2415,-6.4038,-6.5831,-6.8064,-7.0026,-6.9996,-6.9577,-6.9121,-6.8601,-6.6751,-6.5032,-6.4967,-6.4448,-6.4098,-6.4516,-6.3918,-6.3434,-6.3793,-6.285,-6.237,-6.3856,-6.3057,-6.2269,-6.1704,-6.1927,-6.207,-6.1979,-6.2094,-6.2345,-6.2772,-6.2822,-6.2822,-6.2822,-6.2822,-6.2822,-6.2822,-6.2822,-6.2822,-6.2822,-6.2822,-6.3099,-6.3676,-6.3701,-6.3952,-6.4454,-6.4178,-6.3711,-6.3053,-6.3285,-6.4378,-3.3121,-3.3671,-3.4101,-3.3437,-3.4414,-3.5195,-3.3711,0.0,-3.3992,-3.335,0.0,0.0,0.0,0.0,0.0,0.0,0.0,0.0,0.0,0.0,0.0,0.0,0.0,0.0,0.0,0.0,-3.5572,-3.5788,-3.5929,-3.639,-3.7126,-3.727,-3.7145,-3.6658,-3.6609,-3.7006,-3.795,-3.855,-3.9465,-4.0689,-4.1438,-4.1768,-4.1725,-4.2475,-4.2829,-4.2962,-4.4634,-4.6221,-4.7672,-4.8728,-5.0328,-5.216,-5.2058,-5.2128,-5.2469,-5.3923,-5.5006,-5.5919,-5.7374,-5.8863,-6.0216,-6.1028,-6.2753,-6.5019,-6.7861,-6.8944,-6.9187,-6.9263,-6.9247,-6.8601,-6.6259,-6.5328,-6.4967,-6.4287,-6.4034,-6.3951,-6.3516,-6.3428,-6.3165,-6.2716,-6.1214,-6.0031,-6.0314,-6.1331,-6.1704,-6.0048,-6.1054,-6.2088,-6.1969,-6.2446,-6.2772,-6.2822,-6.2822,-6.2822,-6.2822,-6.2822,-6.2822,-6.2822,-6.2822,-6.2822,-6.2822,-6.2822,-6.3099,-6.3676,-6.3701,-6.3952,-6.4454,-6.4831,-6.4612,-6.4354,-6.5251,-6.5819,-3.3555,-3.3672,-3.3984,-3.4101,-3.4687,0.0,-3.4899,0.0,-3.4528,0.0,0.0,0.0,0.0,0.0,0.0,0.0,-3.2672,0.0,0.0,0.0,0.0,0.0,0.0,0.0,0.0,0.0,0.0,0.0,0.0,-3.664,-3.7813,-3.7845,-3.7941,-3.8199,-3.7594,-3.7627,-3.83,-3.8984,-3.9698,-4.0451,-4.1499,-4.2009,-4.2112,-4.2871,-4.3457,-4.4009,-4.5549,-4.7295,-4.9078,-4.9318,-5.0459,-5.2091,-5.2524,-5.3073,-5.3822,-5.531,-5.6325,-5.7205,-5.866,-5.9877,-6.1061,-6.2685,-6.441,-6.6104,-6.7424,-6.8178,-6.84,-6.8111,-6.747,-6.6543,-6.5436,-6.4788,-6.4395,-6.4034,-6.3801,-6.3473,-6.3371,-6.1912,-6.0811,-6.0827,-5.9922,-5.9225,-5.9532,-6.0173,-6.0686,-6.0946,-6.1542,-6.2119,-6.2446,-6.2697,-6.2822,-6.2822,-6.2822,-6.2822,-6.2822,-6.2822,-6.2973,-6.3299,-6.3324,-6.3174,-6.2847,-6.3149,-6.3576,-6.4128,-6.4128,-6.4555,-6.5434,-6.5308,-6.4307,-6.2659,-6.4925,-6.6152,-3.4297,0.0,0.0,0.0,0.0,0.0,0.0,0.0,0.0,0.0,0.0,0.0,0.0,0.0,-3.3108,-3.2847,0.0,-3.2354,0.0,0.0,0.0,0.0,0.0,0.0,0.0,0.0,0.0,0.0,0.0,0.0,-3.8725,-3.861,-3.8812,-3.9474,-3.857,-3.8401,-3.9021,-3.9571,-4.0158,-4.073,-4.1663,-4.221,-4.232,-4.3301,-4.4045,-4.4688,-4.638,-4.8084,-4.9718,-4.9689,-5.0391,-5.1623,-5.2606,-5.3712,-5.4959,-5.6558,-5.7679,-5.8727,-6.0216,-6.1366,-6.2482,-6.4072,-6.5177,-6.6062,-6.6766,-6.7123,-6.7232,-6.6703,-6.5835,-6.5032,-6.4623,-6.4243,-6.3919,-6.3595,-6.345,-6.3163,-6.2445,-6.0593,-5.9236,-5.9424,-5.9105,-5.9156,-5.9834,-6.0085,-6.0588,-6.1818,-6.2144,-6.237,-6.2772,-6.2822,-6.2822,-6.2822,-6.2822,-6.2822,-6.2822,-6.2973,-6.3249,-6.3676,-6.3827,-6.3576,-6.2847,-6.3525,-6.4078,-6.4454,-6.4605,-6.5157,-6.6112,-6.4974,-6.3244,-6.0511,-6.2588,-6.2925,0.0,0.0,0.0,-3.6172,0.0,0.0,0.0,0.0,-3.7546,0.0,0.0,0.0,-3.5738,-3.5232,-3.4674,-3.3545,-3.3355,0.0,0.0,0.0,0.0,0.0,0.0,0.0,0.0,0.0,0.0,0.0,0.0,0.0,-3.9722,-3.9329,-3.9118,-3.9514,-3.8893,-3.9078,-4.0036,-4.0104,-4.0798,-4.2219,-4.2306,-4.2306,-4.2354,-4.3842,-4.4553,-4.4688,-4.6921,-4.8182,-4.8726,-4.9381,-5.0033,-5.0615,-5.231,-5.394,-5.5445,-5.7251,-5.8761,-6.025,-6.1772,-6.326,-6.4512,-6.458,-6.427,-6.4243,-6.6417,-6.6191,-6.5235,-6.517,-6.5111,-6.4813,-6.3478,-6.3528,-6.3773,-6.2608,-6.287,-6.262,-6.0301,-5.9721,-5.9542,-5.8857,-5.9106,-5.9834,-6.0939,-6.1567,-6.1943,-6.1994,-6.2446,-6.2822,-6.2822,-6.2822,-6.2822,-6.2822,-6.2822,-6.2822,-6.2822,-6.335,-6.3676,-6.3701,-6.4178,-6.3952,-6.2873,-6.3877,-6.4454,-6.4454,-6.4982,-6.5534,-6.6112,-6.3729,-6.1352,-5.8769,-5.729,-5.4849,0.0,0.0,-3.6978,-3.6154,0.0,0.0,0.0,0.0,0.0,0.0,0.0,0.0,-3.5545,-3.5016,-3.4529,-3.3544,-3.3543,-3.3349,0.0,0.0,0.0,0.0,0.0,0.0,0.0,0.0,0.0,0.0,0.0,0.0,0.0,-3.9548,-3.961,-4.0403,-4.035,-4.0492,-4.0832,-4.1305,-4.2049,-4.3031,-4.3031,-4.3301,-4.3842,-4.5365,-4.6041,-4.6177,-4.7688,-4.8729,-4.9312,-4.8669,-4.9483,-5.1243,-5.2308,-5.4424,-5.6966,-5.8732,-6.0317,-6.1839,-6.3328,-6.3616,-6.3463,-6.3962,-6.3439,-6.2805,-6.4048,-6.4074,-6.3661,-6.3731,-6.3789,-6.3706,-6.3164,-6.2972,-6.2797,-6.2352,-6.1538,-6.0642,-5.9837,-5.9273,-5.9057,-5.9235,-5.9985,-6.0839,-6.1592,-6.2195,-6.2546,-6.2546,-6.2697,-6.2822,-6.2822,-6.2822,-6.2822,-6.2822,-6.2822,-6.2822,-6.2822,-6.3676,-6.4053,-6.3726,-6.453,-6.468,-6.3952,-6.4279,-6.463,-6.5007,-6.5183,-6.5559,-6.6112,-6.3754,-6.1195,-5.8814,-5.8161,-5.5429,-3.597,-3.6329,0.0,-3.5979,-3.6404,0.0,-3.6895,0.0,-3.846,0.0,0.0,0.0,0.0,-3.5191,-3.46,-3.4318,-3.4015,-3.3598,0.0,-3.4525,0.0,0.0,0.0,0.0,0.0,0.0,0.0,0.0,0.0,0.0,0.0,0.0,-4.0398,-4.1555,-4.1321,-4.1474,-4.1982,-4.2455,-4.3064,-4.3842,-4.3842,-4.4248,-4.5026,-4.6244,-4.6877,-4.7144,-4.8167,-4.8944,-4.9538,-4.8871,-4.9742,-5.1706,-5.3323,-5.5371,-5.7727,-5.9809,-6.1806,-6.3586,-6.39,-6.3648,-6.3155,-6.2909,-6.2099,-6.1561,-6.2654,-6.2671,-6.2469,-6.2889,-6.3079,-6.2993,-6.2588,-6.2395,-6.2062,-6.0987,-6.0267,-5.9541,-5.9082,-5.8901,-5.888,-5.9382,-6.0412,-6.1291,-6.1642,-6.2345,-6.2822,-6.2822,-6.2822,-6.2822,-6.2822,-6.2822,-6.2822,-6.2822,-6.2822,-6.2923,-6.3124,-6.3952,-6.4329,-6.3977,-6.4982,-6.5258,-6.4505,-6.4856,-6.5208,-6.5584,-6.5584,-6.5492,-6.5123,-6.3298,-6.1195,-5.8814,-5.8814,-5.6336]}]]